[[{"header":{"parameterUnit":"m.s-1","parameterCategory":1,"la1":30.6,"la2":28.766,"lo1":-90.7593,"lo2":-88.6598,"dx":0.0162,"dy":0.0183,"nx":116,"ny":114,"refTime":"2022-12-17T18:00:00:Z","depth":0,"parameterNumber":2,"parameterNumberName":"U-component_of_WINDS"},"data":[0.0,0.0,0.0,0.0,0.0,0.0,0.0,0.0,0.0,0.0,0.0,0.0,0.0,0.0,0.0,0.0,0.0,0.0,0.0,0.0,0.0,0.0,0.0,0.0,0.0,0.0,0.0,0.0,0.0,0.0,0.0,0.0,0.0,0.0,0.0,0.0,0.0,0.0,0.0,0.0,0.0,0.0,0.0,0.0,0.0,0.0,0.0,0.0,0.0,0.0,0.0,0.0,0.0,0.0,0.0,0.0,0.0,0.0,0.0,0.0,0.0,0.0,0.0,0.0,0.0,0.0,0.0,0.0,0.0,0.0,0.0,0.0,0.0,0.0,0.0,0.0,0.0,0.0,0.0,0.0,0.0,0.0,0.0,0.0,0.0,0.0,0.0,0.0,0.0,0.0,0.0,0.0,0.0,0.0,0.0,0.0,0.0,0.0,0.0,0.0,0.0,0.0,0.0,0.0,0.0,0.0,0.0,0.0,0.0,0.0,0.0,0.0,0.0,0.0,0.0,0.0,0.0,0.0,0.0,0.0,0.0,0.0,0.0,0.0,0.0,0.0,0.0,0.0,0.0,0.0,0.0,0.0,0.0,0.0,0.0,0.0,0.0,0.0,0.0,0.0,0.0,0.0,0.0,0.0,0.0,0.0,0.0,0.0,0.0,0.0,0.0,0.0,0.0,0.0,0.0,0.0,0.0,0.0,0.0,0.0,0.0,0.0,0.0,0.0,0.0,0.0,0.0,0.0,0.0,0.0,0.0,0.0,0.0,0.0,0.0,0.0,0.0,0.0,0.0,0.0,0.0,0.0,0.0,0.0,0.0,0.0,0.0,0.0,0.0,0.0,0.0,0.0,0.0,0.0,0.0,0.0,0.0,0.0,0.0,0.0,0.0,0.0,0.0,0.0,0.0,0.0,0.0,0.0,0.0,0.0,0.0,0.0,0.0,0.0,0.0,0.0,0.0,0.0,0.0,0.0,0.0,0.0,0.0,0.0,0.0,0.0,0.0,0.0,0.0,0.0,0.0,0.0,0.0,0.0,0.0,0.0,0.0,0.0,0.0,0.0,0.0,0.0,0.0,0.0,0.0,0.0,0.0,0.0,0.0,0.0,0.0,0.0,0.0,0.0,0.0,0.0,0.0,0.0,0.0,0.0,0.0,0.0,0.0,0.0,0.0,0.0,0.0,0.0,0.0,0.0,0.0,0.0,0.0,0.0,0.0,0.0,0.0,0.0,0.0,0.0,0.0,0.0,0.0,0.0,0.0,0.0,0.0,0.0,0.0,0.0,0.0,0.0,0.0,0.0,0.0,0.0,0.0,0.0,0.0,0.0,0.0,0.0,0.0,0.0,0.0,0.0,0.0,0.0,0.0,0.0,0.0,0.0,0.0,0.0,0.0,0.0,0.0,0.0,0.0,0.0,0.0,0.0,0.0,0.0,0.0,0.0,0.0,0.0,0.0,0.0,0.0,0.0,0.0,0.0,0.0,0.0,0.0,0.0,0.0,0.0,0.0,0.0,0.0,0.0,0.0,0.0,0.0,0.0,0.0,0.0,0.0,0.0,0.0,0.0,0.0,0.0,0.0,0.0,0.0,0.0,0.0,0.0,0.0,0.0,0.0,0.0,0.0,0.0,0.0,0.0,0.0,0.0,0.0,0.0,0.0,0.0,0.0,0.0,0.0,0.0,0.0,0.0,0.0,0.0,0.0,0.0,0.0,0.0,0.0,0.0,0.0,0.0,0.0,0.0,0.0,0.0,0.0,0.0,0.0,0.0,0.0,0.0,0.0,0.0,0.0,0.0,0.0,0.0,0.0,0.0,0.0,0.0,0.0,0.0,0.0,0.0,0.0,0.0,0.0,0.0,0.0,0.0,0.0,0.0,0.0,0.0,0.0,0.0,0.0,0.0,0.0,0.0,0.0,0.0,0.0,0.0,0.0,0.0,0.0,0.0,0.0,0.0,0.0,0.0,0.0,0.0,0.0,0.0,0.0,0.0,0.0,0.0,0.0,0.0,0.0,0.0,0.0,0.0,0.0,0.0,0.0,0.0,0.0,0.0,0.0,0.0,0.0,0.0,0.0,0.0,0.0,0.0,0.0,0.0,0.0,0.0,0.0,0.0,0.0,0.0,0.0,0.0,0.0,0.0,0.0,0.0,0.0,0.0,0.0,0.0,0.0,0.0,0.0,0.0,0.0,0.0,0.0,0.0,0.0,0.0,0.0,0.0,0.0,0.0,0.0,0.0,0.0,0.0,0.0,0.0,0.0,0.0,0.0,0.0,0.0,0.0,0.0,0.0,0.0,0.0,0.0,0.0,0.0,0.0,0.0,0.0,0.0,0.0,0.0,0.0,0.0,0.0,0.0,0.0,0.0,0.0,0.0,0.0,0.0,0.0,0.0,0.0,0.0,0.0,0.0,0.0,0.0,0.0,0.0,0.0,0.0,0.0,0.0,0.0,0.0,0.0,0.0,0.0,0.0,0.0,0.0,0.0,0.0,0.0,0.0,0.0,0.0,0.0,0.0,0.0,0.0,0.0,0.0,0.0,0.0,0.0,0.0,0.0,0.0,0.0,0.0,0.0,0.0,0.0,0.0,0.0,0.0,0.0,0.0,0.0,0.0,0.0,0.0,0.0,0.0,0.0,0.0,0.0,0.0,0.0,0.0,0.0,0.0,0.0,0.0,0.0,0.0,0.0,0.0,0.0,0.0,0.0,0.0,0.0,0.0,0.0,0.0,0.0,0.0,0.0,0.0,0.0,0.0,0.0,0.0,0.0,0.0,0.0,0.0,0.0,0.0,0.0,0.0,0.0,0.0,0.0,0.0,0.0,0.0,0.0,0.0,0.0,0.0,0.0,0.0,0.0,0.0,0.0,0.0,0.0,0.0,0.0,0.0,0.0,0.0,0.0,0.0,0.0,0.0,0.0,0.0,0.0,0.0,0.0,0.0,0.0,0.0,0.0,0.0,0.0,0.0,0.0,0.0,0.0,0.0,0.0,0.0,0.0,0.0,0.0,0.0,0.0,0.0,0.0,0.0,0.0,0.0,0.0,0.0,0.0,0.0,0.0,0.0,0.0,0.0,0.0,0.0,0.0,0.0,0.0,0.0,0.0,0.0,0.0,0.0,0.0,0.0,0.0,0.0,0.0,0.0,0.0,0.0,0.0,0.0,0.0,0.0,0.0,0.0,0.0,0.0,0.0,0.0,0.0,0.0,0.0,0.0,0.0,0.0,0.0,0.0,0.0,0.0,0.0,0.0,0.0,0.0,0.0,0.0,0.0,0.0,0.0,0.0,0.0,0.0,0.0,0.0,0.0,0.0,0.0,0.0,0.0,0.0,0.0,0.0,0.0,0.0,0.0,0.0,0.0,0.0,0.0,0.0,0.0,0.0,0.0,0.0,0.0,0.0,0.0,0.0,0.0,0.0,0.0,0.0,0.0,0.0,0.0,0.0,0.0,0.0,0.0,0.0,0.0,0.0,0.0,0.0,0.0,0.0,0.0,0.0,0.0,0.0,0.0,0.0,0.0,0.0,0.0,0.0,0.0,0.0,0.0,0.0,0.0,0.0,0.0,0.0,0.0,0.0,0.0,0.0,0.0,0.0,0.0,0.0,0.0,0.0,0.0,0.0,0.0,0.0,0.0,0.0,0.0,0.0,0.0,0.0,0.0,0.0,0.0,0.0,0.0,0.0,0.0,0.0,0.0,0.0,0.0,0.0,0.0,0.0,0.0,0.0,0.0,0.0,0.0,0.0,0.0,0.0,0.0,0.0,0.0,0.0,0.0,0.0,0.0,0.0,0.0,0.0,0.0,0.0,0.0,0.0,0.0,0.0,0.0,0.0,0.0,0.0,0.0,0.0,0.0,0.0,0.0,0.0,0.0,0.0,0.0,0.0,0.0,0.0,0.0,0.0,0.0,0.0,0.0,0.0,0.0,0.0,0.0,0.0,0.0,0.0,0.0,0.0,0.0,0.0,0.0,0.0,0.0,0.0,0.0,0.0,0.0,0.0,0.0,0.0,0.0,0.0,0.0,0.0,0.0,0.0,0.0,0.0,0.0,0.0,0.0,0.0,0.0,0.0,0.0,0.0,0.0,0.0,0.0,0.0,0.0,0.0,0.0,0.0,0.0,0.0,0.0,0.0,0.0,0.0,0.0,0.0,0.0,0.0,0.0,0.0,0.0,0.0,0.0,0.0,0.0,0.0,0.0,0.0,0.0,0.0,0.0,0.0,0.0,0.0,0.0,0.0,0.0,0.0,0.0,0.0,0.0,0.0,0.0,0.0,0.0,0.0,0.0,0.0,0.0,0.0,0.0,0.0,0.0,0.0,0.0,0.0,0.0,0.0,0.0,0.0,0.0,0.0,0.0,0.0,0.0,0.0,0.0,0.0,0.0,0.0,0.0,0.0,0.0,0.0,0.0,0.0,0.0,0.0,0.0,0.0,0.0,0.0,0.0,0.0,0.0,0.0,0.0,0.0,0.0,0.0,0.0,0.0,0.0,0.0,0.0,0.0,0.0,0.0,0.0,0.0,0.0,0.0,0.0,0.0,0.0,0.0,0.0,0.0,0.0,0.0,0.0,0.0,0.0,0.0,0.0,0.0,0.0,0.0,0.0,0.0,0.0,0.0,0.0,0.0,0.0,0.0,0.0,0.0,0.0,0.0,0.0,0.0,0.0,0.0,0.0,0.0,0.0,0.0,0.0,0.0,0.0,0.0,0.0,0.0,0.0,0.0,0.0,0.0,0.0,0.0,0.0,0.0,0.0,0.0,0.0,0.0,0.0,0.0,0.0,0.0,0.0,0.0,0.0,0.0,0.0,0.0,0.0,0.0,0.0,0.0,0.0,0.0,0.0,0.0,0.0,0.0,0.0,0.0,0.0,0.0,0.0,0.0,0.0,0.0,0.0,0.0,0.0,0.0,0.0,0.0,0.0,0.0,0.0,0.0,0.0,0.0,0.0,0.0,0.0,0.0,0.0,0.0,0.0,0.0,0.0,0.0,0.0,0.0,0.0,0.0,0.0,0.0,0.0,0.0,0.0,0.0,0.0,0.0,0.0,0.0,0.0,0.0,0.0,0.0,0.0,0.0,0.0,0.0,0.0,0.0,0.0,0.0,0.0,0.0,0.0,0.0,0.0,0.0,0.0,0.0,0.0,0.0,0.0,0.0,0.0,0.0,0.0,0.0,0.0,0.0,0.0,0.0,0.0,0.0,0.0,0.0,0.0,0.0,0.0,0.0,0.0,0.0,0.0,0.0,0.0,0.0,0.0,0.0,0.0,0.0,0.0,0.0,0.0,0.0,0.0,0.0,0.0,0.0,0.0,0.0,0.0,0.0,0.0,0.0,0.0,0.0,0.0,0.0,0.0,0.0,0.0,0.0,0.0,0.0,0.0,0.0,0.0,0.0,0.0,0.0,0.0,0.0,0.0,0.0,0.0,0.0,0.0,0.0,0.0,0.0,0.0,0.0,0.0,0.0,0.0,0.0,0.0,0.0,0.0,0.0,0.0,0.0,0.0,0.0,0.0,0.0,0.0,0.0,0.0,0.0,0.0,0.0,0.0,0.0,0.0,0.0,0.0,0.0,0.0,0.0,0.0,0.0,0.0,0.0,0.0,0.0,0.0,0.0,0.0,0.0,0.0,0.0,0.0,0.0,0.0,0.0,0.0,0.0,0.0,0.0,0.0,0.0,0.0,0.0,0.0,0.0,0.0,0.0,0.0,0.0,0.0,0.0,0.0,0.0,0.0,0.0,0.0,0.0,0.0,0.0,0.0,0.0,0.0,0.0,0.0,0.0,0.0,0.0,0.0,0.0,0.0,0.0,0.0,0.0,0.0,0.0,0.0,0.0,0.0,0.0,0.0,0.0,0.0,0.0,0.0,0.0,0.0,0.0,0.0,0.0,0.0,0.0,0.0,0.0,0.0,0.0,0.0,0.0,0.0,0.0,0.0,0.0,0.0,0.0,0.0,0.0,0.0,0.0,0.0,0.0,0.0,0.0,0.0,0.0,0.0,0.0,0.0,0.0,0.0,0.0,0.0,0.0,0.0,0.0,0.0,0.0,0.0,0.0,0.0,0.0,0.0,0.0,0.0,0.0,0.0,0.0,0.0,3.2141,3.0597,0.0,0.0,0.0,0.0,0.0,0.0,0.0,0.0,0.0,0.0,0.0,0.0,0.0,0.0,0.0,0.0,0.0,0.0,0.0,0.0,0.0,0.0,0.0,1.9038,1.9172,1.9319,1.9332,0.0,0.0,0.0,0.0,0.0,0.0,0.0,0.0,0.0,2.2393,2.5011,2.6199,2.802,3.0469,3.0254,2.9941,2.9531,0.0,0.0,0.0,0.0,0.0,0.0,0.0,0.0,0.0,0.0,0.0,0.0,0.0,0.0,0.0,0.0,0.0,0.0,0.0,0.0,0.0,0.0,0.0,0.0,0.0,0.0,0.0,0.0,0.0,0.0,0.0,0.0,0.0,0.0,0.0,0.0,0.0,0.0,0.0,0.0,0.0,0.0,0.0,0.0,0.0,0.0,0.0,0.0,0.0,0.0,0.0,0.0,0.0,0.0,0.0,0.0,0.0,0.0,0.0,0.0,0.0,0.0,0.0,0.0,0.0,0.0,0.0,0.0,0.0,0.0,3.3812,3.266,0.0,0.0,0.0,0.0,0.0,0.0,0.0,0.0,0.0,0.0,0.0,0.0,0.0,0.0,0.0,0.0,0.0,0.0,0.0,0.0,0.0,1.9185,1.9479,1.9733,1.9973,2.0214,2.0227,2.0227,2.0227,2.0227,0.0,0.0,0.0,0.0,2.0307,2.0591,2.184,2.3856,2.6122,2.9004,3.2285,3.2285,3.1934,3.1328,3.1094,0.0,0.0,0.0,0.0,0.0,0.0,0.0,0.0,0.0,0.0,0.0,0.0,0.0,0.0,0.0,0.0,0.0,0.0,0.0,0.0,0.0,0.0,0.0,0.0,0.0,0.0,0.0,0.0,0.0,0.0,0.0,0.0,0.0,0.0,0.0,0.0,0.0,0.0,0.0,0.0,0.0,0.0,0.0,0.0,0.0,0.0,0.0,0.0,0.0,0.0,0.0,0.0,0.0,0.0,0.0,0.0,0.0,0.0,0.0,0.0,0.0,0.0,0.0,3.6686,3.6934,3.7003,3.7095,3.806,3.9369,3.6229,3.5599,3.643,3.3485,0.0,0.0,0.0,0.0,0.0,0.0,0.0,0.0,0.0,0.0,0.0,0.0,0.0,0.0,0.0,0.0,0.0,0.0,0.0,1.98,2.0094,2.0147,2.0187,2.0227,2.0227,2.0227,2.0227,2.0227,0.0,0.0,0.0,2.0361,2.0615,2.2443,2.4209,2.615,2.9642,3.186,3.2715,3.2715,3.2851,3.3047,3.1934,3.1426,3.1406,0.0,0.0,0.0,0.0,0.0,0.0,0.0,0.0,0.0,0.0,0.0,0.0,0.0,0.0,0.0,0.0,0.0,0.0,0.0,0.0,0.0,0.0,0.0,0.0,0.0,0.0,0.0,0.0,0.0,0.0,0.0,0.0,0.0,0.0,0.0,0.0,0.0,0.0,0.0,0.0,0.0,3.0019,2.9531,0.0,0.0,0.0,0.0,0.0,0.0,0.0,0.0,0.0,0.0,0.0,0.0,0.0,3.5241,3.5572,3.7255,3.838,3.8832,4.1041,4.2314,4.2786,4.3144,4.3532,4.3721,4.1827,0.0,3.8153,3.7731,0.0,0.0,0.0,0.0,0.0,0.0,0.0,0.0,0.0,0.0,0.0,0.0,0.0,0.0,0.0,0.0,0.0,0.0,0.0,0.0,0.0,2.1477,2.2053,2.2053,2.3182,2.3409,2.2434,2.2606,0.0,0.0,2.1216,2.1283,2.1416,2.329,2.5771,2.8797,3.1502,3.2969,3.3144,3.3144,3.3242,3.3398,3.2832,3.2578,3.2578,3.2383,0.0,0.0,0.0,0.0,0.0,0.0,0.0,0.0,0.0,0.0,0.0,0.0,0.0,0.0,0.0,0.0,0.0,0.0,0.0,0.0,0.0,0.0,0.0,0.0,0.0,0.0,0.0,0.0,0.0,0.0,0.0,0.0,0.0,0.0,0.0,0.0,0.0,0.0,0.0,3.0723,3.043,2.998,2.9922,2.9824,0.0,0.0,0.0,0.0,0.0,0.0,0.0,0.0,0.0,3.7065,3.7762,3.8966,4.066,4.1516,4.21,4.2233,4.3437,4.4041,4.4267,4.4518,4.4618,4.4502,4.3894,4.3143,4.2332,4.0528,3.9331,3.8817,0.0,0.0,0.0,0.0,3.6072,3.5903,0.0,0.0,0.0,0.0,0.0,0.0,0.0,0.0,0.0,0.0,0.0,0.0,2.1383,2.3127,2.4316,2.4316,2.5859,2.6052,2.4299,2.4396,2.3811,2.2217,2.2098,2.2389,2.2855,2.5046,2.7855,3.1117,3.2854,3.3594,3.3594,3.3691,3.375,3.375,3.375,3.3633,3.3418,3.3902,3.3828,3.355,0.0,0.0,0.0,0.0,0.0,0.0,0.0,0.0,0.0,0.0,0.0,0.0,0.0,0.0,0.0,0.0,0.0,0.0,0.0,0.0,0.0,0.0,0.0,0.0,0.0,0.0,0.0,0.0,0.0,0.0,0.0,0.0,0.0,0.0,0.0,0.0,0.0,3.1152,3.1055,3.0586,3.0952,3.1197,0.0,0.0,0.0,0.0,0.0,0.0,3.641,3.6881,3.8265,4.0631,4.1022,4.2291,4.4618,4.4618,4.4618,4.4618,4.4769,4.4844,4.4844,4.4995,4.5146,4.5271,4.5271,4.5673,4.6155,4.316,4.2503,4.3184,4.2418,4.1696,4.0954,3.9825,3.8886,3.7974,0.0,0.0,0.0,0.0,0.0,0.0,0.0,0.0,0.0,0.0,0.0,2.3078,2.339,2.5201,2.6389,2.6389,2.6985,2.655,2.463,2.466,2.3898,2.2378,2.2392,2.3319,2.5323,2.8753,3.1377,3.3253,3.3828,3.4043,3.4043,3.4453,3.4629,3.4629,3.4629,3.418,3.3544,3.5088,3.5662,3.5641,3.5641,0.0,0.0,0.0,0.0,0.0,0.0,0.0,0.0,0.0,0.0,0.0,0.0,0.0,0.0,0.0,0.0,0.0,0.0,0.0,0.0,0.0,0.0,0.0,0.0,0.0,0.0,0.0,0.0,0.0,0.0,0.0,0.0,0.0,0.0,0.0,0.0,0.0,0.0,3.1504,3.3166,0.0,0.0,0.0,0.0,3.7537,3.7582,3.801,3.8935,4.0457,4.159,4.2186,4.3653,4.4427,4.4618,4.4618,4.4618,4.4644,4.5171,4.5447,4.5472,4.5974,4.6502,4.7004,4.7004,4.7606,4.8435,4.6205,4.4765,4.3907,4.3807,4.2786,4.167,4.3655,4.3183,4.1961,0.0,0.0,0.0,2.2911,2.211,2.1264,1.9963,1.9883,2.0067,2.0468,2.2391,2.3953,2.4284,2.7134,2.9116,2.9379,3.0792,3.0882,2.9048,2.8063,2.6687,2.4853,2.3859,2.4592,2.7439,2.9969,3.2097,3.3848,3.4277,3.4473,3.4473,3.4629,3.4707,3.4707,3.4707,3.4531,3.4367,3.6078,3.6813,3.6792,3.7588,3.7234,0.0,0.0,0.0,0.0,0.0,0.0,0.0,0.0,0.0,0.0,0.0,0.0,0.0,0.0,0.0,0.0,0.0,0.0,0.0,0.0,0.0,0.0,0.0,0.0,0.0,0.0,0.0,0.0,0.0,0.0,0.0,0.0,0.0,0.0,0.0,0.0,0.0,3.3878,3.481,0.0,3.6854,3.7865,3.8935,4.0106,4.0552,4.1259,4.2587,4.3223,4.3727,4.4294,4.4935,4.5522,4.6225,4.625,4.6401,4.6728,4.6954,4.7054,4.7054,4.7631,4.8008,4.8209,4.856,4.9138,4.9766,4.8987,4.8482,4.8145,4.8516,4.7544,4.5745,4.5068,4.3643,4.1807,0.0,0.0,0.0,2.3083,2.2722,2.2088,2.0428,2.0359,2.0767,2.177,2.3888,2.5596,2.6568,2.963,3.1761,3.204,3.3379,3.3272,3.0725,2.9716,2.8043,2.5513,2.5678,2.7122,2.9885,3.1655,3.3067,3.4277,3.4726,3.5,3.5156,3.5293,3.5449,3.5586,3.5586,3.5586,3.5701,3.7501,3.7779,3.7297,3.8109,3.773,3.6708,0.0,0.0,0.0,0.0,0.0,0.0,0.0,0.0,0.0,0.0,0.0,0.0,0.0,0.0,0.0,0.0,0.0,0.0,0.0,0.0,0.0,0.0,0.0,0.0,0.0,0.0,0.0,0.0,0.0,0.0,0.0,0.0,0.0,0.0,3.2949,3.3704,3.478,3.6241,3.768,3.859,4.0098,4.1591,4.2777,4.3235,4.3958,4.5329,4.5472,4.5723,4.6276,4.6301,4.6652,4.738,4.738,4.7556,4.7908,4.8109,4.8209,4.8209,4.8786,4.9163,4.9339,4.9715,5.0293,5.0971,5.0971,5.1096,5.1272,5.1272,5.0553,4.9077,4.7601,4.5779,4.372,0.0,0.0,2.535,2.4206,2.3453,2.2767,2.1859,2.1115,2.1493,2.3836,2.5993,2.8145,3.0194,3.2663,3.4121,3.4141,3.4512,3.3067,2.9178,2.9071,2.7632,2.4093,2.7678,3.0632,3.2474,3.3994,3.4746,3.4766,3.5215,3.5644,3.6074,3.6484,3.6914,3.7305,3.7305,3.7305,3.7426,3.904,3.8821,3.7189,3.7275,3.7254,3.7106,0.0,0.0,0.0,0.0,0.0,0.0,0.0,0.0,0.0,0.0,0.0,0.0,0.0,0.0,0.0,0.0,0.0,0.0,0.0,0.0,0.0,0.0,0.0,0.0,0.0,0.0,0.0,0.0,0.0,0.0,0.0,0.0,0.0,3.3516,3.3828,3.4211,3.423,3.7591,3.9668,3.934,4.2541,4.4945,4.5522,4.5573,4.6024,4.7104,4.7154,4.738,4.7883,4.7908,4.7908,4.7933,4.7958,4.7958,4.7983,4.856,4.8837,4.8862,4.9414,4.9967,5.0469,5.0494,5.1122,5.2126,5.2126,5.2452,5.2829,5.1749,5.1322,5.1322,5.1322,5.0014,4.7863,2.6055,2.582,2.5055,2.298,2.2815,2.2434,2.062,2.0537,2.1493,2.3836,2.62,2.8622,3.0988,3.3557,3.5156,3.5449,3.5586,3.4621,3.2134,3.0801,2.9154,2.6998,3.0153,3.2414,3.3405,3.4888,3.582,3.6133,3.625,3.6543,3.6953,3.707,3.7187,3.7305,3.7305,3.7305,3.7305,3.7827,3.7689,3.7445,4.0511,4.1683,4.1191,0.0,0.0,0.0,0.0,0.0,0.0,0.0,0.0,0.0,0.0,0.0,0.0,0.0,0.0,0.0,0.0,0.0,0.0,0.0,0.0,0.0,0.0,0.0,0.0,0.0,0.0,0.0,0.0,0.0,0.0,0.0,3.4453,3.4492,3.4355,3.5578,3.7001,3.8611,4.0773,4.2871,4.4744,4.5842,4.6652,4.7205,4.723,4.738,4.7682,4.7682,4.7757,4.7908,4.7908,4.8109,4.8535,4.8937,4.9339,4.9741,5.0318,5.0594,5.0619,5.1172,5.1498,5.1674,5.2051,5.2402,5.2703,5.2703,5.2779,5.2904,5.2603,5.158,5.0422,5.0422,4.8001,4.4517,2.5898,2.5742,2.5013,2.2666,2.283,2.243,2.0356,2.0481,2.1923,2.5045,2.7019,2.944,3.2487,3.4566,3.5762,3.5996,3.5295,3.3946,3.1948,3.0244,2.9633,3.0421,3.2332,3.3952,3.5294,3.6258,3.6855,3.6934,3.7109,3.7324,3.7559,3.7559,3.7656,3.7832,3.7832,3.7832,3.7832,3.7832,3.8547,4.0076,4.2433,4.2821,4.1701,4.095,3.9602,3.8052,3.684,3.6395,3.6424,3.5692,0.0,0.0,0.0,0.0,0.0,0.0,0.0,0.0,0.0,0.0,0.0,0.0,0.0,0.0,0.0,0.0,0.0,0.0,0.0,0.0,0.0,0.0,0.0,0.0,3.498,3.5117,3.5469,3.6102,3.7109,3.8671,4.1046,4.3294,4.5031,4.6537,4.7581,4.7883,4.7908,4.8008,4.8259,4.8259,4.8485,4.8937,4.8962,4.9238,4.9816,5.0142,5.0469,5.0795,5.1348,5.1624,5.1649,5.2201,5.2452,5.2477,5.2779,5.2929,5.2929,5.2929,5.2929,5.2929,0.0,0.0,0.0,0.0,4.8608,4.4866,2.5977,2.5781,2.5088,2.3144,2.3124,2.2726,2.0722,2.0846,2.2553,2.6739,2.8106,3.0162,3.4197,3.5488,3.6016,3.6016,3.4314,3.2314,3.0143,2.8917,2.9984,3.366,3.4484,3.5762,3.7441,3.7812,3.7832,3.7519,3.7891,3.8066,3.8066,3.8066,3.8242,3.8574,3.8574,3.8574,3.8574,3.8574,4.0288,4.3037,4.3331,4.232,4.0736,4.1772,4.1067,3.9714,3.9045,3.7852,3.6503,3.6182,0.0,0.0,0.0,0.0,0.0,0.0,0.0,0.0,0.0,0.0,0.0,0.0,0.0,0.0,0.0,0.0,0.0,0.0,0.0,0.0,0.0,0.0,0.0,0.0,3.5586,3.6014,3.6897,3.6482,3.6285,3.7311,4.0292,4.2583,4.319,4.6142,4.8033,4.8083,4.8159,4.841,4.8937,4.9012,0.0,0.0,0.0,5.077,5.1272,5.1348,5.1373,5.1373,5.1925,5.2201,5.2226,5.2703,5.2929,5.2929,5.2929,5.2929,5.2929,5.2929,5.2792,5.2629,5.2792,5.2792,5.2491,5.2327,4.9819,4.6588,2.6426,2.5977,2.5484,2.4625,2.3888,2.3181,2.2379,2.1575,2.2553,2.6739,2.8106,3.0162,3.4197,3.5488,3.6016,3.6016,3.4314,3.242,3.0352,3.1696,3.3091,3.436,3.6236,3.7518,3.832,3.8398,3.8574,3.8828,3.8906,3.8945,3.8945,3.8945,3.8809,3.8574,3.8574,3.8574,3.8574,3.8574,3.9778,4.1763,4.3272,4.4118,4.4086,4.2922,4.2215,4.1816,4.0273,4.1374,4.3043,4.0529,4.0359,4.0688,3.8523,3.8401,0.0,0.0,0.0,0.0,0.0,0.0,0.0,0.0,0.0,0.0,0.0,0.0,0.0,0.0,0.0,0.0,0.0,0.0,0.0,3.6348,3.6699,3.753,3.9172,3.9301,3.9782,4.1281,4.3294,4.5348,4.7341,4.8206,4.8786,4.9238,4.9665,4.9992,5.0092,5.0544,5.0896,5.1096,5.1122,5.1172,5.1272,5.1724,5.195,5.195,5.2503,0.0,5.2779,5.2879,5.2929,5.2929,5.2929,5.2929,5.2929,5.2929,5.205,5.0717,5.2327,5.1886,5.041,4.8794,4.6588,4.4398,2.7109,2.6504,2.5667,2.4526,2.3811,2.3001,2.1881,2.1313,2.2258,2.536,2.6406,2.8097,3.1181,3.2403,3.3001,3.3001,3.2193,3.1316,3.031,3.2701,3.4715,3.5811,3.746,3.8457,3.8887,3.9121,3.9336,3.9551,3.9551,3.9434,3.9199,3.8984,3.8769,3.8574,3.8574,3.8574,3.8574,3.8574,4.0249,4.2709,4.3703,4.4887,4.5883,4.4705,4.3796,4.2705,4.0729,4.1164,4.2527,4.0921,4.1358,4.2393,4.0763,4.015,3.9846,0.0,0.0,0.0,0.0,0.0,0.0,0.0,0.0,0.0,0.0,0.0,0.0,0.0,0.0,3.582,3.6269,0.0,3.6738,3.6953,3.7967,3.9122,4.0297,4.1122,4.2075,4.2862,4.4612,4.6261,4.7621,4.8625,4.9289,4.9565,4.9841,5.0117,5.0393,5.0695,5.1122,5.1674,5.1699,5.1825,5.2101,5.2377,5.2528,5.2528,5.2804,5.2929,5.2929,5.2929,5.2929,5.2929,5.3206,5.3306,5.3331,5.3632,5.3147,5.225,5.225,5.0747,4.8753,4.7705,4.6223,4.4656,2.7891,2.7226,2.6256,2.4861,2.4049,2.3158,2.1939,2.1325,2.1837,2.3881,2.4819,2.599,2.8114,2.9141,2.9616,2.9346,3.0252,3.0734,3.031,3.3322,3.5669,3.7285,3.8125,3.8769,3.9199,3.9668,3.9902,3.9902,3.998,3.9746,3.9199,3.8848,3.8652,3.8574,3.8574,3.8574,3.8574,3.8991,4.1063,4.4116,4.4116,4.5186,4.6618,4.5552,4.4723,4.3714,4.1575,4.1058,4.133,4.051,4.1581,4.2906,4.21,4.1581,4.1194,3.9979,3.9228,0.0,0.0,0.0,0.0,0.0,0.0,0.0,0.0,3.6016,3.5957,3.666,3.6797,3.6894,3.7226,3.7363,3.7563,3.7966,3.9245,4.052,4.1295,4.2967,4.4052,4.4052,4.5388,4.6634,4.7329,4.8738,4.959,4.959,4.9791,5.0117,5.0569,5.0795,5.1322,5.2226,5.2277,5.2477,5.2929,5.2929,5.2929,5.2929,5.303,5.308,5.308,5.3206,5.3256,5.3281,5.3683,5.3858,5.3909,5.3911,5.3799,5.3201,5.1066,4.8779,4.6854,4.722,4.6223,4.4898,2.8711,2.8105,2.7688,2.8237,2.5898,2.4333,2.527,2.2923,2.1837,2.3881,2.4623,2.5727,2.8097,2.8827,2.8663,2.7473,3.0674,3.2158,3.0451,3.4477,3.7144,3.7305,3.8125,3.8769,3.9199,3.9668,3.9902,3.9902,4.0273,4.0019,3.9199,3.916,3.8926,3.8574,3.8574,3.8574,3.872,4.0371,4.2171,4.4116,4.4116,4.5186,4.6398,4.3061,4.3729,4.617,4.4369,4.4619,4.5541,4.2279,4.2418,4.3388,4.0085,4.2279,4.5137,4.0228,4.1209,4.3187,3.9825,3.8984,3.8887,3.8476,3.8027,3.7617,0.0,3.7109,3.7109,3.7207,3.7226,3.7246,3.7285,3.7598,3.8402,4.0034,4.0787,4.1763,4.3476,4.5229,4.6437,4.6437,4.6594,4.7437,4.9152,4.9461,4.959,4.959,5.0519,5.1122,5.1172,5.2126,5.2703,5.2829,5.2829,5.2854,5.2929,5.2929,5.2929,5.2929,5.3381,5.3607,5.3632,5.416,5.4386,5.4386,5.4436,5.4461,5.4319,5.255,5.0772,4.8982,4.6853,4.5105,4.3819,4.5117,4.4386,4.2742,2.8516,2.8476,2.8594,2.9199,2.6448,2.4166,2.4499,2.2577,2.1402,2.2272,2.268,2.3422,2.451,2.5322,2.56,2.5397,2.893,3.0937,3.0293,3.4637,3.7305,3.7305,3.7871,3.8516,3.918,3.916,3.9375,3.9902,3.9805,3.957,3.9199,3.8945,3.875,3.8574,3.8574,3.8574,3.872,3.9405,4.0779,4.2452,4.2452,4.3365,4.4592,4.3122,4.3331,4.4138,4.1997,4.3122,0.0,4.2578,4.3002,4.3919,4.1147,4.194,4.3403,3.9911,4.0378,4.1876,4.1436,4.0444,3.979,4.0468,3.9465,3.8184,3.7754,3.748,3.7363,3.7617,3.7656,3.7734,3.7988,3.8184,3.859,3.9412,4.0513,4.189,4.3841,4.5592,4.7221,4.8322,4.8477,4.8763,4.9461,4.959,4.9715,5.0042,5.0519,5.1071,5.1724,5.2201,5.2603,5.2929,5.3231,5.3381,5.3381,5.3708,5.3884,5.3884,5.411,5.421,5.421,5.4461,5.4141,5.3205,5.3205,5.2764,5.1836,5.0908,5.0148,4.9227,4.7069,4.5788,4.5108,4.4361,4.3738,4.3164,2.8437,2.8613,2.8965,2.9629,2.7074,2.4978,2.4881,2.3201,2.1853,2.1853,2.1551,2.1577,2.1951,2.2712,2.3407,2.3915,2.7492,2.9781,3.0144,3.45,3.6992,3.7129,3.7519,3.8086,3.8828,3.8672,3.8887,3.9531,3.9316,3.9141,3.9023,3.8711,3.8574,3.8574,3.8574,3.8574,3.8574,3.9136,4.0085,4.1326,4.1326,4.1957,4.2738,4.2058,4.2223,4.2382,4.0391,4.1543,4.3556,4.2,4.264,4.3698,4.1543,4.1812,4.2496,4.0097,3.9707,4.0381,4.1922,4.1223,4.0105,4.1334,4.0117,3.8496,3.8184,3.7871,3.7734,3.8047,3.8105,3.8203,3.8516,3.8574,3.87,3.9261,4.0514,4.189,4.3841,4.5592,4.7353,4.8608,4.9307,4.959,4.959,4.959,4.9816,5.0368,5.0569,5.1147,5.2277,5.2477,5.2804,5.3356,5.3758,5.3934,5.3934,5.4361,5.4561,5.4561,5.4712,5.4787,5.4787,5.434,5.3546,5.2529,5.193,5.1056,4.9986,4.9229,4.9006,4.8671,4.6531,4.555,4.5369,4.3775,4.334,4.3711,2.8828,2.8574,2.8711,2.9961,2.8424,2.7258,2.8181,2.5513,2.3574,2.3574,2.2104,2.1336,2.1924,2.2525,2.3006,2.3327,2.6878,2.9402,2.9904,3.3816,3.625,3.668,3.709,3.7519,3.7949,3.8359,3.8594,3.8613,3.9004,3.8984,3.8594,3.8574,3.8574,3.8574,3.8574,3.8574,3.872,4.0514,4.1184,4.1326,4.1326,4.1326,4.1121,3.8906,3.9677,4.1913,4.1372,4.1347,4.1209,4.0296,4.1151,4.2397,4.0574,4.2418,4.4551,4.0873,4.0176,4.0586,4.117,4.0527,3.9883,4.0033,3.9219,3.8574,3.8555,3.8555,3.8535,3.8555,3.8555,3.8555,3.8574,3.8574,3.9136,4.0921,4.1184,4.189,4.3841,4.5592,4.6798,4.6931,4.8477,4.959,4.959,4.959,4.9816,5.0368,5.0946,5.1724,5.2854,5.3381,5.3909,5.4486,5.4536,5.4536,5.4536,5.4561,5.4561,5.4587,5.5114,5.5365,5.539,5.3908,5.3052,5.2925,5.0894,4.9986,4.9808,4.729,4.6332,4.6132,4.354,4.2461,4.2519,4.293,4.334,4.3711,2.8887,2.9043,2.9277,2.9707,2.968,2.9697,2.9982,2.6365,2.3574,2.3574,2.2272,0.0,0.0,0.0,0.0,0.0,2.5717,2.781,2.9385,3.2516,3.4803,3.623,3.666,3.709,3.75,3.7656,3.7871,3.8144,3.8574,3.8711,3.8574,3.8574,3.8574,3.8574,3.8574,3.8574,3.8574,3.9261,3.955,3.955,3.955,3.9369,3.8966,3.857,3.8774,3.943,0.0,4.133,4.2334,4.0781,4.0729,4.1163,4.0445,4.1183,4.1956,4.1104,4.084,4.1286,4.2729,4.1775,4.0538,4.1529,4.0412,3.8926,3.8633,3.8574,3.8574,3.8574,3.8574,3.8574,3.8574,3.8574,3.8865,3.9405,3.955,4.0105,4.2031,4.2709,4.4071,4.6532,4.7353,4.8338,4.9962,4.9816,5.0142,5.1448,5.1724,5.2452,5.3934,5.4185,5.4361,5.4561,5.4913,5.5114,5.5114,5.5465,5.5666,5.5666,5.5842,5.5942,5.5942,5.5361,5.4348,5.31,5.2319,5.0271,4.7469,4.6532,4.5195,4.356,4.3116,4.2851,4.291,4.334,4.3574,4.375,2.9141,2.9375,2.957,2.957,3.0156,0.0,0.0,0.0,0.0,0.0,0.0,0.0,0.0,0.0,0.0,0.0,0.0,2.6769,2.8886,3.1283,3.3638,3.5646,3.6055,3.6406,3.6836,3.7148,3.7422,3.7695,3.8281,3.8574,3.8574,3.8574,3.8574,3.8574,3.8574,3.8574,3.8574,3.8574,3.8848,3.9238,3.8926,3.8906,3.9062,3.8867,3.8828,0.0,3.9648,4.0972,4.2342,4.1183,4.0644,4.0547,4.0703,4.0762,4.082,4.1094,4.1172,4.1463,4.279,4.1755,4.0518,4.1529,4.0412,3.8906,3.8633,3.8574,3.8574,3.8574,3.8574,3.8574,3.8574,3.8574,3.8574,3.8574,3.8574,3.9261,4.1063,4.189,4.347,4.6792,4.7642,4.8837,5.0538,5.0569,5.1021,5.2302,5.2578,5.3306,5.4787,5.4863,5.4938,5.5139,5.5491,5.5691,5.5691,5.6043,5.6219,5.6219,5.6219,5.6219,5.6219,5.5435,5.4348,5.3076,5.1347,4.9007,4.6384,4.5278,4.3999,4.2676,4.2793,4.2851,4.2891,4.332,4.3574,4.3769,2.9609,2.9609,2.9609,0.0,0.0,0.0,0.0,0.0,0.0,0.0,0.0,0.0,0.0,0.0,0.0,0.0,0.0,0.0,2.8642,3.0443,3.2559,3.5179,3.5391,3.5586,3.6016,3.6836,3.7266,3.7305,3.8125,3.8555,3.8574,3.8574,3.8574,3.8574,3.8594,3.8613,3.8613,3.8633,3.9355,4.041,3.957,4.0,4.0976,3.9746,3.9785,4.0469,4.0098,4.0488,4.1172,4.1172,4.0918,4.0664,4.1055,4.1191,4.1211,4.1172,4.1172,4.1172,4.1172,4.0566,3.9922,3.9902,3.9238,3.8613,3.8574,3.8574,3.8574,3.8574,3.8574,3.8574,3.8574,3.8574,3.8574,3.8574,3.8574,3.9261,4.1063,4.2892,4.4868,4.7424,4.918,5.0563,5.1272,5.185,5.2427,5.298,5.3457,5.4235,5.5365,5.544,5.5666,5.6194,5.6219,5.6219,5.6219,5.6219,5.6219,5.6219,5.6219,5.6219,5.6072,5.4025,5.31,5.2925,4.8386,4.6585,4.6602,4.3719,4.2856,4.3008,4.2617,4.2461,4.2519,4.2949,4.3359,4.3769,0.0,0.0,0.0,0.0,0.0,0.0,0.0,0.0,0.0,0.0,0.0,0.0,0.0,0.0,0.0,0.0,0.0,0.0,2.8163,3.0285,3.243,3.4712,3.5215,3.5586,3.6016,3.6562,3.6992,3.7305,3.7832,3.8262,3.8574,3.8574,3.8574,3.8594,3.8906,3.9043,3.9062,3.9414,3.9746,4.0039,3.9805,3.9922,4.0215,4.0195,4.0332,4.0547,4.0762,4.0996,4.1172,4.1172,4.1308,4.1445,4.123,4.1387,4.1582,4.1269,4.1172,4.1172,4.1172,4.0781,4.0293,3.998,3.9473,3.8965,3.8652,3.8574,3.8574,3.8574,3.8574,3.8574,3.8574,3.8574,3.8574,3.8574,3.8574,3.9261,4.1063,4.2068,4.3859,4.7312,4.8531,4.9694,5.169,5.2754,5.3532,5.411,5.426,5.4838,5.5942,5.6018,5.6068,5.6219,5.6219,5.6219,5.6219,5.6219,5.6219,5.6219,5.6219,5.6219,5.6072,5.4025,5.31,5.2925,5.0162,4.7934,4.63,4.5616,4.4159,4.2617,4.2832,4.291,4.2969,4.3379,4.3613,4.3769,0.0,0.0,0.0,0.0,0.0,0.0,0.0,0.0,0.0,0.0,0.0,0.0,0.0,0.0,0.0,0.0,0.0,0.0,0.0,3.0467,3.2171,3.4537,3.4941,3.5371,3.6016,3.6445,3.6973,3.7578,3.7812,3.8242,3.8848,3.8652,3.8672,3.8867,3.9101,3.9316,3.9531,3.9785,4.0215,0.0,0.0,4.0508,4.0996,4.0859,4.0801,4.084,4.1094,4.0937,4.0664,4.1055,4.1074,4.0957,4.0898,4.1172,4.1484,4.125,4.1172,4.1172,4.1172,4.0723,4.0195,3.9961,3.9414,3.8867,3.8633,3.8574,3.8574,3.8574,3.8574,3.8574,3.8574,3.8574,3.8574,3.8574,3.8574,3.8991,3.9962,4.1337,4.3228,4.6519,4.7978,4.989,5.2566,5.3582,5.431,5.4888,5.5139,5.5566,5.6168,5.6219,5.6219,5.6219,5.6219,5.6093,5.5842,5.5616,5.5491,5.5491,5.5491,5.5491,5.5491,5.3566,5.2767,5.2593,4.965,4.7598,4.6447,4.5304,4.412,4.3008,4.3262,4.3359,4.3379,4.3613,4.3711,4.3769,0.0,0.0,0.0,0.0,0.0,0.0,0.0,0.0,0.0,3.0383,3.008,2.9583,2.8297,2.8073,0.0,0.0,0.0,0.0,0.0,0.0,3.2171,3.457,3.4668,3.5098,3.5918,3.6367,3.6973,3.7754,3.7754,3.8164,3.8945,3.8633,3.8711,3.9121,3.9238,3.9551,3.998,4.0039,4.0703,4.1641,4.0918,4.1269,4.2187,0.0,4.1172,4.1172,4.1172,4.0625,4.0019,4.0879,4.0605,3.998,4.0449,4.0859,4.1172,4.1172,4.1172,4.1172,4.1172,4.0586,3.9961,3.9902,3.9277,3.8652,3.8594,3.8574,3.8574,3.8574,3.8574,3.8574,3.8574,3.8574,3.8574,3.8574,3.8574,3.8739,3.907,4.0863,4.3135,4.5856,4.7936,5.0379,5.3443,5.4235,5.4787,5.534,5.5892,5.6219,5.6219,5.6219,5.6168,5.6118,5.6018,5.5767,5.529,5.4813,5.4561,5.4561,5.4561,5.4612,5.4687,5.3034,5.2214,5.1812,4.7944,4.633,4.6202,4.4096,4.3379,4.3711,4.3711,4.3711,4.3711,4.3711,4.3711,4.3769,0.0,0.0,0.0,0.0,0.0,0.0,0.0,0.0,0.0,0.0,3.2498,3.1797,0.0,0.0,0.0,0.0,0.0,0.0,0.0,0.0,0.0,3.416,3.4512,3.4961,3.5488,3.5918,3.6387,3.6894,3.6894,3.7148,3.7637,3.791,3.8262,3.8711,3.9453,4.0019,4.043,4.0801,4.1074,4.1269,4.1113,4.1191,4.1367,4.123,0.0,0.0,4.1172,4.0625,4.0019,4.0879,4.0605,4.0039,4.082,4.1113,4.1172,4.1172,4.1172,4.1172,4.1172,4.0801,4.0332,3.998,3.9492,3.9004,3.8652,3.8574,3.8574,3.8574,3.8574,3.8574,3.8574,3.8574,3.8574,3.8574,3.8574,3.9255,4.1152,4.2167,4.4185,4.81,4.9345,5.0789,5.3493,5.4235,5.4787,5.534,5.5892,5.6219,5.6219,5.6219,5.6018,5.5541,5.5089,5.4813,5.4712,5.4612,5.4561,5.4561,5.4561,5.4813,5.5239,5.3203,5.1629,5.0339,4.7834,4.5676,4.4166,4.3778,4.3633,4.3711,4.3711,4.3711,4.3711,4.3711,4.3711,4.3711,0.0,0.0,0.0,0.0,0.0,0.0,0.0,3.3418,3.3418,3.3418,3.3242,3.2932,3.22,3.2091,3.1835,0.0,0.0,0.0,0.0,0.0,0.0,3.4062,3.4473,3.4922,3.5391,3.5801,3.6348,3.6992,0.0,3.6992,3.7617,3.7598,3.8066,3.8926,3.9355,4.0019,4.0879,4.1074,4.1172,4.1172,4.1172,4.1172,4.1172,4.1172,0.0,0.0,4.1172,4.0469,3.9707,4.0801,4.0449,3.9726,4.082,4.1172,4.1172,4.1172,4.1172,4.1172,4.1172,4.0859,4.041,4.0,3.9551,3.9082,3.8672,3.8574,3.8574,3.8574,3.8574,3.8574,3.8574,3.8574,3.8574,3.8574,3.8574,3.9003,4.0424,4.1015,4.29,4.7248,4.8182,4.9866,5.3353,5.4235,5.4787,5.534,5.5892,5.6219,5.6219,5.5942,5.5541,5.4988,5.4411,5.411,5.411,5.3858,5.3708,5.3708,5.3984,5.426,5.4511,5.2986,5.1234,4.9451,4.7538,4.5596,4.3711,4.3711,4.3711,4.3711,4.3711,4.3711,4.3711,4.3711,4.3711,4.3711,0.0,0.0,0.0,0.0,0.0,0.0,0.0,3.3359,3.3418,3.3418,3.3418,3.3418,3.3418,3.3418,3.3418,0.0,0.0,0.0,0.0,0.0,0.0,0.0,3.4473,3.4922,3.5391,0.0,0.0,3.7031,3.6699,0.0,0.0,0.0,0.0,0.0,3.9023,3.9805,4.1035,4.1035,4.1094,0.0,0.0,4.1172,4.1172,0.0,0.0,0.0,0.0,4.0449,3.9648,4.0781,4.041,3.9687,4.082,4.1172,4.1172,4.1172,4.1172,4.1172,4.1172,4.0859,4.041,4.0,3.9551,3.9082,3.8672,3.8574,3.8574,3.8574,3.8574,3.8574,3.8574,3.8574,3.8574,3.8574,3.8574,3.875,3.9277,3.9668,4.1522,4.5967,4.6805,4.8882,5.3387,5.4285,5.4838,5.5516,5.5867,5.6043,5.6043,5.539,5.4838,5.4386,5.3833,5.3532,5.3532,5.313,5.298,5.3105,5.3507,5.3833,5.4084,5.3302,5.1592,4.9272,4.7949,4.6082,4.3711,4.3711,4.3711,4.3711,4.3711,4.3711,4.3711,4.3711,4.3711,4.3711,0.0,0.0,0.0,0.0,0.0,0.0,0.0,3.3184,3.3418,3.3418,3.3418,3.3418,3.3418,3.3418,3.3418,0.0,0.0,0.0,0.0,0.0,0.0,0.0,0.0,0.0,0.0,0.0,0.0,3.6133,3.6094,0.0,0.0,0.0,0.0,0.0,0.0,3.9355,4.0586,4.0586,0.0,0.0,0.0,0.0,0.0,0.0,0.0,0.0,0.0,4.084,4.0469,4.0996,4.084,4.0488,4.1016,4.1172,4.1172,4.1172,4.1172,4.1172,4.1172,4.0859,4.041,4.0,3.9551,3.9082,3.8672,3.8574,3.8574,3.8574,3.8574,3.8574,3.8574,3.8574,3.8574,3.8574,3.8574,3.8867,3.9707,3.9863,4.1623,4.6433,4.7006,4.9021,5.4077,5.4536,5.4988,5.6068,5.5717,5.5465,5.5465,5.4436,5.3833,5.3783,5.3281,5.3005,5.3005,5.2955,5.3155,5.3632,5.3683,5.4235,5.5239,5.5171,5.3197,4.9919,4.983,4.7486,4.3711,4.3711,4.3711,4.3711,4.3711,4.3711,4.3711,4.3711,4.3711,4.3769,0.0,0.0,0.0,0.0,0.0,0.0,3.3105,3.332,3.3418,3.3418,3.3418,3.3418,3.3418,3.3418,3.3418,3.3418,0.0,0.0,0.0,0.0,0.0,0.0,0.0,0.0,0.0,0.0,3.6016,3.6016,3.6016,0.0,0.0,0.0,0.0,0.0,0.0,3.9062,4.0527,4.0527,0.0,0.0,0.0,0.0,0.0,0.0,0.0,0.0,0.0,0.0,4.0586,4.1035,4.0879,4.0605,4.1035,4.1172,4.1172,4.1172,4.1172,4.1172,4.1172,4.1055,4.082,4.0391,3.9941,3.9512,3.9062,3.875,3.8574,3.8574,3.8574,3.8574,3.8574,3.8574,3.8574,3.8574,3.8574,3.8887,3.9766,3.9902,4.1644,4.6477,4.732,4.9275,5.3703,5.4662,5.5239,5.5691,5.5214,5.4737,5.4386,5.3959,5.3557,5.3256,5.303,5.308,5.3381,5.3381,5.3658,5.4235,5.4561,5.4938,5.539,5.5742,5.3683,4.9986,4.9986,4.7645,4.3711,4.3711,4.3711,4.3711,4.3711,4.3711,4.3711,4.3711,4.3887,4.4141,0.0,0.0,0.0,0.0,0.0,3.2891,3.3184,3.334,3.3418,3.3418,3.3418,3.3418,3.3418,3.3418,3.3476,3.3594,3.3496,0.0,0.0,0.0,0.0,0.0,0.0,0.0,0.0,0.0,3.6016,3.6016,3.6016,3.6016,0.0,0.0,3.6641,3.7734,0.0,0.0,0.0,0.0,0.0,0.0,0.0,0.0,0.0,0.0,0.0,0.0,0.0,0.0,0.0,0.0,0.0,4.0586,4.0879,4.1074,4.1172,4.1172,4.1172,4.1172,4.1172,4.1172,4.1074,4.0625,4.0215,3.9766,3.9316,3.8887,3.8574,3.8574,3.8574,3.8574,3.8574,3.8574,3.8574,3.8574,3.8574,3.8887,3.9766,3.9902,4.1554,4.5788,4.6673,4.8646,5.2809,5.4752,5.5491,5.5164,5.4938,5.4486,5.3733,5.3858,5.3632,5.2955,5.308,5.3331,5.3708,5.3884,5.4235,5.4813,5.5189,5.5465,5.5641,5.6043,5.3876,4.9986,4.9986,4.7645,4.3711,4.3711,4.3711,4.3711,4.3711,4.3711,4.3711,4.3711,4.4004,4.4414,0.0,0.0,0.0,0.0,0.0,0.0,3.2793,3.3144,3.3418,3.3418,3.3418,3.3418,3.3418,3.3418,3.3594,3.4023,3.3672,0.0,0.0,0.0,0.0,0.0,0.0,0.0,0.0,0.0,3.6016,3.6016,3.6016,3.6016,3.6016,3.6016,3.6484,3.7324,0.0,0.0,0.0,0.0,0.0,0.0,0.0,0.0,4.1172,0.0,0.0,0.0,0.0,0.0,0.0,0.0,0.0,0.0,0.0,4.082,4.1172,4.1172,4.1172,4.1172,4.1172,4.1172,4.1074,4.0625,4.0215,3.9766,3.9316,3.8887,3.8574,3.8574,3.8574,3.8574,3.8574,3.8574,3.8574,3.8574,3.8574,3.8887,3.9766,3.9902,4.1092,4.4294,4.4747,4.679,5.1899,5.4647,5.5742,5.4662,5.5064,5.4888,5.3758,5.4235,5.4059,5.2955,5.3432,5.3683,5.3708,5.426,5.4838,5.539,5.539,5.5666,5.6194,5.6219,5.3876,4.9986,4.9986,4.7645,4.3711,4.3711,4.3711,4.3711,4.3711,4.3711,4.3711,4.3711,4.4004,4.4453,0.0,0.0,0.0,0.0,0.0,0.0,0.0,3.334,3.3418,3.3418,3.3418,3.3418,3.3418,3.3691,3.3926,3.4062,3.3945,0.0,0.0,0.0,0.0,0.0,0.0,0.0,0.0,0.0,3.6016,3.6016,3.6309,3.6309,3.6035,3.6621,3.7187,3.7734,3.8184,3.9101,0.0,0.0,0.0,0.0,0.0,4.1172,4.1172,0.0,0.0,0.0,0.0,0.0,0.0,0.0,0.0,0.0,0.0,0.0,0.0,4.1094,4.1172,4.1172,4.1172,4.1172,4.1133,4.0996,4.043,3.9863,3.9707,3.9101,3.8574,3.8574,3.8574,3.8574,3.8574,3.8574,3.8574,3.8574,3.8574,3.8887,3.9766,4.1022,4.2983,4.5959,4.9337,5.2429,5.4745,5.5654,5.5917,5.5189,5.529,5.5064,5.4336,5.4461,5.4411,5.4059,5.421,5.4461,5.4838,5.5039,5.5415,5.5942,5.5942,5.6043,5.6219,5.6219,5.3876,4.9986,4.9986,4.7645,4.3711,4.3711,4.3711,4.3711,4.3711,4.3711,4.375,4.4062,4.4453,4.4883,0.0,0.0,0.0,0.0,0.0,0.0,0.0,3.3418,3.3418,3.3418,3.3418,3.3496,3.3652,3.3906,3.4199,3.4551,3.457,0.0,0.0,0.0,0.0,0.0,0.0,0.0,0.0,3.6016,3.6094,3.6269,3.6699,3.6777,3.6523,3.7383,3.793,3.8203,3.8809,3.9609,0.0,0.0,0.0,0.0,4.082,4.0781,4.0918,0.0,0.0,0.0,0.0,0.0,0.0,0.0,0.0,0.0,0.0,0.0,0.0,0.0,4.0918,4.0957,4.1133,4.1172,4.1172,4.1172,4.0527,3.9902,3.9902,3.9219,3.8574,3.8574,3.8574,3.8574,3.8574,3.8574,3.8574,3.8574,3.8711,3.9062,3.9785,4.1013,4.3106,4.6115,5.0872,5.4303,5.5188,5.5879,5.6068,5.5717,5.5691,5.5465,5.4913,5.5064,5.5189,5.5189,5.4988,5.5039,5.539,5.5591,5.5867,5.6219,5.6219,5.6219,5.6219,5.6219,5.4348,5.1093,5.0297,4.8122,0.0,4.4021,4.3711,4.3711,4.3711,4.3808,4.4004,4.4297,4.4766,4.5312,0.0,0.0,0.0,0.0,0.0,0.0,0.0,3.3418,3.3418,3.3418,3.3418,3.3594,3.4023,3.4101,3.4453,3.5312,0.0,0.0,0.0,0.0,0.0,0.0,0.0,0.0,3.6016,3.6055,3.6269,3.668,3.7129,3.7344,3.7363,3.8184,3.8613,3.8711,3.9531,4.0156,0.0,0.0,0.0,0.0,4.0273,4.0176,0.0,0.0,0.0,0.0,0.0,0.0,0.0,0.0,0.0,0.0,0.0,0.0,0.0,0.0,0.0,0.0,0.0,4.1152,4.1172,4.1133,4.0527,3.9922,3.9863,3.9219,0.0,3.8574,3.8574,3.8574,3.8574,3.8574,3.8574,3.8574,3.8926,3.9355,3.9824,4.0425,4.2076,4.5511,5.0148,5.329,5.3885,5.5336,5.6269,5.6269,5.6244,5.5993,5.5465,5.5942,5.6219,5.6219,5.5717,5.544,5.544,5.5968,5.6219,5.6219,5.6219,5.6219,5.6219,5.6219,5.5115,5.2949,5.1093,4.889,4.6706,4.4658,4.3856,4.3711,4.3711,4.3984,4.4394,4.4433,4.4961,4.5683,0.0,0.0,0.0,0.0,0.0,0.0,0.0,0.0,0.0,0.0,3.3418,3.3594,3.4023,3.4355,3.4785,0.0,0.0,0.0,0.0,0.0,0.0,0.0,0.0,0.0,3.6016,3.6348,3.6562,3.668,3.7402,3.7773,3.7793,3.832,3.8945,3.959,3.9805,4.0312,0.0,0.0,0.0,0.0,4.0586,4.043,0.0,0.0,0.0,0.0,3.9473,3.9238,0.0,0.0,0.0,0.0,0.0,0.0,0.0,0.0,4.0273,4.0547,4.0644,0.0,4.1094,4.0762,4.0527,4.0195,0.0,3.9199,3.8965,3.8633,3.8574,3.8574,3.8574,3.8574,3.8574,3.8574,3.8926,3.9355,3.9824,4.1837,4.4453,4.7816,5.0816,5.3029,5.436,5.5901,5.6846,5.6846,5.6445,5.6143,5.6018,5.6143,5.6219,5.6219,5.6093,5.6018,5.6018,5.6143,5.6219,5.6219,5.6219,5.6219,5.6219,5.6219,5.5115,5.31,5.2622,5.0297,4.6706,4.6223,4.5128,4.3711,4.3711,4.3984,4.4433,4.4766,4.5215,4.5723,0.0,0.0,0.0,0.0,0.0,0.0,0.0,0.0,0.0,0.0,0.0,3.3652,3.4297,3.457,0.0,0.0,0.0,0.0,0.0,0.0,0.0,0.0,0.0,3.6113,3.6309,3.6543,3.6855,3.7246,3.791,3.8223,3.8242,3.8887,3.9434,3.9922,4.0312,4.0625,0.0,0.0,0.0,4.0547,4.0098,0.0,0.0,0.0,0.0,0.0,3.9141,3.8926,0.0,3.8574,3.8574,3.8613,0.0,0.0,0.0,0.0,3.9746,4.0,4.041,4.084,4.1113,4.0879,4.0527,4.0156,3.9883,3.9336,3.8906,3.8867,3.8711,3.8574,3.8574,3.8574,3.8633,3.8828,3.9238,3.9746,4.0391,4.3147,4.6065,4.8982,5.1722,5.4223,5.588,5.6575,5.7022,5.7022,5.652,5.6219,5.6219,5.6219,5.6219,5.6219,5.6219,5.6219,5.6219,5.6219,5.6219,5.6219,5.6219,5.6219,5.6219,5.6219,5.5582,5.4497,5.3576,5.1224,4.8122,4.7187,4.5616,4.373,4.3945,4.4297,4.4746,4.5156,4.5586,4.5996,0.0,0.0,0.0,0.0,0.0,0.0,0.0,0.0,0.0,0.0,0.0,0.0,0.0,0.0,0.0,0.0,0.0,0.0,0.0,0.0,0.0,0.0,0.0,3.623,3.666,3.6738,3.7148,3.793,3.8359,3.8652,3.8789,3.9414,3.9766,3.9922,4.0723,4.0859,0.0,0.0,4.0215,3.9863,3.9394,0.0,0.0,0.0,0.0,0.0,0.0,0.0,0.0,3.8574,3.8574,3.8574,3.8574,0.0,0.0,0.0,0.0,0.0,4.0195,4.0742,4.1074,4.1074,4.0527,4.0059,4.0273,3.9512,3.8848,3.9141,3.8926,3.8691,3.8769,3.8711,3.8809,3.9238,3.9687,4.0293,4.1152,4.4065,4.6898,4.8963,5.238,5.5337,5.7371,5.735,5.7123,5.7047,5.652,5.6219,5.6219,5.6219,5.6219,5.6219,5.6219,5.6219,5.6219,5.6219,5.6219,5.6219,5.6219,5.6219,5.6219,5.6219,5.6219,5.6047,5.4348,5.2166,4.9853,4.8143,4.5982,4.3848,4.4238,4.4687,4.5176,4.5547,4.5937,4.6308,0.0,0.0,0.0,0.0,0.0,0.0,0.0,0.0,0.0,0.0,0.0,0.0,0.0,0.0,0.0,0.0,0.0,0.0,0.0,0.0,0.0,3.6016,3.6016,3.623,3.666,3.7012,3.7441,3.793,3.8359,3.8965,3.9687,3.9062,3.918,3.9922,4.041,4.0586,4.0508,4.0137,3.9961,3.9863,3.9394,0.0,0.0,0.0,0.0,0.0,0.0,0.0,0.0,3.8574,3.8574,3.8574,3.8574,0.0,0.0,0.0,0.0,0.0,3.9844,4.0293,4.0625,4.0625,4.0527,4.0254,3.9551,3.9551,3.9609,3.9277,3.9141,3.9219,3.9629,3.9375,3.9258,3.9726,4.0156,4.0723,4.1582,4.3984,4.63,4.7805,5.1989,5.5147,5.5758,5.6964,5.7549,5.7072,5.652,5.6219,5.6219,5.6219,5.6219,5.6219,5.6219,5.6219,5.6219,5.6219,5.6219,5.6219,5.6219,5.6219,5.6219,5.6219,5.6219,5.6219,5.5901,5.3576,5.0009,4.9696,4.742,4.4297,4.4375,4.4883,4.5586,4.5644,4.5937,4.6308,0.0,0.0,0.0,0.0,0.0,0.0,0.0,0.0,0.0,0.0,0.0,0.0,0.0,0.0,0.0,0.0,0.0,0.0,0.0,0.0,0.0,3.6016,3.6016,3.6328,3.6992,3.7207,3.7734,3.8613,3.8809,3.9258,3.9883,3.9707,3.959,3.9551,4.0234,4.0254,3.9805,3.9863,3.9629,3.918,0.0,0.0,0.0,0.0,0.0,0.0,0.0,0.0,0.0,0.0,3.8027,3.8223,3.8223,0.0,0.0,0.0,0.0,0.0,3.9707,3.9844,3.998,4.0703,4.0703,4.0469,4.0312,3.9883,3.9531,3.957,3.9199,3.9082,3.9766,3.9726,3.9805,4.0469,4.0742,4.1172,4.2031,4.362,4.5553,4.779,5.1455,5.4068,5.4893,5.6762,5.7524,5.6646,5.6344,5.6219,5.6219,5.6219,5.6219,5.6219,5.6219,5.6219,5.6219,5.6219,5.6219,5.6219,5.6219,5.6219,5.6219,5.6219,5.6219,5.6219,5.6219,5.3876,4.9986,4.9986,4.7783,4.4414,4.4648,4.5117,4.5703,4.5937,4.6133,4.6308,0.0,0.0,0.0,0.0,0.0,0.0,0.0,0.0,0.0,0.0,0.0,0.0,0.0,0.0,0.0,0.0,0.0,0.0,0.0,0.0,3.6016,3.6016,3.6016,3.6367,3.7129,3.7344,3.7969,3.9062,3.9258,3.9551,3.9902,4.043,4.0254,3.9551,4.0332,4.0195,3.9394,3.9746,3.9394,3.8594,0.0,0.0,0.0,0.0,0.0,0.0,0.0,0.0,0.0,0.0,0.0,0.0,0.0,0.0,0.0,3.8574,3.8652,3.8887,3.9687,3.9707,3.9785,4.0898,4.0781,4.0488,4.0918,4.0234,3.959,3.9844,3.9434,3.9238,3.9922,4.0117,4.041,4.1074,4.1348,4.1719,4.248,4.387,4.5734,4.8149,5.1564,5.3842,5.4609,5.6614,5.7424,5.6294,5.6219,5.6219,5.6219,5.6219,5.6219,5.6219,5.6219,5.6219,5.6219,5.6219,5.6219,5.6219,5.6219,5.6219,5.6219,5.6219,5.6219,5.6219,5.5754,5.3401,5.0009,4.9651,4.7469,4.459,4.5019,4.5449,4.5859,4.6191,4.6308,4.6308,0.0,0.0,0.0,0.0,0.0,0.0,0.0,0.0,0.0,0.0,0.0,0.0,0.0,0.0,0.0,0.0,0.0,0.0,0.0,0.0,3.6016,3.6016,3.6016,3.623,3.6699,3.748,3.8125,3.8613,3.9434,3.9863,3.9922,4.0742,4.0879,4.0449,4.0918,4.0644,3.9844,3.9883,3.9394,3.8535,3.8164,0.0,0.0,0.0,0.0,0.0,0.0,0.0,0.0,0.0,0.0,0.0,0.0,0.0,3.8574,3.8574,3.8848,3.9258,3.9766,4.0156,4.0547,4.1055,4.0547,4.0059,4.0469,4.0488,4.0332,3.9961,4.0156,4.041,4.0469,4.0801,4.1113,4.1172,4.1836,4.25,4.2969,4.5861,4.817,4.884,5.3076,5.5628,5.4765,5.6614,5.7424,5.6294,5.6219,5.6219,5.6219,5.6219,5.6219,5.6219,5.6219,5.6219,5.6219,5.6219,5.6219,5.6219,5.6219,5.6219,5.6219,5.6219,5.6219,5.6047,5.4199,5.2014,4.9875,4.8275,4.668,4.5019,4.5449,4.5879,4.6269,4.6289,4.6308,4.6308,0.0,0.0,0.0,0.0,0.0,0.0,0.0,0.0,0.0,0.0,0.0,0.0,0.0,0.0,0.0,0.0,0.0,0.0,0.0,3.6016,3.6016,3.6016,3.6016,3.6094,3.6269,3.7363,3.8418,3.9394,4.0273,4.0547,4.0293,4.0898,4.0801,4.0137,4.0312,3.9902,3.9062,3.8789,3.832,3.7773,3.7598,3.7539,0.0,0.0,0.0,0.0,0.0,0.0,0.0,0.0,3.6973,3.7539,3.7539,3.8008,3.8574,3.8574,3.8867,3.9297,3.9766,4.0019,4.0293,4.0996,4.0723,4.0391,4.084,4.0723,4.0469,4.0312,4.041,4.0684,4.1211,4.166,4.2051,4.2305,4.2617,4.3164,4.416,4.5341,4.7081,4.9111,5.1884,5.3978,5.4585,5.6295,5.7047,5.6269,5.6219,5.6219,5.6219,5.6219,5.6219,5.6219,5.6219,5.6219,5.6219,5.6219,5.6219,5.6219,5.6219,5.6219,5.6219,5.6219,5.6219,5.6047,5.4025,5.2024,5.0299,4.8285,4.6719,4.5469,4.5898,4.6152,4.6308,4.6308,4.6308,4.6308,0.0,0.0,0.0,0.0,0.0,0.0,0.0,0.0,0.0,0.0,0.0,0.0,0.0,0.0,0.0,0.0,0.0,0.0,3.6016,3.6016,3.6016,3.6016,3.6016,3.6152,3.6406,3.7402,3.8437,3.9473,4.0625,4.1016,4.0723,4.0898,4.0644,4.0098,3.9961,3.9394,3.8555,3.8262,3.7812,3.7285,3.7148,3.709,0.0,0.0,0.0,0.0,0.0,0.0,0.0,0.0,3.6504,3.7129,3.7266,3.7793,3.8418,3.8691,3.9082,3.9512,3.9961,4.0195,4.0449,4.1035,4.0957,4.084,4.1269,4.1133,4.0879,4.0762,4.084,4.1152,4.1875,4.2344,4.2734,4.3027,4.3418,4.4004,4.4902,4.5254,4.6141,4.838,5.0681,5.2488,5.3441,5.5619,5.6796,5.6244,5.6219,5.6219,5.6219,5.6219,5.6219,5.6219,5.6219,5.6219,5.6219,5.6219,5.6219,5.6219,5.6219,5.6219,5.6219,5.6219,5.6219,5.6072,5.3418,5.1661,5.0431,4.7874,4.6514,4.5898,4.6191,4.6308,4.6308,4.6308,4.6308,4.6308,0.0,0.0,0.0,0.0,0.0,0.0,0.0,0.0,0.0,0.0,0.0,0.0,0.0,0.0,0.0,0.0,0.0,0.0,3.6016,3.6016,3.6016,3.6016,3.6016,3.6406,3.7266,3.7715,3.8144,3.8594,4.0312,4.1152,4.1152,4.0723,4.0508,4.0508,4.0078,3.9394,3.8574,3.8555,3.8066,3.7246,3.6836,3.668,3.6621,0.0,0.0,0.0,0.0,0.0,0.0,0.0,3.6309,3.6738,3.7168,3.7598,3.8086,3.8945,3.9531,3.998,4.041,4.084,4.1172,4.1172,4.1172,4.1289,4.1699,4.1797,4.168,4.1269,4.1523,4.1933,4.2363,4.2793,4.3086,4.3105,4.418,4.5039,4.5039,4.5762,4.6308,4.6308,4.9701,5.198,5.1349,5.4808,5.6796,5.6244,5.6219,5.6219,5.6219,5.6219,5.6219,5.6219,5.6219,5.6219,5.6219,5.6219,5.6219,5.6219,5.6219,5.6219,5.6219,5.6219,5.6219,5.5951,5.2218,5.0567,5.0317,4.7122,4.5918,4.6308,4.6308,4.6308,4.6308,4.6308,4.6308,4.6308,0.0,0.0,0.0,0.0,0.0,0.0,0.0,0.0,0.0,0.0,0.0,0.0,0.0,0.0,0.0,0.0,0.0,0.0,3.6016,3.6016,3.6016,3.6016,3.6016,3.6133,3.6387,3.7402,3.8437,3.9512,4.2585,4.2856,4.0273,4.1413,4.1352,4.0059,3.9609,3.8926,3.8105,3.7793,3.7187,3.6406,3.6601,3.6484,3.623,0.0,0.0,0.0,0.0,0.0,0.0,0.0,0.0,0.0,3.7168,3.7598,3.8027,3.8594,3.9297,3.9922,4.0059,4.0625,4.1172,4.1172,4.1172,4.1289,4.1699,4.1797,4.1933,4.2422,4.2363,4.2461,4.3183,4.3437,4.373,4.4355,4.5019,4.5586,4.5879,4.746,4.9126,5.0778,5.2669,5.4367,5.5824,5.6228,5.6394,5.6219,5.6219,5.6219,5.6219,5.6219,5.6219,5.6219,5.6219,5.6219,5.6219,5.6219,5.6219,5.6219,5.6219,5.6219,5.6219,5.6219,5.642,5.6475,5.238,5.0947,5.1316,4.7691,4.6191,4.6308,4.6308,4.6308,4.6308,4.6308,4.6308,4.6308,0.0,0.0,0.0,0.0,0.0,0.0,0.0,0.0,3.6016,3.6016,3.6016,3.6016,0.0,0.0,0.0,3.6016,3.6016,3.6016,3.6016,3.6016,3.6016,3.6016,3.6016,3.6172,3.6523,3.9109,4.0371,4.0499,4.2958,4.3149,4.1022,4.1959,4.1457,3.9609,3.916,3.8476,3.7656,3.7402,3.6797,3.6055,3.6484,3.6406,3.6074,0.0,0.0,0.0,0.0,0.0,0.0,0.0,0.0,0.0,3.7109,3.748,3.7871,3.8828,3.959,4.0215,4.0566,4.1035,4.1426,4.1426,4.1308,4.1328,4.1914,4.2187,4.25,4.3183,4.3262,4.3359,4.3887,4.4258,4.4668,4.5195,4.5644,4.6016,4.6269,4.7468,4.9064,5.1021,5.242,5.4108,5.5966,5.6252,5.6219,5.6219,5.6219,5.6219,5.6219,5.6219,5.6219,5.6219,5.6219,5.6219,5.6219,5.6219,5.6219,5.6219,5.6219,5.6319,5.6545,5.6545,5.6252,5.5477,5.1606,4.9804,4.9554,4.7195,4.6308,4.6308,4.6308,4.6308,4.6308,4.6308,4.6308,4.6328,0.0,0.0,0.0,0.0,0.0,0.0,0.0,3.6016,3.6016,3.6016,3.6016,3.6016,0.0,0.0,0.0,3.6016,3.6016,3.6016,3.6016,3.6016,3.6035,3.6074,3.6113,3.6642,3.7867,4.1817,4.3222,4.201,4.2863,4.3,4.2418,4.2289,4.1131,3.9121,3.875,3.8125,3.7344,3.7344,3.6894,3.6172,3.6562,3.6465,3.6113,3.6523,0.0,0.0,0.0,0.0,0.0,0.0,0.0,0.0,3.6992,3.7266,3.7617,3.9238,4.0098,4.0684,4.1484,4.1738,4.1797,4.1797,4.1543,4.1484,4.2246,4.2793,4.3262,4.3691,4.4101,4.4414,4.4492,4.5156,4.5683,4.5723,4.6055,4.6289,4.6638,4.6793,4.746,4.9154,5.0947,5.2375,5.3909,5.5287,5.6219,5.6219,5.6219,5.6219,5.6219,5.6219,5.6219,5.6219,5.6219,5.6219,5.6219,5.6219,5.6244,5.6294,5.6294,5.657,5.7097,5.675,5.5502,5.3101,5.0218,4.7923,4.6308,4.6308,4.6308,4.6308,4.6308,4.6308,4.6308,4.6308,4.6328,4.6426,0.0,0.0,0.0,0.0,0.0,0.0,3.6016,3.6016,3.6016,3.6016,3.6016,3.6016,3.6016,3.6016,0.0,3.6016,3.6016,3.6016,3.6016,3.6016,3.6172,3.6523,3.6855,3.8604,4.1978,4.1645,4.3576,4.7797,4.8015,4.5916,4.162,4.3066,4.1919,3.8711,3.8613,3.8281,3.7793,3.7793,3.75,3.7031,3.7129,3.6914,3.6543,3.6641,3.6406,0.0,0.0,0.0,0.0,0.0,0.0,0.0,3.6641,3.7031,3.7441,3.8144,3.9375,4.0566,4.0742,4.1289,4.1797,4.1797,4.1973,4.2207,4.2383,4.3027,4.3691,4.416,4.4336,4.4609,4.5273,4.5547,4.5781,4.6113,4.625,4.6967,4.8634,5.0441,5.2083,5.3727,5.547,5.6393,5.6302,5.6226,5.6219,5.6219,5.6219,5.6219,5.6219,5.6219,5.6219,5.6219,5.6219,5.6219,5.6219,5.6219,5.642,5.6846,5.6846,5.7173,5.77,5.5473,5.271,4.979,4.9554,4.8209,4.6308,4.6308,4.6308,4.6308,4.6308,4.6308,4.6308,4.6308,4.6504,4.6816,0.0,0.0,0.0,0.0,0.0,0.0,0.0,0.0,3.6484,3.6074,3.6016,3.6016,3.6016,3.6016,0.0,0.0,3.6016,3.6016,3.6016,3.6016,3.6211,3.666,3.7266,3.907,4.2015,4.2015,4.3894,4.7849,4.8803,4.7399,4.3934,4.4094,4.2591,3.9818,3.8991,3.834,3.793,3.793,3.7676,3.7324,3.7519,3.7226,3.6699,3.6894,3.6582,3.6016,3.6016,0.0,0.0,0.0,0.0,0.0,0.0,0.0,3.7422,3.8047,3.9316,4.0605,4.1016,4.1601,4.2051,4.1855,4.2109,4.2422,4.2422,4.3086,4.3887,4.457,4.4707,4.4902,4.5547,4.584,4.6055,4.6269,4.6308,4.6638,4.7794,4.8769,5.0429,5.3199,5.3167,5.3921,5.6375,5.4494,5.4025,5.6047,5.5287,5.5115,5.6219,5.6219,5.6219,5.6219,5.6219,5.6219,5.6219,5.647,5.6746,5.7022,5.7323,5.6619,5.5026,5.3622,5.15,4.9111,4.836,4.7295,4.6308,4.6308,4.6308,4.6308,4.6308,4.6426,4.6601,4.6601,4.6875,4.7266,0.0,0.0,0.0,0.0,0.0,0.0,0.0,0.0,0.0,3.6113,3.6016,3.6016,3.6016,3.6016,3.6016,0.0,0.0,0.0,3.6403,3.6482,3.6836,3.7686,3.8186,3.9454,4.1731,4.315,4.4718,4.6477,4.81,4.817,4.7101,4.5027,4.3083,4.108,3.9286,3.8223,3.7812,3.7812,3.7617,3.7324,3.7598,3.7285,3.6719,3.7051,3.6758,3.6152,3.6211,3.623,3.623,3.6152,0.0,0.0,0.0,0.0,3.7441,3.8144,3.9336,4.0586,4.1367,4.1933,4.2226,4.1894,4.2109,4.2422,4.2422,4.3086,4.3965,4.4844,4.5019,4.5176,4.5683,4.6074,4.6308,4.6308,4.6308,4.6444,4.6694,4.6551,4.7433,5.0755,4.9394,4.9892,5.4695,5.2014,5.1555,5.5435,5.4025,5.4025,5.6047,5.6219,5.6219,5.6219,5.6219,5.6269,5.6344,5.6796,5.7123,5.7323,5.7574,5.5662,5.2153,5.1826,5.0725,4.8955,4.7141,4.6308,4.6308,4.6308,4.6308,4.6308,4.6387,4.6621,4.6933,4.7012,4.7324,4.7734,0.0,0.0,0.0,0.0,0.0,0.0,0.0,0.0,0.0,0.0,3.6016,3.6016,3.6016,3.6016,3.6016,3.6016,3.6016,3.6674,3.8088,0.0,0.0,4.1705,4.0912,4.2051,4.5879,4.5747,4.6607,4.838,4.8634,4.866,4.848,4.5541,4.293,4.0759,3.8826,3.7773,3.7383,3.7383,3.7344,3.7266,3.6953,3.6777,3.668,3.6738,3.668,3.6641,3.6992,3.7129,3.707,3.6699,3.6582,0.0,0.0,0.0,3.7324,3.7441,3.8652,4.0078,4.0566,4.1269,4.1875,4.1816,4.2109,4.2422,4.2422,4.3086,4.3965,4.4844,4.5019,4.5273,4.6074,4.6269,4.6308,4.6308,4.6308,4.6848,4.8438,4.8671,4.9107,5.0609,5.0612,5.0524,5.083,5.032,5.0939,5.3401,5.3251,5.4025,5.6047,5.6219,5.6219,5.6219,5.6219,5.6445,5.6922,5.6997,5.7524,5.8504,5.7096,5.5064,5.2667,5.0838,4.8743,4.6793,4.6464,4.6308,4.6308,4.6308,4.6308,4.6328,4.6699,4.6875,4.6973,4.7363,4.7754,4.8125,0.0,0.0,0.0,0.0,0.0,0.0,0.0,0.0,0.0,0.0,0.0,3.8861,3.8861,3.8861,3.8861,3.8861,3.8861,3.9256,4.0018,4.0454,4.1198,4.2615,4.2034,4.3287,4.6775,4.6037,4.6577,4.8761,4.8435,4.8284,4.8284,4.5871,4.3848,4.213,3.9986,3.8407,3.7305,3.7305,3.7305,3.7285,3.709,3.7168,3.7344,3.7109,3.7168,3.7363,3.7324,3.7305,3.7266,3.709,3.7031,3.6992,3.6797,0.0,0.0,0.0,3.8535,3.9766,4.0918,4.1523,4.1855,4.209,4.2109,4.2129,4.2383,4.291,4.3613,4.4492,4.4863,4.5293,4.6152,4.6308,4.6308,4.6308,4.6308,4.6481,4.7057,4.6925,4.7339,4.8758,4.7631,4.772,4.9853,4.7804,4.7783,5.1071,5.1378,5.2319,5.4348,5.5582,5.6344,5.6671,5.6671,5.6947,5.7499,5.7826,5.7744,5.7375,5.6622,5.4418,5.0946,5.0125,4.8462,4.6308,4.6308,4.6308,4.6328,4.6562,4.666,4.6699,4.7129,4.7441,4.7676,4.7871,4.8203,4.8574,0.0,0.0,0.0,0.0,0.0,0.0,0.0,0.0,0.0,0.0,0.0,4.1181,4.1181,0.0,0.0,0.0,4.1248,4.1482,4.2002,4.2457,4.2974,4.3748,4.3339,4.4364,4.6882,4.6159,4.6553,4.8134,4.7857,4.7631,4.7506,4.6207,4.5042,4.364,4.0872,3.8616,3.6816,3.6934,3.6973,3.6992,3.7748,3.7885,3.7754,3.8323,3.8379,3.8203,3.7891,3.7773,3.7754,3.7539,3.7461,3.7441,3.7324,3.7598,0.0,0.0,0.0,3.9531,4.1055,4.1484,4.1621,4.2266,4.2109,4.1933,4.248,4.2851,4.334,4.4219,4.4648,4.5117,4.5996,4.623,4.6308,4.6308,4.6308,4.6113,4.5586,4.5234,4.5292,4.6332,4.4858,4.4965,4.81,4.6061,4.6061,4.9674,5.0452,5.1708,5.3726,5.5559,5.662,5.7022,5.7173,5.7524,5.8102,5.8654,5.831,5.7035,5.5895,5.3647,5.0634,4.9338,4.7915,4.6621,4.6406,4.6367,4.6484,4.6797,4.6992,4.7129,4.7578,4.793,4.8223,4.832,4.8574,4.8867,0.0,0.0,0.0,0.0,0.0,0.0,0.0,0.0,0.0,0.0,0.0,4.1181,4.1181,4.1181,4.136,4.1961,4.145,4.2153,4.4318,4.4944,4.57,4.681,4.5803,0.0,4.7009,4.7082,4.6806,4.6426,4.6928,4.6903,4.6401,4.6806,4.6142,4.4357,4.0759,3.7799,3.5527,3.5918,3.6094,3.6289,3.8924,3.8902,3.7724,4.076,4.082,3.9141,3.9101,3.9101,3.8984,3.8164,3.7891,3.7812,3.7422,3.7598,3.793,0.0,0.0,0.0,4.0332,4.0586,4.0879,4.2129,4.2109,4.2012,4.2851,4.3066,4.334,4.4219,4.4414,4.4687,4.5547,4.6035,4.6308,4.6308,4.6308,4.6016,4.5176,4.5039,4.4707,4.3994,4.3711,4.3856,4.4021,4.5596,4.7645,4.983,5.1861,5.3876,5.5901,5.6548,5.6997,5.7022,5.7575,5.8127,5.8679,5.9207,5.9458,5.9328,5.5067,5.3168,5.3281,4.8667,4.6915,4.7461,4.666,4.6523,4.6894,4.6914,4.7168,4.7598,4.8008,4.8183,4.8262,4.8672,4.8848,4.8867,0.0,0.0,0.0,0.0,0.0,0.0,0.0,0.0,0.0,0.0,0.0,0.0,0.0,4.4451,4.544,4.532,4.5126,4.5351,4.6217,4.5748,4.5944,4.7104,4.5993,4.5969,4.7129,4.6778,4.6677,4.6828,4.6326,4.615,4.6301,4.5773,4.4467,4.2421,4.1129,3.932,3.735,3.6479,3.6172,3.6622,3.7868,3.8465,3.872,3.9885,4.0975,4.1739,4.0176,0.0,4.0861,3.9267,3.8574,3.832,3.8164,3.8223,3.834,3.834,3.875,3.9336,3.9961,4.0312,4.0703,4.1445,4.1504,4.1543,4.2129,4.2461,4.2832,4.3418,4.4004,4.4492,4.4805,4.543,4.5996,4.625,4.6308,4.6094,4.5527,4.5449,4.5215,4.4629,4.5423,4.5573,4.4307,4.58,4.7187,4.7963,4.983,5.2154,5.4533,5.6129,5.7374,5.8102,5.8328,5.8679,5.9207,5.9759,5.9359,5.7861,5.5201,5.33,5.1939,4.8546,4.7285,4.7558,4.7246,4.7207,4.7363,4.7637,4.7832,4.8027,4.8457,4.8633,4.8652,4.8808,4.8867,4.8867,0.0,0.0,0.0,0.0,0.0,0.0,0.0,0.0,0.0,4.6075,0.0,0.0,0.0,0.0,4.7782,4.7431,4.7581,4.7606,4.7405,4.6878,4.6677,4.6853,4.6326,4.62,4.6577,4.6401,4.6301,4.6301,4.5748,4.5472,4.5447,4.4895,4.3813,4.2418,4.1916,4.0717,3.8937,3.8242,3.7848,3.7666,3.9208,3.9553,3.9386,4.0395,4.1664,4.2453,4.0867,4.1003,4.1596,4.0294,3.9687,3.9394,3.9101,3.8809,3.8574,3.8574,3.8769,3.9082,3.9531,3.998,4.0449,4.1035,4.1172,4.1328,4.1875,4.2109,4.2383,4.2969,4.3535,4.4043,4.4336,4.4863,4.543,4.5996,4.6211,4.6113,4.5527,4.5586,4.5469,4.4883,4.6474,4.6619,4.4562,4.6533,4.7963,4.7804,4.983,5.2224,5.4799,5.6426,5.7926,5.9207,5.9081,5.9332,6.006,6.0236,5.9732,5.8419,5.5754,5.3638,5.2259,4.9009,4.7734,4.8008,4.7851,4.7793,4.7812,4.8086,4.8203,4.8242,4.8535,4.8633,4.8633,4.8633,4.873,4.8867,0.0,0.0,0.0,0.0,0.0,0.0,0.0,0.0,4.6549,4.8405,0.0,0.0,0.0,0.0,0.0,4.7958,4.8435,4.851,4.7933,4.8385,4.7983,4.6401,4.6803,4.6602,4.5547,4.5999,4.5723,4.4618,4.5146,4.4869,4.3815,4.4342,4.4593,4.4502,4.3433,4.1783,3.9961,4.1444,4.1001,3.9593,4.3404,4.2778,3.982,4.3014,4.3116,4.1502,4.1502,4.1502,4.1483,4.1347,4.1327,4.1151,4.0137,3.9277,3.8574,3.8574,3.8574,3.8672,0.0,0.0,0.0,4.0918,4.1152,4.1367,4.2207,4.209,4.2031,4.2871,4.3066,4.334,4.4199,4.4375,4.4668,4.5508,4.5996,4.5996,4.5176,4.543,4.5391,4.4551,4.6331,4.664,4.4582,4.7783,4.9986,4.9986,5.1861,5.4117,5.6874,5.765,5.8704,6.0261,5.9809,6.006,6.1165,6.0638,6.0638,6.1031,5.6628,5.4691,5.4773,4.9862,4.8066,4.8828,4.8398,4.8203,4.8203,4.8203,4.8203,4.8183,4.8183,4.8203,4.8203,4.8203,4.8476,4.8867,0.0,0.0,0.0,0.0,0.0,5.0627,5.0814,4.8234,4.6218,0.0,0.0,0.0,0.0,0.0,4.8234,4.9063,4.8535,4.8083,4.7908,4.6954,4.6552,4.6903,4.6276,4.5999,4.6075,4.5422,4.4945,4.4618,4.3991,4.3714,4.379,4.3539,4.3639,4.4041,4.4128,4.4224,4.4403,4.3111,4.2281,4.197,4.4967,4.5478,4.4619,4.6629,4.7954,4.8553,4.7201,4.7282,4.7885,4.4905,4.3421,4.257,4.0097,3.9023,3.8574,3.8574,3.8574,3.8594,3.8711,0.0,0.0,0.0,0.0,0.0,4.1387,4.166,4.1875,4.2109,4.2656,4.3144,4.3398,4.3965,4.4473,4.4707,4.5371,4.5879,4.5937,4.6055,4.6035,4.5801,4.7,4.7092,4.5013,4.6536,4.828,4.983,4.9069,5.1304,5.73,5.893,5.9859,6.0311,6.0588,6.0864,6.119,6.1416,6.0763,5.9181,5.6666,5.4674,5.3046,4.9955,4.8633,4.8828,4.8398,4.8203,4.8203,4.8203,4.8027,4.7754,4.7754,4.793,4.8203,4.8203,4.8476,4.8867,0.0,0.0,5.2553,5.2879,5.2189,5.1926,5.2341,4.9623,4.7607,0.0,0.0,0.0,0.0,0.0,0.0,4.9866,4.9113,4.851,4.8284,4.7154,4.6677,4.7104,4.6301,4.5974,4.6301,4.5673,4.5221,4.4995,4.4342,4.4066,4.4141,4.3815,4.384,4.4166,4.4744,4.5472,4.628,4.5838,4.5248,4.493,4.6818,4.7402,4.7175,4.8231,4.9387,5.0179,4.9337,4.941,4.9661,4.764,4.5812,4.3844,4.1963,4.0176,3.8809,3.8633,3.8574,3.8574,3.8574,3.8887,3.9258,3.9531,0.0,0.0,4.1074,4.1367,4.1641,4.1992,4.2324,4.2656,4.3008,4.3496,4.3965,4.4336,4.4824,4.5293,4.5703,4.5937,4.6035,4.6035,4.7386,4.7565,4.5464,4.6596,4.7835,4.8902,4.7783,4.9866,5.6235,5.7892,5.935,6.0663,6.1014,6.1391,6.1868,6.1969,6.0908,5.8855,5.6782,5.4654,5.2387,4.9911,4.8867,4.8828,4.8398,4.8203,4.8203,4.8027,4.7793,4.7578,4.7578,4.7832,4.8203,4.8203,4.8476,4.8867,0.0,0.0,5.2929,5.2929,5.1443,5.0857,5.2629,5.0725,4.9662,0.0,5.1055,0.0,0.0,0.0,0.0,0.0,5.0017,4.949,4.8987,4.836,4.7832,4.7431,4.6828,4.6527,4.6577,4.6451,4.6125,4.5573,4.5522,4.5196,4.4618,4.4618,4.4669,4.4744,4.5321,4.5924,4.6627,4.8711,4.9051,4.8396,4.9288,4.9201,4.8703,4.9319,4.957,4.9615,4.9943,4.9784,4.9314,4.9955,4.7904,4.5078,4.4461,4.2133,3.9475,3.8916,3.8652,3.8633,3.8594,3.8848,3.9141,3.9199,3.9785,0.0,4.0996,4.1094,4.1328,4.2129,4.2031,4.2031,4.2793,4.2969,4.3281,4.4121,4.4258,4.4433,4.4961,4.5351,4.5625,4.5664,4.7257,4.7745,4.5836,4.6892,4.7754,4.7501,4.7785,4.9876,5.4155,5.5692,5.7885,6.104,6.1266,6.1843,6.2822,6.2345,6.0941,5.8969,5.6919,5.4477,5.1847,4.9911,4.8867,4.8828,4.8398,4.8203,4.8164,4.7754,4.7578,4.7578,4.7578,4.7832,4.8203,4.8203,4.8476,4.8867,5.2779,5.2854,5.2929,5.2929,5.2629,5.2491,5.2792,5.1205,4.9912,5.0263,4.9493,0.0,0.0,0.0,0.0,0.0,5.0594,5.0218,5.0092,4.9163,4.8761,4.9113,4.8134,4.7807,4.8284,4.7431,4.6702,4.615,4.5698,4.5196,4.4618,4.4618,4.4869,4.5347,4.5899,4.6677,4.7682,4.9038,5.0538,5.1955,5.3023,5.318,5.2798,5.4252,5.4795,5.4819,5.477,5.4451,5.374,5.1412,4.8781,4.6211,4.4273,4.2962,4.1624,3.9623,3.9082,3.9004,3.8672,3.8633,3.8769,3.9121,3.9336,0.0,4.0469,4.0644,4.0801,4.1308,4.1621,4.1855,4.2012,4.2324,4.2734,4.3242,4.334,4.373,4.4863,4.5098,4.5273,4.5644,4.5694,4.5786,4.5644,4.5595,4.6273,4.7796,4.9697,5.1032,5.1922,5.5202,5.8079,6.0462,6.1793,6.2621,6.2822,6.2722,6.0622,5.655,5.6053,5.3593,4.9564,4.9032,4.8867,4.8828,4.8398,4.8203,4.8164,4.7754,4.7578,4.7578,4.7578,4.7832,4.8203,4.8203,4.8476,4.8867,5.2929,5.2929,5.2929,5.2929,5.2929,5.2929,5.2929,5.205,5.1541,5.1785,5.159,0.0,0.0,0.0,0.0,0.0,0.0,5.1147,5.087,5.0067,4.959,4.959,4.8786,4.8335,4.8335,4.7807,4.7255,4.6728,4.6451,4.6024,4.5472,4.5472,4.605,4.7104,4.6828,4.7631,4.9213,5.0067,5.1247,5.2603,5.3708,5.4461,5.5013,5.5591,5.5792,5.5767,5.5491,5.5214,5.4695,5.2804,5.0699,4.8638,4.7264,4.5755,4.4257,4.2916,4.2186,4.1976,4.1746,4.1515,4.1126,4.037,4.0448,0.0,0.0,4.0527,4.0991,4.2685,4.2961,4.3331,4.4461,4.407,4.3771,4.4237,4.3557,4.3301,4.3965,4.4433,4.4883,4.5293,4.5351,4.543,4.5644,4.5664,4.6062,4.6824,4.7734,4.9303,5.1639,5.4138,5.7095,6.058,6.2094,6.2822,6.2822,6.1598,5.933,5.5879,5.4654,5.2387,4.8867,4.8867,4.8867,4.8828,4.8398,4.832,4.8496,4.8066,4.8027,4.8203,4.7969,4.8164,4.8535,4.8535,4.8672,4.8867,5.2929,5.2929,5.2929,5.2929,5.2929,5.2955,5.3055,5.308,5.3256,5.3808,0.0,0.0,0.0,0.0,0.0,0.0,0.0,5.2076,5.1624,5.1071,5.0494,4.9941,4.949,4.8937,4.8234,4.8335,4.8033,4.728,4.728,4.6954,4.6301,4.6301,4.7079,4.8435,4.7757,4.8485,5.0318,5.1222,5.19,5.2503,5.3582,5.4838,5.6018,5.5566,5.539,5.5315,5.4762,5.4561,5.4511,5.416,5.2773,5.1153,5.0651,4.8988,4.6932,4.6126,4.5557,4.5102,4.5152,4.4676,4.4108,4.2569,4.2443,4.252,0.0,0.0,0.0,4.4605,4.4933,4.5234,4.727,4.5988,4.4768,4.5012,4.3937,4.2832,4.2832,4.3516,4.4238,4.4844,4.5215,4.5469,4.5547,4.5996,4.6152,4.582,4.5469,4.7183,5.1388,5.3011,5.5741,6.0303,6.1908,6.2722,6.2822,6.0528,5.8119,5.5879,5.3615,5.1145,4.8867,4.8867,4.8867,4.8848,4.8476,4.8535,4.8828,4.8476,4.8535,4.8828,4.8476,4.8555,4.8867,4.8867,4.8867,4.8867,5.2929,5.2929,5.2929,5.2929,5.2929,5.308,5.3557,5.3607,5.3808,5.4386,0.0,0.0,0.0,0.0,0.0,0.0,5.2879,5.2804,5.2754,5.2226,5.1674,5.1122,5.1021,5.0494,4.9414,4.9891,4.9364,4.7832,4.7832,4.7305,4.6301,4.6301,4.6677,4.7355,4.8209,4.8987,4.9816,5.1875,5.3055,5.3607,5.4737,5.5315,5.5465,5.5415,5.539,5.5315,5.4762,5.4561,5.4637,5.5064,5.4069,5.2576,5.1682,5.053,4.9203,4.6955,4.6344,4.6186,4.5714,4.5557,4.5512,4.5229,4.5274,4.531,4.56,0.0,4.5888,4.6566,0.0,4.6757,4.6971,0.0,0.0,4.4243,4.3008,4.1953,4.1953,4.2344,4.3105,4.4316,4.4512,4.4687,4.5058,4.582,4.6289,4.623,4.6191,4.6995,4.9112,5.1708,5.4531,5.7371,6.0478,6.2345,6.2822,6.0528,5.8119,5.5879,5.3615,5.1145,4.8867,4.8867,4.8867,4.8867,4.8808,4.8808,4.8848,4.8808,4.8808,4.8848,4.8808,4.8808,4.8867,4.8867,4.8867,4.8867,5.2929,5.2929,5.2929,5.2929,5.3181,5.3457,5.3658,5.426,5.4762,5.5013,5.5114,0.0,0.0,0.0,0.0,0.0,5.3582,5.3381,5.3381,5.2879,5.2477,5.2251,5.1925,5.1373,5.0594,5.0795,5.0092,4.841,4.841,4.7857,4.6778,4.6778,4.7581,4.9063,4.9515,5.0393,5.1624,5.2854,5.3708,5.4235,5.4712,5.5089,5.539,5.539,5.5189,5.4888,5.4637,5.4561,5.4587,5.4838,5.4662,5.4169,5.3069,5.2779,5.2343,5.062,4.9883,4.9595,4.9493,4.9421,4.9073,4.7609,4.7609,4.7607,4.6555,4.6456,4.6902,4.8413,0.0,0.0,0.0,0.0,0.0,0.0,4.5212,4.342,4.342,4.2922,4.2734,4.3535,4.3848,4.4277,4.4961,4.5801,4.6191,4.5957,4.6387,4.7494,4.9195,5.076,5.3248,5.6952,5.9007,6.0203,6.0257,5.8296,5.6204,5.3771,5.1507,4.9911,4.8867,4.8867,4.8867,4.8867,4.8867,4.8867,4.8867,4.8867,4.8867,4.8867,4.8867,4.8867,4.8867,4.8867,4.8867,4.8867,5.3381,5.313,5.298,5.3105,5.3457,5.3808,5.411,5.4988,5.5616,5.5616,5.5842,5.5993,5.5993,5.534,5.4762,0.0,5.3808,5.3482,5.3482,5.3281,5.308,5.2929,5.2678,5.2226,5.1523,5.1498,5.0695,4.8987,4.8987,4.8435,4.7355,4.7355,4.8284,4.9967,5.0293,5.1272,5.2754,5.3582,5.4185,5.4587,5.4737,5.5039,5.5365,5.5214,5.5013,5.4787,5.4787,5.4787,5.4838,5.5139,5.5214,5.5064,5.4561,5.4361,5.416,5.3381,5.2754,5.2327,5.2327,5.2327,5.1929,5.0093,4.9987,4.9974,4.8544,4.8117,4.8661,5.0479,5.0857,0.0,0.0,0.0,4.9914,4.9771,0.0,4.4537,4.4411,4.2994,4.2285,4.2832,4.3281,4.3887,4.4766,4.5742,4.6133,4.5703,4.6562,4.7542,4.8654,4.9609,5.1993,5.5953,5.7549,5.826,5.8522,5.6508,5.45,5.2387,5.0094,4.8867,4.8867,4.8867,4.8867,4.8867,4.8867,4.8867,4.8867,4.8867,4.8867,4.8867,4.8867,4.8867,4.8867,4.8867,4.8867,4.8867,5.4511,5.3658,5.308,5.3582,5.3683,5.4059,5.5164,5.5817,5.6194,5.6194,5.5742,5.5415,5.5415,5.4411,5.3758,5.3733,5.3256,5.2955,5.2955,5.3406,5.3457,5.2955,5.3381,5.3155,5.2101,5.2076,5.1247,4.9565,4.9565,4.8987,4.7883,4.7883,4.8209,4.8862,4.9941,5.1046,5.2226,5.3858,5.4536,5.4612,5.5139,5.5365,5.534,5.4787,5.4913,5.5365,5.5365,5.5365,5.5516,5.6595,5.5892,5.4762,5.5817,5.5013,5.3708,5.3683,5.3306,5.2904,5.2904,5.2904,5.2904,5.2742,5.2742,5.2767,5.2767,5.2742,5.2767,5.2767,5.2792,5.2792,5.2929,0.0,0.0,0.0,0.0,0.0,0.0,4.2261,4.1523,4.2344,4.2832,4.3437,4.4336,4.5566,4.6133,4.5703,4.6855,4.7187,4.6523,4.8482,5.0824,5.376,5.5976,5.7499,5.8522,5.6165,5.4171,5.2387,5.0094,4.8867,4.8867,4.8867,4.8867,4.8867,4.8867,4.8867,4.8867,4.8867,4.8867,4.8867,4.8867,4.8867,4.8867,4.8867,4.8867,4.8867,5.5114,5.4511,5.4059,5.4235,5.4587,5.5064,5.5817,5.6093,5.6068,5.5717,5.5491,5.5239,5.4888,5.4511,5.411,5.3733,5.3532,5.3432,5.3432,5.3281,5.3256,5.3432,5.3281,5.303,5.2653,5.2302,5.1448,5.0142,4.9766,4.9213,4.8485,4.8485,4.8786,4.9389,5.087,5.195,5.2703,5.3607,5.4436,5.5089,5.4913,5.529,5.5867,5.5315,5.544,5.5942,5.5942,5.5942,5.5993,5.6369,5.6369,5.6143,5.5792,5.5541,5.5214,5.4486,5.416,5.3934,5.3557,5.3708,5.3833,5.3105,5.3482,5.3909,5.3532,5.3432,5.3432,5.3432,5.3181,5.2929,5.2929,0.0,0.0,0.0,0.0,0.0,0.0,4.3145,4.1387,4.1953,4.2383,4.2871,4.3476,4.4453,4.498,4.4844,4.6016,4.6484,4.5918,4.6808,4.9188,5.298,5.2813,5.3459,5.5161,5.3295,5.232,5.1925,5.1212,5.0858,5.1145,5.1145,5.0439,4.8867,4.8867,4.8867,4.8867,4.8867,4.8867,4.8867,4.8867,4.9043,4.9297,4.9297,4.9121,4.8867,5.5691,5.539,5.5089,5.4888,5.5315,5.5792,5.6168,5.6043,5.5792,5.544,5.5214,5.5039,5.4888,5.4687,5.4411,5.4034,5.3808,5.3708,5.3708,5.3381,5.3432,5.3984,5.3482,5.3206,5.3206,5.2678,5.195,5.1021,5.0469,4.9916,4.9364,4.9163,4.9364,4.9941,5.1247,5.2226,5.2955,5.3482,5.411,5.4762,5.4637,5.5114,5.5917,5.5968,5.6319,5.6796,5.657,5.6646,5.6821,5.6821,5.6922,5.6922,5.6194,5.5942,5.5767,5.5064,5.4712,5.4486,5.411,5.4285,5.4386,5.3683,5.4034,5.4461,5.4084,5.4009,5.3959,5.3733,5.3432,5.3206,5.3206,5.3055,0.0,0.0,0.0,0.0,0.0,4.3228,4.1269,4.1543,4.1953,4.2441,4.3027,4.3887,4.4394,4.4394,4.5586,4.6113,4.5703,4.6074,4.7966,5.1594,5.074,5.0804,5.2315,5.1273,5.098,5.1442,5.0723,5.0971,5.2135,5.1425,5.0276,4.8867,4.8867,4.8867,4.8867,4.8867,4.8867,4.8867,4.8867,4.9141,4.9512,4.9355,4.9101,4.8867,5.6269,5.6219,5.6043,5.5516,5.5867,5.6219,5.6219,5.5767,5.5415,5.539,5.4938,5.4787,5.529,5.4888,5.4561,5.4561,5.4059,5.3733,5.3733,5.3708,5.3959,5.4486,5.3959,5.3683,5.3708,5.3181,5.2628,5.2151,5.1574,5.0996,5.0444,4.9916,4.9967,5.0494,5.1071,5.1925,5.2955,5.3457,5.3683,5.3808,5.4386,5.4963,5.5616,5.6646,5.7424,5.7901,5.7298,5.7424,5.7901,5.7901,5.7524,5.7072,5.7072,5.6344,5.5516,5.5491,5.5089,5.4687,5.4612,5.4612,5.4587,5.4587,5.4587,5.4612,5.4612,5.4612,5.4461,5.3909,5.3758,5.3733,5.3733,5.3331,5.3181,0.0,0.0,0.0,0.0,0.0,4.1327,4.1172,4.1523,0.0,0.0,4.3789,4.4316,4.4336,4.5527,4.6074,4.5664,4.6055,4.7295,4.9446,4.9467,4.9676,5.0225,5.0095,5.0498,5.0917,4.9311,4.9712,5.1673,5.0035,4.9012,4.8867,4.8867,4.8867,4.8867,4.8867,4.8867,4.8867,4.8887,4.916,4.9473,4.9043,4.8887,4.8887,5.6897,5.6495,5.6168,5.6018,5.6118,5.6219,5.6219,5.6093,5.5842,5.544,5.5265,5.5089,5.4813,5.4637,5.4561,5.4561,5.4436,5.4336,5.4336,5.3934,5.3758,5.3909,5.3406,5.3306,5.3683,5.2779,5.2452,5.2703,5.1749,5.1197,5.1046,5.0921,5.0921,5.1071,5.1649,5.2277,5.2929,5.308,5.3607,5.4386,5.4938,5.6018,5.7248,5.7097,5.7876,5.8956,5.8001,5.7775,5.7901,5.7901,5.7801,5.7675,5.7675,5.7474,5.7173,5.6746,5.652,5.6219,5.539,5.5164,5.5089,5.4662,5.4863,5.5164,5.5164,5.5164,5.5139,5.4988,5.4637,5.4336,5.4336,5.4235,5.4185,0.0,0.0,0.0,0.0,0.0,0.0,4.1327,0.0,0.0,4.207,4.2617,4.3066,4.3398,4.4629,4.5312,4.5195,4.5898,4.7295,4.9446,4.827,4.8189,4.9301,4.9952,5.1018,5.2614,5.4085,5.4547,5.4082,5.3692,5.1694,4.8867,4.8867,4.8867,4.8867,4.8867,4.8867,4.8887,4.9219,4.9433,4.9512,4.9394,4.9355,4.9316,5.7097,5.6595,5.6294,5.652,5.657,5.6495,5.6244,5.642,5.6369,5.5817,5.5541,5.5365,5.529,5.5064,5.4938,5.4938,5.4938,5.4938,5.4938,5.4386,5.4185,5.4436,5.3934,5.3783,5.4084,5.3482,5.3206,5.3256,5.2427,5.1875,5.1624,5.1398,5.1548,5.2,5.2076,5.2528,5.3256,5.3256,5.4034,5.529,5.5365,5.6244,0.0,5.7449,5.8127,5.9106,5.873,5.8604,5.8604,5.8604,5.8453,5.8252,5.8252,5.8102,5.7826,5.7499,5.7424,5.7273,5.6646,5.6495,5.6344,5.5792,5.5892,5.6043,5.5792,5.5742,5.5666,5.544,5.5139,5.4938,5.4938,5.4938,5.4838,5.4612,5.2449,0.0,0.0,0.0,0.0,0.0,4.1773,4.1269,4.1504,4.207,4.2676,4.3301,4.4219,4.4922,4.5293,4.5762,4.6694,4.8403,4.7482,4.7109,4.7772,4.9438,5.1122,5.2771,5.4623,5.562,5.5862,5.5054,5.2994,4.9975,4.9975,4.9549,4.8867,4.8867,4.8867,4.8926,4.957,4.9687,4.9551,4.9746,4.957,4.9199,5.7173,5.6771,5.6595,5.7072,5.7148,5.6947,5.6394,5.6721,5.6872,5.6394,5.5842,5.5666,5.6168,5.5842,5.5591,5.5591,5.5591,5.5591,5.5591,5.5013,5.4888,5.5365,5.4938,5.4712,5.4787,5.4712,5.4436,5.3909,5.3406,5.2854,5.2302,5.19,5.2226,5.313,5.2653,5.2955,5.3808,5.3884,5.4762,5.6068,5.5742,5.6219,5.7198,5.7801,5.8353,5.888,5.9332,5.9483,5.9483,5.9483,5.9207,5.883,5.883,5.8504,5.8102,5.8027,5.8001,5.8001,5.7926,5.7901,5.7775,5.7273,5.7148,5.7022,5.6545,5.6369,5.6194,5.5691,5.5541,5.5516,5.5591,5.5591,5.5415,5.4863,5.2956,5.1082,0.0,0.0,0.0,0.0,0.0,0.0,4.1328,4.1992,4.2734,4.3476,4.4121,4.4805,4.5547,4.5703,4.6113,4.6914,4.6933,4.6758,4.6387,4.9259,5.1205,5.2316,5.3664,5.5273,5.6861,5.5283,5.3404,5.1496,5.1496,5.0535,4.8867,4.8867,4.8926,4.9101,4.9941,5.0,4.9648,5.0039,4.9609,4.8848,5.7926,5.7675,5.7625,5.7725,5.775,5.7549,5.6972,5.6972,5.6997,5.6897,5.642,5.6118,5.6194,5.652,5.6746,5.6746,5.6746,5.6746,5.6746,5.5792,5.529,5.539,5.529,5.5465,5.5917,5.5491,5.5189,5.5089,5.4536,5.3984,5.3432,5.3808,5.4084,5.4285,5.4185,5.4235,5.4436,5.4888,5.5265,5.5591,5.642,5.7148,5.7801,5.8353,5.8905,5.9382,5.9458,5.9483,5.9483,5.9483,5.9433,5.9357,5.9357,5.9282,5.9131,5.8704,5.8579,5.8478,5.8027,5.7901,5.7876,5.7775,5.775,5.7725,5.7625,5.7223,5.6872,5.6771,5.6394,5.6219,5.6671,5.6746,5.657,5.6018,5.5151,5.3833,0.0,0.0,0.0,0.0,0.0,4.1836,4.2168,4.2344,4.248,4.2637,4.4062,4.498,4.5137,4.5801,4.6426,4.6914,4.6933,4.6894,4.6816,5.0932,5.2869,5.2809,5.6582,5.7899,5.6861,5.6607,5.4603,5.1496,5.1496,5.0535,4.8867,4.8867,4.9297,5.0,5.0508,5.043,5.0078,5.0156,4.9609,4.8808,5.8052,5.7901,5.7901,5.7901,5.7901,5.7901,5.7901,5.7675,5.7474,5.7474,5.7248,5.7198,5.7474,5.7499,5.7474,5.7474,5.7474,5.7474,5.7474,5.6972,5.6696,5.6696,5.6696,5.6821,5.7072,5.6821,5.6545,5.6244,5.5691,5.5139,5.4587,5.4561,5.4712,5.4988,5.4988,5.5139,5.5415,5.539,5.5892,5.6696,5.6947,5.7549,5.8353,5.8629,5.9031,5.9483,5.9483,5.9483,5.9483,5.9483,5.9483,5.9483,5.9483,5.9483,5.9433,5.9207,5.9131,5.9056,5.8805,5.873,5.8654,5.8403,5.8328,5.8252,5.7951,5.7675,5.7575,5.7851,5.7474,5.7248,5.7801,5.7675,5.7298,5.6721,5.6168,5.5201,5.3468,0.0,4.9709,0.0,0.0,0.0,0.0,4.324,4.2851,4.3066,4.4297,4.5509,4.6629,4.6293,4.7155,4.976,4.7989,4.7834,4.9931,5.2375,5.3777,5.4326,5.7883,5.8986,5.824,5.824,5.6163,5.2671,5.2736,5.1235,4.8555,4.9004,4.959,5.0215,5.0644,5.0547,5.0176,5.0176,4.9609,4.8789,5.8202,5.8152,5.8202,5.8102,5.8077,5.8227,5.8654,5.8252,5.7951,5.8052,5.7976,5.8052,5.8504,5.8252,5.8077,5.8077,5.8077,5.8077,5.8077,5.7951,5.7951,5.8077,5.8077,5.8127,5.8227,5.8127,5.7725,5.7022,5.6721,5.6043,5.5039,5.5189,5.544,5.5742,5.5742,5.5917,5.6194,5.5867,5.6495,5.77,5.7474,5.7926,5.873,5.9288,5.9413,5.9637,6.0355,6.0507,6.0227,6.066,6.0507,6.0074,6.0074,6.0074,6.0074,5.9637,5.9483,5.9483,5.9483,5.9483,5.9408,5.8981,5.888,5.878,5.8328,5.8152,5.8202,5.8629,5.8453,5.8378,5.8805,5.8529,5.8127,5.7775,5.6972,5.6118,5.539,5.3473,0.0,0.0,0.0,0.0,4.6535,4.4744,4.3739,4.4469,4.5123,4.6421,4.8212,4.7196,4.8346,5.2213,4.9321,4.9209,5.2557,5.3625,5.4671,5.5922,5.8352,5.9483,5.9483,5.9483,5.7324,5.3705,5.4513,5.2714,4.9247,4.9601,5.0,5.0351,5.0781,5.0683,5.0293,5.0215,4.9668,4.8926,5.8855,5.9031,5.9207,5.873,5.8654,5.8654,5.8704,5.8252,5.8077,5.8529,5.8202,5.7926,5.7976,5.8378,5.8654,5.8654,5.8654,5.8654,5.8654,5.8177,5.8127,5.8629,5.8654,5.8855,5.9332,5.888,5.8127,5.7022,5.7499,5.642,5.3909,5.642,5.7323,5.6872,5.6872,5.662,5.6244,5.6696,5.6972,5.7198,5.8177,5.8629,5.8907,6.1132,6.1063,5.992,6.3338,6.3511,6.2386,6.4066,6.3511,6.2115,6.2115,6.2115,6.1816,6.0074,5.9483,5.9483,5.9483,5.9483,5.9483,5.9433,5.9433,5.9408,5.9357,5.8981,5.8654,5.8704,5.9056,5.9357,5.9408,5.9382,5.9483,5.9935,5.8303,5.7097,5.7524,5.5399,5.3481,5.3005,0.0,0.0,4.9429,4.6742,4.5509,4.7049,4.7254,4.7671,4.884,4.8963,4.9609,5.1007,5.0325,5.0513,5.1639,5.4471,5.6155,5.6857,5.8566,5.9483,5.9483,5.9483,5.7324,5.3705,5.6348,5.5505,5.245,5.124,5.0703,5.0781,5.1211,5.1113,5.0703,5.0312,4.9883,4.9336,5.9834,5.9834,5.9709,5.888,5.873,5.873,5.873,5.8529,5.8579,5.9106,5.8704,5.8478,5.883,5.9056,5.9182,5.9182,5.9182,5.9182,5.9182,5.8981,5.9106,5.9659,5.9357,5.9433,5.9985,5.9458,5.8805,5.8052,5.8278,5.765,5.6244,5.7022,5.7072,5.6545,5.6545,5.6595,5.6721,5.6947,5.8116,5.9739,6.0205,6.1284,6.2751,6.3695,6.3657,6.3072,6.4642,6.4786,6.4436,6.6792,6.5259,6.2535,6.3657,6.2508,6.0812,6.1089,6.0355,5.9483,5.9483,5.9483,5.9483,5.9483,5.9483,5.9483,5.9483,5.9583,5.9784,6.0136,6.0638,6.0889,6.0563,6.0512,6.0462,6.0337,5.9307,5.8478,5.8403,5.6823,5.568,5.5483,0.0,5.1122,0.0,4.8565,4.6804,4.7417,4.7045,4.7244,4.8358,4.9049,5.0273,5.1993,5.1819,5.2711,5.4749,5.5695,5.6997,5.8507,5.9117,5.9483,5.9483,5.9483,5.7662,5.4387,5.4534,5.3323,5.1196,5.0928,5.0801,5.084,5.1269,5.1172,5.0762,5.0332,4.9902,4.9394,6.0261,6.0211,5.9985,5.8905,5.8855,5.8956,5.8956,5.8956,5.9081,5.9433,5.9156,5.9056,5.9458,5.9483,5.9483,5.9483,5.9483,5.9483,5.9483,5.9483,5.9734,6.0286,5.9784,5.9759,6.0311,5.9784,5.9232,5.873,5.888,5.8428,5.7399,5.7148,5.6997,5.6947,5.6947,5.7072,5.7298,5.7449,5.9096,6.1516,6.1674,6.3135,6.5186,6.578,6.5639,6.5356,6.6679,6.6763,6.6707,6.9366,6.7721,6.4927,6.6168,6.4727,6.2588,6.2914,6.2036,6.071,6.0141,5.9985,5.9985,5.9985,5.9985,5.9985,5.9985,6.0286,6.0688,6.109,6.1617,6.1893,6.1492,6.1416,6.1341,6.109,6.0186,5.9433,5.9207,5.8227,5.7575,5.775,5.5637,5.4478,5.4969,5.1605,4.9381,4.9751,4.884,4.8624,4.9289,4.9993,5.1492,5.3783,5.397,5.4973,5.6861,5.7141,5.8006,5.9483,5.9483,5.9483,5.9508,5.8986,5.7605,5.562,5.3464,5.1964,5.1101,5.1125,5.0996,5.1016,5.1308,5.1172,5.0762,5.0332,4.9902,4.9414,5.9834,5.996,5.9985,5.8905,5.9156,5.9483,5.9483,5.9483,5.9483,5.9483,5.9483,5.9483,5.9483,5.9483,5.9483,5.9483,5.9483,5.9483,5.9483,5.9483,5.9734,6.0286,5.9784,5.9759,6.0311,5.9784,5.9232,5.873,5.9232,5.8378,5.6244,5.6771,5.7625,5.8679,5.8679,5.8403,5.7926,5.8453,5.9814,6.1542,6.2149,6.3511,6.5356,6.737,6.6927,6.5836,7.0191,7.059,6.9424,7.1955,7.1591,6.9955,7.0094,6.9955,6.9223,6.5286,6.4102,6.3669,6.1748,6.1165,6.1165,6.1165,6.1165,6.1165,6.1165,6.1165,6.1165,6.119,6.1617,6.1994,6.1994,6.1994,6.2169,6.2722,6.0939,5.9684,6.0211,5.9357,5.8855,5.9408,5.7947,5.7542,5.9328,5.5973,5.4061,5.5186,5.3795,5.272,5.2227,5.2488,5.397,5.6814,5.6838,5.6861,5.6861,5.8615,5.9483,5.9483,5.9483,5.9483,5.9508,5.7726,5.7238,5.7503,5.4366,5.3289,5.3424,5.1976,5.1426,5.1426,5.1426,5.1172,5.0762,5.0332,4.9902,4.9453,6.0889,6.0788,6.0563,5.9433,5.9382,5.9483,5.9483,5.9483,5.9483,5.9483,5.9483,5.9633,6.001,5.9709,5.9483,5.9483,5.9483,5.9483,5.9483,5.9483,5.9734,6.0286,5.9784,5.9759,6.0311,5.9784,5.9232,5.873,5.9232,5.8956,5.7926,5.8102,5.8177,5.8152,5.8152,5.8278,5.8478,5.8654,6.0769,6.4082,6.4273,6.6202,6.922,7.0253,7.0296,7.0057,7.1897,7.2165,7.1821,7.3208,7.3147,7.2767,7.3211,7.0957,6.8081,6.8225,6.7329,6.6181,6.5436,6.5286,6.5012,6.3541,6.3233,6.3052,6.1937,6.2345,6.2898,6.2898,6.3023,6.2923,6.2144,6.232,6.2496,6.2295,6.1667,6.1266,6.1441,6.0512,5.9709,5.9508,5.8688,5.8186,5.8453,5.6299,5.4991,5.5454,5.4255,5.319,5.272,5.4303,5.4951,5.4659,5.7309,5.813,5.6861,5.8615,5.9483,5.9483,5.9483,5.9483,5.9533,5.9806,5.9163,5.8047,5.8184,5.7714,5.6443,5.4675,5.3998,5.3828,5.1988,5.1172,5.0762,5.0332,4.9902,4.9453,6.1667,6.1316,6.0889,5.996,5.9809,5.9809,5.9809,5.9985,6.0136,6.0136,6.0136,6.0261,6.0613,6.0337,6.0136,6.0136,6.0136,6.0136,6.0136,6.0136,6.0286,6.0638,6.0311,6.0186,6.0311,5.9985,5.9558,5.9006,5.9332,5.9332,5.9006,5.9006,5.883,5.8504,5.8504,5.8704,5.9006,5.9006,6.1054,6.4093,6.431,6.6707,7.0356,7.0872,7.1674,7.2355,7.3043,7.3283,7.3373,7.4031,7.427,7.433,7.4749,7.2665,7.0249,7.0675,6.9936,6.8754,6.8022,6.7283,6.6466,6.5361,6.4508,6.3771,6.3123,6.3324,6.3701,6.3701,6.3525,6.3099,6.2169,6.2295,6.2395,6.2069,6.1843,6.1768,6.1969,6.1215,6.0663,6.0738,6.0286,5.991,5.9759,5.8532,5.785,5.7655,5.6715,5.5999,5.5694,5.6155,5.6226,5.5858,5.8202,5.9011,5.7885,5.9011,5.9483,5.9483,5.9483,5.9608,5.9834,6.0763,6.0105,5.8474,6.0015,5.9645,5.767,5.5757,5.5094,5.4905,5.2175,5.0937,5.0527,5.0098,4.9648,4.9238,6.2169,6.1617,6.1065,6.0487,6.0387,6.0387,6.0387,6.0839,6.119,6.119,6.119,6.119,6.124,6.124,6.124,6.124,6.1215,6.119,6.119,6.119,6.119,6.119,6.119,6.0939,6.0387,6.0387,6.0111,5.9558,5.9558,5.9533,5.9483,5.9483,5.9483,5.9483,5.9483,5.9483,5.9483,5.9533,6.0711,6.2641,6.3223,6.5773,6.9453,6.995,7.1376,7.3073,7.3732,7.3971,7.4061,7.4659,7.4869,7.4869,7.4869,7.4869,7.4564,7.2599,7.2142,7.1712,6.9783,6.7855,6.6342,6.6767,6.5265,6.3927,6.4354,6.4128,6.3776,6.3701,6.3249,6.2697,6.2119,6.1994,6.1994,6.1943,6.1542,6.1416,6.1943,6.1592,6.1667,6.2647,6.232,6.2195,6.2672,6.2245,6.1743,6.1266,6.0713,6.0387,6.0437,5.8336,5.7885,5.9508,5.9483,5.9483,5.9483,5.9483,5.9508,5.9558,5.9558,5.9834,6.0387,6.0964,6.0316,5.8783,6.0334,5.9786,5.7759,5.6142,5.5429,5.501,5.2239,5.0718,5.0078,4.9668,4.9238,4.8867,6.2747,6.2195,6.1642,6.1065,6.0989,6.0989,6.0989,6.109,6.119,6.119,6.119,6.1341,6.1768,6.1818,6.1818,6.1818,6.1441,6.119,6.119,6.119,6.119,6.119,6.119,6.1115,6.0989,6.0989,6.0688,6.0111,6.0111,5.991,5.9483,5.9483,5.9483,5.9483,5.9483,5.9483,5.9533,5.996,6.2166,6.5409,6.5837,6.8428,7.2015,7.2667,7.3236,7.3762,7.442,7.4629,7.4659,7.4839,7.4869,7.4869,7.4869,7.4869,7.4869,7.4288,7.412,7.412,7.3672,7.2374,7.0782,6.9258,6.6918,6.4831,6.453,6.4705,6.468,6.3852,6.3576,6.3174,6.2195,6.1994,6.1868,6.1441,6.1617,6.1843,6.1994,6.2245,6.237,6.222,6.2094,6.1893,6.1592,6.1441,6.1492,6.1793,6.1291,6.1165,6.1592,6.0288,5.9566,5.9508,5.9483,5.9483,5.9483,5.9483,5.9709,6.0111,6.0111,6.0412,6.0989,6.1567,6.1546,6.1209,6.2448,6.2855,6.2714,6.0863,5.8932,5.7094,5.4651,5.1953,4.9668,4.957,4.9238,4.8867,6.464,6.3143,6.1918,6.1617,6.1567,6.1567,6.1567,6.1768,6.1943,6.1943,6.1943,6.2044,6.2345,6.2395,6.227,6.2019,6.1969,6.1818,6.1567,6.1793,6.1943,6.1943,6.1943,6.1818,6.1567,6.1567,6.1291,6.0713,6.0713,6.0563,6.0261,6.0261,6.0261,6.0261,6.0261,6.0261,6.0286,6.0588,6.189,6.3982,6.4565,6.6563,6.9307,6.993,7.0764,7.1708,7.2055,7.277,7.3503,7.3503,7.3503,7.3672,7.4564,7.4258,7.3672,7.4564,7.4869,7.4731,7.3812,7.2259,7.0399,6.7876,6.6382,6.5208,6.4906,6.4705,6.4404,6.3802,6.3475,6.3023,6.2169,6.1994,6.1893,6.1617,6.1592,6.1818,6.232,6.2421,6.2446,6.2395,6.2395,6.227,6.1969,6.1943,6.2069,6.2345,6.1868,6.1592,6.1617,6.0788,6.0186,5.9885,5.9633,5.9483,5.9483,5.9483,5.9633,5.996,6.0186,6.0613,6.119,6.1743,6.2144,6.2421,6.3299,6.3852,6.3961,6.2003,5.9854,5.7514,5.4775,5.2086,4.9512,4.9297,4.9062,4.8867,6.7005,6.4415,6.2119,6.2119,6.2119,6.2119,6.2119,6.2521,6.2822,6.2822,6.2822,6.2822,6.2822,6.2822,6.2571,6.1943,6.2395,6.2496,6.2044,6.2446,6.2747,6.2822,6.2822,6.2596,6.2144,6.2119,6.1868,6.1316,6.1316,6.1266,6.119,6.119,6.119,6.119,6.119,6.119,6.119,6.1266,6.145,6.1793,6.2349,6.3775,6.5621,6.61,6.7368,6.8888,6.8888,6.9931,7.1423,7.1423,7.1423,7.1856,7.3812,7.3052,7.1856,7.3812,7.4258,7.3672,7.2314,7.0368,6.809,6.5378,6.5007,6.5258,6.5183,6.4404,6.3676,6.3576,6.3174,6.2697,6.222,6.2069,6.2044,6.2119,6.1592,6.1542,6.2546,6.222,6.2094,6.2647,6.2697,6.2747,6.2822,6.2822,6.2822,6.2822,6.2245,6.1718,6.1341,6.0588,6.0236,6.0311,5.9784,5.9483,5.9483,5.9483,5.9583,5.9759,6.0236,6.0788,6.1441,6.1918,6.2395,6.2847,6.335,6.3626,6.3535,6.1838,5.9715,5.7,5.4453,5.178,4.9375,4.9004,4.8867,4.8867,6.7614,6.5007,6.2697,6.2697,6.2697,6.2697,6.2697,6.2772,6.2822,6.2822,6.2822,6.2822,6.2822,6.2822,6.2421,6.1391,6.1818,6.2094,6.2019,6.2094,6.2345,6.2822,6.2822,6.2797,6.2697,6.2697,6.2421,6.1868,6.1868,6.1642,6.119,6.119,6.119,6.119,6.119,6.119,6.1215,6.1667,6.2936,6.4455,6.5031,6.649,6.8298,6.8408,6.8586,6.8888,6.8888,6.9038,6.9337,6.9337,6.9337,6.9783,7.1712,7.0988,6.9783,7.1712,7.1133,7.0079,7.1568,6.9909,6.7424,6.6213,6.5559,6.5157,6.4705,6.4128,6.355,6.3048,6.2898,6.2797,6.2722,6.232,6.2169,6.2621,6.1843,6.1416,6.2044,6.1667,6.1517,6.2069,6.2144,6.232,6.2797,6.2822,6.2822,6.2822,6.1893,6.1492,6.1868,6.0437,5.9834,6.0311,5.9784,5.9483,5.9483,5.9483,5.9985,6.0914,6.1014,6.1592,6.2571,6.2672,6.2747,6.2847,6.2923,6.3249,6.3701,6.3419,6.077,5.6685,5.6243,5.3146,4.8945,4.8887,4.8867,4.8867,7.0575,6.7184,6.4497,6.4497,6.3584,6.2822,6.2822,6.2822,6.2822,6.2822,6.2822,6.2822,6.2822,6.2822,6.2395,6.1291,6.1416,6.1441,6.1115,6.1667,6.2119,6.237,6.2672,6.2822,6.2822,6.2822,6.2697,6.2446,6.2446,6.232,6.2069,6.2069,6.2069,6.2069,6.2069,6.2069,6.2094,6.2345,6.2881,6.3818,6.4075,6.479,6.5556,6.5556,6.5556,6.5556,6.5556,6.6312,6.7215,6.7215,6.7215,6.7522,6.9635,6.8888,6.7675,6.9635,6.8888,6.7368,6.8408,6.7294,6.576,6.5067,6.4831,6.4705,6.4178,6.3626,6.3149,6.2873,6.2822,6.2822,6.2822,6.2621,6.2521,6.2797,6.2144,6.1718,6.1969,6.1542,6.1266,6.1542,6.1567,6.1667,6.1918,6.1943,6.1943,6.1943,6.1466,6.1165,6.1115,6.0362,5.991,5.9885,5.9633,5.9483,5.9483,5.9784,6.0211,6.0713,6.1341,6.1893,6.2395,6.2697,6.2822,6.2822,6.2822,6.2973,6.3224,6.3224,6.1276,5.8102,5.8102,5.5883,5.2545,5.1326,5.0803,5.0621,7.2921,6.9425,6.6441,6.6441,6.524,6.4042,6.3584,6.3423,6.3286,6.2822,6.2822,6.2822,6.2822,6.2822,6.2395,6.1291,6.119,6.0889,6.0161,6.1065,6.1718,6.1994,6.2521,6.2822,6.2822,6.2822,6.2822,6.2822,6.2822,6.2822,6.2822,6.2822,6.2822,6.2822,6.2822,6.2822,6.2822,6.2822,6.2822,6.2822,6.2822,6.2822,6.2822,6.2822,6.2822,6.2822,6.2822,6.372,6.5082,6.5082,6.5082,6.5398,6.7522,6.6778,6.5556,6.7522,6.6778,6.5108,6.5264,6.4863,6.4228,6.3952,6.4078,6.4178,6.3776,6.3249,6.2822,6.2822,6.2822,6.2822,6.2822,6.2822,6.2873,6.2998,6.2446,6.1994,6.1994,6.1542,6.119,6.119,6.1291,6.1416,6.1542,6.1567,6.1517,6.1391,6.1266,6.0939,6.0362,6.0186,5.9985,5.9684,5.9558,5.9558,5.9684,6.0111,6.0462,6.0713,6.1592,6.2069,6.222,6.2647,6.2822,6.2822,6.2822,6.2822,6.2822,6.2822,6.1432,5.9307,5.9307,5.7583,5.4829,5.3081,5.2027,5.1326,7.2921,7.0501,6.8737,6.8737,6.8586,6.7827,6.5844,6.5529,6.4949,6.296,6.2822,6.2822,6.2822,6.2822,6.2395,6.1291,6.119,6.0713,5.9633,6.0111,6.0914,6.1969,6.2521,6.2822,6.2822,6.2822,6.2822,6.2822,6.2822,6.2822,6.2822,6.2822,6.2822,6.2822,6.2822,6.2822,6.2822,6.2822,6.2822,6.2822,6.2822,6.2822,6.2822,6.2822,6.2822,6.2822,6.2822,6.2822,6.2985,6.2985,6.2985,6.3448,6.5398,6.4631,6.3423,6.5398,6.4631,6.3086,6.364,6.3841,6.3852,6.4304,6.4078,6.3726,6.3701,6.3249,6.2822,6.2822,6.2822,6.2822,6.2822,6.2822,6.2998,6.355,6.2722,6.1994,6.1994,6.1542,6.119,6.119,6.1642,6.2144,6.2647,6.2697,6.2496,6.1994,6.1466,6.0939,6.0362,5.9834,5.9784,6.0236,5.9759,5.9734,6.0261,6.0311,6.0839,6.1893,6.1969,6.227,6.2772,6.2822,6.2822,6.2822,6.2822,6.2822,6.2822,6.2822,6.1432,5.9307,5.9307,5.655,5.2545,5.2366,5.0964,4.9216,7.4174,7.2345,7.0813,7.0813,6.9783,6.8132,6.6156,6.5844,6.5082,6.3123,6.2822,6.2822,6.2822,6.2822,6.2395,6.1291,6.119,6.0713,5.9558,6.001,6.0814,6.1943,6.2521,6.2822,6.2822,6.2822,6.2822,6.2822,6.2822,6.2822,6.2822,6.2822,6.2822,6.2822,6.2822,6.2822,6.2822,6.2822,6.2822,6.2822,6.2822,6.2822,6.2822,6.2822,6.2822,6.2822,6.2822,6.2822,6.2822,6.2822,6.2822,6.2985,6.3746,6.3423,6.2985,6.3746,6.3423,6.2873,6.3099,6.3425,6.3651,6.35,6.3576,6.3601,6.3249,6.2973,6.2822,6.2822,6.2822,6.2822,6.2822,6.2822,6.2898,6.3124,6.2797,6.2395,6.2044,6.1818,6.1567,6.1215,6.1366,6.1567,6.1793,6.1492,6.119,6.0964,6.0437,6.0035,5.9809,5.9935,6.0111,6.0311,6.0462,6.0638,6.0864,6.119,6.1592,6.2019,6.2345,6.2621,6.2822,6.2822,6.2822,6.2822,6.2822,6.2822,6.2822,6.2822,6.2306,6.1291,6.0195,5.8547,5.64,5.3737,5.2097,5.0782,7.5018,7.3812,7.2911,7.2911,7.1712,7.0079,6.8105,6.7215,6.6,6.4042,6.3123,6.2822,6.2822,6.2672,6.2195,6.1266,6.1014,6.0512,5.9558,6.0186,6.1014,6.1969,6.2521,6.2822,6.2822,6.2822,6.2822,6.2822,6.2822,6.2822,6.2822,6.2822,6.2822,6.2822,6.2822,6.2822,6.2822,6.2822,6.2822,6.2822,6.2822,6.2822,6.2822,6.2822,6.2822,6.2822,6.2822,6.2822,6.2822,6.2822,6.2822,6.2822,6.2822,6.2822,6.2822,6.2822,6.2822,6.2822,6.2822,6.3124,6.3324,6.2923,6.3124,6.3324,6.2923,6.2822,6.2822,6.2822,6.2822,6.2822,6.2822,6.2822,6.2822,6.2822,6.2822,6.2647,6.2094,6.2144,6.2069,6.1492,6.1592,6.1642,6.1466,6.109,6.0713,6.0337,5.996,5.9759,5.9759,6.0286,6.0663,6.0839,6.124,6.1517,6.1692,6.1893,6.2094,6.227,6.2647,6.2822,6.2822,6.2822,6.2822,6.2822,6.2822,6.2822,6.2822,6.2822,6.2822,6.2684,6.13,6.0171,5.8823,5.5181,5.3357,5.2027,7.5018,7.4869,7.4869,7.4869,7.4869,7.4258,7.2171,7.0227,6.8132,6.6156,6.4042,6.2822,6.2822,6.2345,6.1793,6.124,6.0663,6.0085,5.9533,6.0563,6.1441,6.1969,6.2521,6.2822,6.2822,6.2822,6.2822,6.2822,6.2822,6.2822,6.2822,6.2822,6.2822,6.2822,6.2822,6.2822,6.2822,6.2822,6.2822,6.2822,6.2822,6.2822,6.2822,6.2822,6.2822,6.2822,6.2822,6.2822,6.2822,6.2822,6.2822,6.2822,6.2822,6.2822,6.2822,6.2822,6.2822,6.2822,6.2822,6.2822,6.2822,6.2822,6.2822,6.2822,6.2822,6.2822,6.2822,6.2822,6.2822,6.2822,6.2822,6.2822,6.2822,6.2822,6.2822,6.2621,6.2094,6.2471,6.2621,6.2069,6.2496,6.2596,6.2044,6.1994,6.1517,6.0412,6.0311,6.0311,6.0337,6.0864,6.1441,6.1994,6.2019,6.227,6.2822,6.2295,6.2295,6.2822,6.2822,6.2822,6.2822,6.2822,6.2822,6.2822,6.2822,6.2822,6.2822,6.2822,6.2822,6.2822,6.2822,6.1408,5.8969,5.6746,5.4301,5.2027,7.4929,7.4869,7.4869,7.4869,7.4869,7.4258,7.2171,7.1423,7.0227,6.8284,6.6156,6.4949,6.4949,6.3236,6.1793,6.124,6.0663,6.0085,5.9533,6.0563,6.1266,6.1416,6.232,6.2647,6.227,6.2621,6.2647,6.2245,6.2647,6.2822,6.2822,6.2822,6.2822,6.2822,6.2822,6.2822,6.2822,6.2822,6.2822,6.2822,6.2822,6.2822,6.2822,6.2822,6.2822,6.2822,6.2822,6.2822,6.2822,6.2822,6.2822,6.2822,6.2822,6.2822,6.2822,6.2822,6.2822,6.2822,6.2822,6.2822,6.2822,6.2822,6.2822,6.2822,6.2822,6.2822,6.2822,6.2822,6.2822,6.2822,6.2822,6.2822,6.2822,6.2822,6.2496,6.232,6.2546,6.2395,6.2345,6.2546,6.2395,6.2195,6.2019,6.1291,6.0688,6.0337,6.0311,6.0487,6.0914,6.1466,6.1843,6.1994,6.2395,6.2672,6.2822,6.2672,6.2672,6.2822,6.2822,6.2822,6.2822,6.2822,6.2822,6.2822,6.2822,6.2822,6.2822,6.2822,6.2822,6.2684,6.1325,5.93,5.6596,5.4671,5.2117,4.9911,7.4869,7.4869,7.4869,7.4869,7.4869,7.4426,7.3222,7.2456,7.1423,7.0227,6.8284,6.6671,6.5527,6.396,6.2344,6.0889,6.0311,5.9859,5.9508,6.0563,6.119,6.119,6.2245,6.2571,6.2019,6.2345,6.2345,6.1994,6.2345,6.2621,6.2822,6.2822,6.2822,6.2822,6.2822,6.2822,6.2822,6.2822,6.2822,6.2822,6.2822,6.2822,6.2822,6.2822,6.2822,6.2822,6.2822,6.2822,6.2822,6.2822,6.2822,6.2822,6.2822,6.2672,6.2546,6.2772,6.2672,6.2546,6.2772,6.2822,6.2822,6.2822,6.2822,6.2822,6.2822,6.2822,6.2822,6.2822,6.2822,6.2822,6.2822,6.2822,6.2822,6.2822,6.2546,6.2446,6.2772,6.2546,6.237,6.2496,6.222,6.1818,6.1391,6.0713,6.0311,6.0311,6.0537,6.0914,6.1492,6.2044,6.2345,6.2345,6.2647,6.2822,6.2822,6.2822,6.2822,6.2822,6.2822,6.2822,6.2822,6.2822,6.2822,6.2822,6.2822,6.2822,6.2822,6.2822,6.2822,6.2709,6.1855,5.9806,5.6964,5.518,5.2764,5.0094,7.4869,7.4869,7.4869,7.4869,7.4869,7.4869,7.4869,7.3363,7.2171,7.2171,7.0227,6.7913,6.5488,6.4471,6.2999,6.0518,5.9809,5.9483,5.9483,6.0563,6.119,6.119,6.2245,6.2546,6.1943,6.1994,6.1943,6.1843,6.1893,6.222,6.2747,6.2747,6.2772,6.2822,6.2822,6.2822,6.2822,6.2822,6.2822,6.2822,6.2822,6.2822,6.2822,6.2822,6.2822,6.2822,6.2822,6.2822,6.2822,6.2822,6.2822,6.2822,6.2772,6.2395,6.2094,6.2596,6.2395,6.2119,6.2672,6.2822,6.2822,6.2822,6.2822,6.2822,6.2822,6.2822,6.2822,6.2822,6.2822,6.2822,6.2822,6.2822,6.2822,6.2822,6.2797,6.2772,6.2822,6.2797,6.2571,6.2069,6.1969,6.1517,6.0412,6.0286,6.0286,6.0387,6.0889,6.1441,6.2044,6.2546,6.2822,6.2822,6.2822,6.2822,6.2822,6.2822,6.2822,6.2822,6.2822,6.2822,6.2822,6.2822,6.2822,6.2822,6.2822,6.2822,6.2822,6.2822,6.2822,6.2873,6.34,6.1708,5.8847,5.7224,5.465,5.1847,7.4869,7.4869,7.4869,7.4869,7.4869,7.4869,7.4869,7.4564,7.4258,7.4258,7.1133,6.8517,6.7435,6.4036,6.1388,6.0362,5.9809,5.9483,5.9483,6.0563,6.119,6.119,6.2245,6.237,6.1391,6.1793,6.1567,6.0688,6.114,6.1642,6.2195,6.2195,6.2421,6.2822,6.2822,6.2822,6.2822,6.2822,6.2822,6.2822,6.2822,6.2822,6.2822,6.2822,6.2822,6.2822,6.2822,6.2822,6.2822,6.2822,6.2822,6.2747,6.232,6.2094,6.2019,6.2144,6.2094,6.2119,6.2672,6.2822,6.2822,6.2822,6.2822,6.2822,6.2822,6.2822,6.2822,6.2822,6.2822,6.2822,6.2822,6.2822,6.2822,6.2822,6.2471,6.2345,6.2772,6.2446,6.2144,6.2019,6.1617,6.109,6.0387,5.9935,6.0035,6.0939,6.1115,6.1617,6.2596,6.2772,6.2822,6.2822,6.2822,6.2822,6.2822,6.2822,6.2822,6.2822,6.2822,6.2822,6.2822,6.2822,6.2822,6.2822,6.2822,6.2822,6.2822,6.2822,6.2822,6.2847,6.2973,6.0315,5.655,5.6143,5.3323,4.9564,7.4869,7.4869,7.4869,7.4869,7.4869,7.4869,7.4869,7.4869,7.4869,7.4869,7.1911,6.9258,6.7737,6.4353,6.1581,6.0116,5.9659,5.9483,5.9483,6.0563,6.119,6.119,6.2245,6.232,6.1215,6.1466,6.119,6.0311,6.0613,6.1065,6.1617,6.1617,6.1893,6.2421,6.2169,6.2345,6.2822,6.2546,6.2596,6.2822,6.2822,6.2822,6.2847,6.3149,6.3249,6.3249,6.3249,6.3048,6.2822,6.2822,6.2647,6.2395,6.2094,6.1642,6.1266,6.1542,6.1617,6.1743,6.2295,6.2621,6.2822,6.2822,6.2822,6.2822,6.2822,6.2822,6.2822,6.2822,6.2822,6.2822,6.2822,6.2822,6.2822,6.2822,6.2596,6.2395,6.2421,6.2195,6.1793,6.1266,6.0939,6.0663,6.0337,6.006,6.0362,6.1492,6.1567,6.1943,6.2797,6.2822,6.2822,6.2822,6.2822,6.2822,6.2822,6.2822,6.2822,6.2822,6.2822,6.2822,6.2822,6.2822,6.2822,6.2847,6.3124,6.3249,6.3249,6.35,6.3475,6.3274,6.35,6.1157,5.7435,5.6452,5.3072,4.8867,7.4869,7.4869,7.4869,7.4869,7.4869,7.4869,7.4869,7.4869,7.4869,7.4869,7.2636,7.0078,6.7993,6.4964,6.2188,5.9688,5.9483,5.9483,5.9483,6.0563,6.119,6.119,6.2245,6.232,6.1215,6.119,6.0864,6.0186,6.0186,6.0462,6.104,6.104,6.1341,6.1843,6.1391,6.1743,6.2647,6.2195,6.232,6.2847,6.2923,6.2973,6.3048,6.3601,6.3827,6.3827,6.3827,6.345,6.2948,6.2747,6.2395,6.1969,6.1768,6.114,6.0563,6.104,6.124,6.1441,6.1994,6.2471,6.2822,6.2822,6.2822,6.2822,6.2822,6.2822,6.2822,6.2822,6.2822,6.2822,6.2822,6.2822,6.2822,6.2822,6.2747,6.2521,6.2069,6.1918,6.1466,6.0437,6.0311,6.0286,6.0186,6.0261,6.0738,6.1793,6.1868,6.2144,6.2797,6.2822,6.2822,6.2822,6.2822,6.2822,6.2822,6.2822,6.2822,6.2822,6.2822,6.2822,6.2822,6.2822,6.2822,6.2873,6.345,6.3626,6.3601,6.4203,6.4103,6.3601,6.4128,6.2293,5.9016,5.683,5.3041,4.8848,7.4869,7.4869,7.4869,7.4869,7.4869,7.4869,7.4869,7.4869,7.4869,7.4869,7.2496,7.0675,6.976,6.5464,6.177,5.9637,5.9483,5.9483,5.9483,6.0563,6.119,6.119,6.2245,6.232,6.1215,6.119,6.0663,5.9608,5.9608,5.9885,6.0437,6.0437,6.0738,6.1291,6.1215,6.1542,6.2119,6.2044,6.232,6.2873,6.3375,6.3576,6.3626,6.4153,6.4354,6.4354,6.4354,6.4028,6.3425,6.2446,6.2069,6.1843,6.0864,6.0788,6.109,6.1165,6.1517,6.2019,6.2571,6.2772,6.2822,6.2822,6.2822,6.2822,6.2822,6.2822,6.2822,6.2822,6.2822,6.2822,6.2822,6.2822,6.2822,6.2822,6.2421,6.2094,6.2019,6.1592,6.104,6.0387,6.0311,6.0136,5.9659,6.0035,6.0588,6.124,6.1291,6.1743,6.2772,6.2822,6.2822,6.2822,6.2822,6.2822,6.2822,6.2822,6.2822,6.2822,6.2822,6.2822,6.2822,6.2822,6.2822,6.2873,6.345,6.34,6.3023,6.4053,6.3877,6.2998,6.3576,6.1973,5.8799,5.4521,5.1186,4.8808,7.4958,7.4869,7.4869,7.4869,7.4869,7.4869,7.4869,7.4869,7.4869,7.4869,7.2343,7.0441,7.0152,6.5527,6.1692,5.9637,5.9483,5.9483,5.9483,6.0563,6.119,6.119,6.2245,6.232,6.1215,6.119,6.0638,5.9483,5.9483,5.9608,5.9859,5.9859,6.0161,6.0688,6.0387,6.0738,6.1542,6.1542,6.1868,6.2446,6.335,6.3701,6.3776,6.4605,6.4931,6.4931,6.4931,6.4404,6.3576,6.2747,6.2044,6.1391,6.0563,6.0286,6.0311,6.0613,6.109,6.1667,6.222,6.2596,6.2822,6.2822,6.2822,6.2822,6.2822,6.2822,6.2822,6.2822,6.2822,6.2822,6.2822,6.2822,6.2822,6.2822,6.237,6.1893,6.1592,6.1065,6.0487,5.9935,5.9859,6.001,6.0387,6.0663,6.104,6.1592,6.1918,6.2169,6.2345,6.2672,6.2822,6.2822,6.2822,6.2822,6.2822,6.2822,6.2822,6.2822,6.2822,6.2822,6.2822,6.2822,6.2822,6.2873,6.345,6.355,6.3375,6.4153,6.4002,6.335,6.3601,6.1038,5.7068,5.5158,5.2027,4.8789]},{"header":{"parameterUnit":"m.s-1","parameterCategory":1,"la1":30.6,"la2":28.766,"lo1":-90.7593,"lo2":-88.6598,"dx":0.0162,"dy":0.0183,"nx":116,"ny":114,"refTime":"2022-12-17T18:00:00:Z","depth":0,"parameterNumber":3,"parameterNumberName":"V-component_of_WINDS"},"data":[0.0,0.0,0.0,0.0,0.0,0.0,0.0,0.0,0.0,0.0,0.0,0.0,0.0,0.0,0.0,0.0,0.0,0.0,0.0,0.0,0.0,0.0,0.0,0.0,0.0,0.0,0.0,0.0,0.0,0.0,0.0,0.0,0.0,0.0,0.0,0.0,0.0,0.0,0.0,0.0,0.0,0.0,0.0,0.0,0.0,0.0,0.0,0.0,0.0,0.0,0.0,0.0,0.0,0.0,0.0,0.0,0.0,0.0,0.0,0.0,0.0,0.0,0.0,0.0,0.0,0.0,0.0,0.0,0.0,0.0,0.0,0.0,0.0,0.0,0.0,0.0,0.0,0.0,0.0,0.0,0.0,0.0,0.0,0.0,0.0,0.0,0.0,0.0,0.0,0.0,0.0,0.0,0.0,0.0,0.0,0.0,0.0,0.0,0.0,0.0,0.0,0.0,0.0,0.0,0.0,0.0,0.0,0.0,0.0,0.0,0.0,0.0,0.0,0.0,0.0,0.0,0.0,0.0,0.0,0.0,0.0,0.0,0.0,0.0,0.0,0.0,0.0,0.0,0.0,0.0,0.0,0.0,0.0,0.0,0.0,0.0,0.0,0.0,0.0,0.0,0.0,0.0,0.0,0.0,0.0,0.0,0.0,0.0,0.0,0.0,0.0,0.0,0.0,0.0,0.0,0.0,0.0,0.0,0.0,0.0,0.0,0.0,0.0,0.0,0.0,0.0,0.0,0.0,0.0,0.0,0.0,0.0,0.0,0.0,0.0,0.0,0.0,0.0,0.0,0.0,0.0,0.0,0.0,0.0,0.0,0.0,0.0,0.0,0.0,0.0,0.0,0.0,0.0,0.0,0.0,0.0,0.0,0.0,0.0,0.0,0.0,0.0,0.0,0.0,0.0,0.0,0.0,0.0,0.0,0.0,0.0,0.0,0.0,0.0,0.0,0.0,0.0,0.0,0.0,0.0,0.0,0.0,0.0,0.0,0.0,0.0,0.0,0.0,0.0,0.0,0.0,0.0,0.0,0.0,0.0,0.0,0.0,0.0,0.0,0.0,0.0,0.0,0.0,0.0,0.0,0.0,0.0,0.0,0.0,0.0,0.0,0.0,0.0,0.0,0.0,0.0,0.0,0.0,0.0,0.0,0.0,0.0,0.0,0.0,0.0,0.0,0.0,0.0,0.0,0.0,0.0,0.0,0.0,0.0,0.0,0.0,0.0,0.0,0.0,0.0,0.0,0.0,0.0,0.0,0.0,0.0,0.0,0.0,0.0,0.0,0.0,0.0,0.0,0.0,0.0,0.0,0.0,0.0,0.0,0.0,0.0,0.0,0.0,0.0,0.0,0.0,0.0,0.0,0.0,0.0,0.0,0.0,0.0,0.0,0.0,0.0,0.0,0.0,0.0,0.0,0.0,0.0,0.0,0.0,0.0,0.0,0.0,0.0,0.0,0.0,0.0,0.0,0.0,0.0,0.0,0.0,0.0,0.0,0.0,0.0,0.0,0.0,0.0,0.0,0.0,0.0,0.0,0.0,0.0,0.0,0.0,0.0,0.0,0.0,0.0,0.0,0.0,0.0,0.0,0.0,0.0,0.0,0.0,0.0,0.0,0.0,0.0,0.0,0.0,0.0,0.0,0.0,0.0,0.0,0.0,0.0,0.0,0.0,0.0,0.0,0.0,0.0,0.0,0.0,0.0,0.0,0.0,0.0,0.0,0.0,0.0,0.0,0.0,0.0,0.0,0.0,0.0,0.0,0.0,0.0,0.0,0.0,0.0,0.0,0.0,0.0,0.0,0.0,0.0,0.0,0.0,0.0,0.0,0.0,0.0,0.0,0.0,0.0,0.0,0.0,0.0,0.0,0.0,0.0,0.0,0.0,0.0,0.0,0.0,0.0,0.0,0.0,0.0,0.0,0.0,0.0,0.0,0.0,0.0,0.0,0.0,0.0,0.0,0.0,0.0,0.0,0.0,0.0,0.0,0.0,0.0,0.0,0.0,0.0,0.0,0.0,0.0,0.0,0.0,0.0,0.0,0.0,0.0,0.0,0.0,0.0,0.0,0.0,0.0,0.0,0.0,0.0,0.0,0.0,0.0,0.0,0.0,0.0,0.0,0.0,0.0,0.0,0.0,0.0,0.0,0.0,0.0,0.0,0.0,0.0,0.0,0.0,0.0,0.0,0.0,0.0,0.0,0.0,0.0,0.0,0.0,0.0,0.0,0.0,0.0,0.0,0.0,0.0,0.0,0.0,0.0,0.0,0.0,0.0,0.0,0.0,0.0,0.0,0.0,0.0,0.0,0.0,0.0,0.0,0.0,0.0,0.0,0.0,0.0,0.0,0.0,0.0,0.0,0.0,0.0,0.0,0.0,0.0,0.0,0.0,0.0,0.0,0.0,0.0,0.0,0.0,0.0,0.0,0.0,0.0,0.0,0.0,0.0,0.0,0.0,0.0,0.0,0.0,0.0,0.0,0.0,0.0,0.0,0.0,0.0,0.0,0.0,0.0,0.0,0.0,0.0,0.0,0.0,0.0,0.0,0.0,0.0,0.0,0.0,0.0,0.0,0.0,0.0,0.0,0.0,0.0,0.0,0.0,0.0,0.0,0.0,0.0,0.0,0.0,0.0,0.0,0.0,0.0,0.0,0.0,0.0,0.0,0.0,0.0,0.0,0.0,0.0,0.0,0.0,0.0,0.0,0.0,0.0,0.0,0.0,0.0,0.0,0.0,0.0,0.0,0.0,0.0,0.0,0.0,0.0,0.0,0.0,0.0,0.0,0.0,0.0,0.0,0.0,0.0,0.0,0.0,0.0,0.0,0.0,0.0,0.0,0.0,0.0,0.0,0.0,0.0,0.0,0.0,0.0,0.0,0.0,0.0,0.0,0.0,0.0,0.0,0.0,0.0,0.0,0.0,0.0,0.0,0.0,0.0,0.0,0.0,0.0,0.0,0.0,0.0,0.0,0.0,0.0,0.0,0.0,0.0,0.0,0.0,0.0,0.0,0.0,0.0,0.0,0.0,0.0,0.0,0.0,0.0,0.0,0.0,0.0,0.0,0.0,0.0,0.0,0.0,0.0,0.0,0.0,0.0,0.0,0.0,0.0,0.0,0.0,0.0,0.0,0.0,0.0,0.0,0.0,0.0,0.0,0.0,0.0,0.0,0.0,0.0,0.0,0.0,0.0,0.0,0.0,0.0,0.0,0.0,0.0,0.0,0.0,0.0,0.0,0.0,0.0,0.0,0.0,0.0,0.0,0.0,0.0,0.0,0.0,0.0,0.0,0.0,0.0,0.0,0.0,0.0,0.0,0.0,0.0,0.0,0.0,0.0,0.0,0.0,0.0,0.0,0.0,0.0,0.0,0.0,0.0,0.0,0.0,0.0,0.0,0.0,0.0,0.0,0.0,0.0,0.0,0.0,0.0,0.0,0.0,0.0,0.0,0.0,0.0,0.0,0.0,0.0,0.0,0.0,0.0,0.0,0.0,0.0,0.0,0.0,0.0,0.0,0.0,0.0,0.0,0.0,0.0,0.0,0.0,0.0,0.0,0.0,0.0,0.0,0.0,0.0,0.0,0.0,0.0,0.0,0.0,0.0,0.0,0.0,0.0,0.0,0.0,0.0,0.0,0.0,0.0,0.0,0.0,0.0,0.0,0.0,0.0,0.0,0.0,0.0,0.0,0.0,0.0,0.0,0.0,0.0,0.0,0.0,0.0,0.0,0.0,0.0,0.0,0.0,0.0,0.0,0.0,0.0,0.0,0.0,0.0,0.0,0.0,0.0,0.0,0.0,0.0,0.0,0.0,0.0,0.0,0.0,0.0,0.0,0.0,0.0,0.0,0.0,0.0,0.0,0.0,0.0,0.0,0.0,0.0,0.0,0.0,0.0,0.0,0.0,0.0,0.0,0.0,0.0,0.0,0.0,0.0,0.0,0.0,0.0,0.0,0.0,0.0,0.0,0.0,0.0,0.0,0.0,0.0,0.0,0.0,0.0,0.0,0.0,0.0,0.0,0.0,0.0,0.0,0.0,0.0,0.0,0.0,0.0,0.0,0.0,0.0,0.0,0.0,0.0,0.0,0.0,0.0,0.0,0.0,0.0,0.0,0.0,0.0,0.0,0.0,0.0,0.0,0.0,0.0,0.0,0.0,0.0,0.0,0.0,0.0,0.0,0.0,0.0,0.0,0.0,0.0,0.0,0.0,0.0,0.0,0.0,0.0,0.0,0.0,0.0,0.0,0.0,0.0,0.0,0.0,0.0,0.0,0.0,0.0,0.0,0.0,0.0,0.0,0.0,0.0,0.0,0.0,0.0,0.0,0.0,0.0,0.0,0.0,0.0,0.0,0.0,0.0,0.0,0.0,0.0,0.0,0.0,0.0,0.0,0.0,0.0,0.0,0.0,0.0,0.0,0.0,0.0,0.0,0.0,0.0,0.0,0.0,0.0,0.0,0.0,0.0,0.0,0.0,0.0,0.0,0.0,0.0,0.0,0.0,0.0,0.0,0.0,0.0,0.0,0.0,0.0,0.0,0.0,0.0,0.0,0.0,0.0,0.0,0.0,0.0,0.0,0.0,0.0,0.0,0.0,0.0,0.0,0.0,0.0,0.0,0.0,0.0,0.0,0.0,0.0,0.0,0.0,0.0,0.0,0.0,0.0,0.0,0.0,0.0,0.0,0.0,0.0,0.0,0.0,0.0,0.0,0.0,0.0,0.0,0.0,0.0,0.0,0.0,0.0,0.0,0.0,0.0,0.0,0.0,0.0,0.0,0.0,0.0,0.0,0.0,0.0,0.0,0.0,0.0,0.0,0.0,0.0,0.0,0.0,0.0,0.0,0.0,0.0,0.0,0.0,0.0,0.0,0.0,0.0,0.0,0.0,0.0,0.0,0.0,0.0,0.0,0.0,0.0,0.0,0.0,0.0,0.0,0.0,0.0,0.0,0.0,0.0,0.0,0.0,0.0,0.0,0.0,0.0,0.0,0.0,0.0,0.0,0.0,0.0,0.0,0.0,0.0,0.0,0.0,0.0,0.0,0.0,0.0,0.0,0.0,0.0,0.0,0.0,0.0,0.0,0.0,0.0,0.0,0.0,0.0,0.0,0.0,0.0,0.0,0.0,0.0,0.0,0.0,0.0,0.0,0.0,0.0,0.0,0.0,0.0,0.0,0.0,0.0,0.0,0.0,0.0,0.0,0.0,0.0,0.0,0.0,0.0,0.0,0.0,0.0,0.0,0.0,0.0,0.0,0.0,0.0,0.0,0.0,0.0,0.0,0.0,0.0,0.0,0.0,0.0,0.0,0.0,0.0,0.0,0.0,0.0,0.0,0.0,0.0,0.0,0.0,0.0,0.0,0.0,0.0,0.0,0.0,0.0,0.0,0.0,0.0,0.0,0.0,0.0,0.0,0.0,0.0,0.0,0.0,0.0,0.0,0.0,0.0,0.0,0.0,0.0,0.0,0.0,0.0,0.0,0.0,0.0,0.0,0.0,0.0,0.0,0.0,0.0,0.0,0.0,0.0,0.0,0.0,0.0,0.0,0.0,0.0,0.0,0.0,0.0,0.0,0.0,0.0,0.0,0.0,0.0,0.0,0.0,0.0,0.0,0.0,0.0,0.0,0.0,0.0,0.0,0.0,0.0,0.0,0.0,0.0,0.0,0.0,0.0,0.0,0.0,0.0,0.0,0.0,0.0,0.0,0.0,0.0,0.0,0.0,0.0,0.0,0.0,0.0,0.0,0.0,0.0,0.0,0.0,0.0,0.0,0.0,0.0,0.0,0.0,0.0,0.0,0.0,0.0,0.0,0.0,0.0,0.0,0.0,0.0,0.0,0.0,0.0,0.0,0.0,0.0,0.0,0.0,0.0,0.0,0.0,0.0,0.0,0.0,0.0,0.0,0.0,0.0,0.0,0.0,0.0,0.0,0.0,0.0,0.0,0.0,0.0,0.0,0.0,0.0,0.0,0.0,0.0,0.0,0.0,0.0,0.0,0.0,0.0,0.0,0.0,0.0,0.0,0.0,0.0,0.0,0.0,0.0,0.0,0.0,0.0,0.0,0.0,0.0,0.0,0.0,0.0,0.0,0.0,0.0,0.0,0.0,-4.9969,-4.8729,0.0,0.0,0.0,0.0,0.0,0.0,0.0,0.0,0.0,0.0,0.0,0.0,0.0,0.0,0.0,0.0,0.0,0.0,0.0,0.0,0.0,0.0,0.0,-5.2307,-5.2674,-5.3078,-5.3115,0.0,0.0,0.0,0.0,0.0,0.0,0.0,0.0,0.0,-5.4061,-5.3333,-5.3717,-5.3541,-5.2773,-5.2401,-5.186,-5.115,0.0,0.0,0.0,0.0,0.0,0.0,0.0,0.0,0.0,0.0,0.0,0.0,0.0,0.0,0.0,0.0,0.0,0.0,0.0,0.0,0.0,0.0,0.0,0.0,0.0,0.0,0.0,0.0,0.0,0.0,0.0,0.0,0.0,0.0,0.0,0.0,0.0,0.0,0.0,0.0,0.0,0.0,0.0,0.0,0.0,0.0,0.0,0.0,0.0,0.0,0.0,0.0,0.0,0.0,0.0,0.0,0.0,0.0,0.0,0.0,0.0,0.0,0.0,0.0,0.0,0.0,0.0,0.0,0.0,0.0,-5.0603,-5.0052,0.0,0.0,0.0,0.0,0.0,0.0,0.0,0.0,0.0,0.0,0.0,0.0,0.0,0.0,0.0,0.0,0.0,0.0,0.0,0.0,0.0,-5.2711,-5.3518,-5.4216,-5.4876,-5.5537,-5.5574,-5.5574,-5.5574,-5.5574,0.0,0.0,0.0,0.0,-5.5794,-5.5815,-5.58,-5.5861,-5.5702,-5.5715,-5.5919,-5.5919,-5.531,-5.4262,-5.3856,0.0,0.0,0.0,0.0,0.0,0.0,0.0,0.0,0.0,0.0,0.0,0.0,0.0,0.0,0.0,0.0,0.0,0.0,0.0,0.0,0.0,0.0,0.0,0.0,0.0,0.0,0.0,0.0,0.0,0.0,0.0,0.0,0.0,0.0,0.0,0.0,0.0,0.0,0.0,0.0,0.0,0.0,0.0,0.0,0.0,0.0,0.0,0.0,0.0,0.0,0.0,0.0,0.0,0.0,0.0,0.0,0.0,0.0,0.0,0.0,0.0,0.0,0.0,-5.0262,-5.0371,-5.0466,-5.0592,-5.0507,-5.0389,-5.1741,-5.1797,-5.1073,-5.2309,0.0,0.0,0.0,0.0,0.0,0.0,0.0,0.0,0.0,0.0,0.0,0.0,0.0,0.0,0.0,0.0,0.0,0.0,0.0,-5.4399,-5.5207,-5.5354,-5.5464,-5.5574,-5.5574,-5.5574,-5.5574,-5.5574,0.0,0.0,0.0,-5.5941,-5.6638,-5.6612,-5.6688,-5.6723,-5.6042,-5.6028,-5.6664,-5.6664,-5.69,-5.7239,-5.531,-5.4431,-5.4397,0.0,0.0,0.0,0.0,0.0,0.0,0.0,0.0,0.0,0.0,0.0,0.0,0.0,0.0,0.0,0.0,0.0,0.0,0.0,0.0,0.0,0.0,0.0,0.0,0.0,0.0,0.0,0.0,0.0,0.0,0.0,0.0,0.0,0.0,0.0,0.0,0.0,0.0,0.0,0.0,0.0,-5.1995,-5.115,0.0,0.0,0.0,0.0,0.0,0.0,0.0,0.0,0.0,0.0,0.0,0.0,0.0,-5.0096,-5.0101,-4.989,-5.0018,-5.0607,-5.0908,-5.1331,-5.1904,-5.2571,-5.2808,-5.2803,-5.402,0.0,-4.9947,-5.0071,0.0,0.0,0.0,0.0,0.0,0.0,0.0,0.0,0.0,0.0,0.0,0.0,0.0,0.0,0.0,0.0,0.0,0.0,0.0,0.0,0.0,-5.6317,-5.6346,-5.6346,-5.6313,-5.6515,-5.6952,-5.7388,0.0,0.0,-5.829,-5.8474,-5.8841,-5.8377,-5.7882,-5.7444,-5.7124,-5.7103,-5.7408,-5.7408,-5.7577,-5.7848,-5.6867,-5.6427,-5.6427,-5.6089,0.0,0.0,0.0,0.0,0.0,0.0,0.0,0.0,0.0,0.0,0.0,0.0,0.0,0.0,0.0,0.0,0.0,0.0,0.0,0.0,0.0,0.0,0.0,0.0,0.0,0.0,0.0,0.0,0.0,0.0,0.0,0.0,0.0,0.0,0.0,0.0,0.0,0.0,0.0,-5.3213,-5.2706,-5.1928,-5.1826,-5.1657,0.0,0.0,0.0,0.0,0.0,0.0,0.0,0.0,0.0,-5.1724,-5.1265,-5.1243,-5.1809,-5.1728,-5.1758,-5.2154,-5.2227,-5.2486,-5.2755,-5.3054,-5.3174,-5.3271,-5.3723,-5.3277,-5.2275,-5.3539,-5.4134,-5.4168,0.0,0.0,0.0,0.0,-5.608,-5.5817,0.0,0.0,0.0,0.0,0.0,0.0,0.0,0.0,0.0,0.0,0.0,0.0,-5.6812,-5.6884,-5.6939,-5.6939,-5.7071,-5.7498,-5.8303,-5.8897,-5.9683,-6.0628,-6.0713,-6.0689,-6.0724,-5.9727,-5.8729,-5.7912,-5.8069,-5.8186,-5.8186,-5.8355,-5.8457,-5.8457,-5.8457,-5.8254,-5.7881,-5.7554,-5.7144,-5.6673,0.0,0.0,0.0,0.0,0.0,0.0,0.0,0.0,0.0,0.0,0.0,0.0,0.0,0.0,0.0,0.0,0.0,0.0,0.0,0.0,0.0,0.0,0.0,0.0,0.0,0.0,0.0,0.0,0.0,0.0,0.0,0.0,0.0,0.0,0.0,0.0,0.0,-5.3957,-5.3788,-5.2976,-5.2809,-5.2437,0.0,0.0,0.0,0.0,0.0,0.0,-5.1518,-5.123,-5.1476,-5.2476,-5.227,-5.2459,-5.3174,-5.3174,-5.3174,-5.3174,-5.3354,-5.3443,-5.3443,-5.3623,-5.3803,-5.3952,-5.3952,-5.4431,-5.525,-5.6247,-5.6404,-5.6278,-5.7587,-5.792,-5.7682,-5.7946,-5.7923,-5.7919,0.0,0.0,0.0,0.0,0.0,0.0,0.0,0.0,0.0,0.0,0.0,-5.6061,-5.6819,-5.6937,-5.6914,-5.6914,-5.7541,-5.8259,-5.9096,-5.9168,-5.9901,-6.1484,-6.152,-6.1551,-6.1515,-5.9945,-5.8703,-5.7887,-5.8592,-5.8964,-5.8964,-5.9674,-5.9979,-5.9979,-5.9979,-5.9201,-5.7808,-5.6701,-5.6249,-5.6216,-5.6216,0.0,0.0,0.0,0.0,0.0,0.0,0.0,0.0,0.0,0.0,0.0,0.0,0.0,0.0,0.0,0.0,0.0,0.0,0.0,0.0,0.0,0.0,0.0,0.0,0.0,0.0,0.0,0.0,0.0,0.0,0.0,0.0,0.0,0.0,0.0,0.0,0.0,0.0,-5.4566,-5.4123,0.0,0.0,0.0,0.0,-5.3113,-5.3177,-5.3783,-5.5091,-5.4178,-5.3956,-5.473,-5.3667,-5.3181,-5.3174,-5.3174,-5.3174,-5.3204,-5.3832,-5.4162,-5.4192,-5.479,-5.5418,-5.6017,-5.6017,-5.6735,-5.7723,-5.531,-5.528,-5.6707,-5.6834,-5.7558,-5.8419,-5.7932,-5.8625,-5.9649,0.0,0.0,0.0,-4.6715,-4.7961,-4.9493,-5.1668,-5.3536,-5.5133,-5.6235,-5.6843,-5.7474,-5.8267,-5.786,-5.7764,-5.8288,-5.8527,-5.9009,-5.9889,-6.0874,-6.1745,-6.2295,-6.3393,-6.3238,-6.1628,-6.0438,-5.9425,-5.8626,-5.937,-5.9708,-5.9708,-5.9979,-6.0114,-6.0114,-6.0114,-5.981,-5.9227,-5.8018,-5.7508,-5.7475,-5.6254,-5.6255,0.0,0.0,0.0,0.0,0.0,0.0,0.0,0.0,0.0,0.0,0.0,0.0,0.0,0.0,0.0,0.0,0.0,0.0,0.0,0.0,0.0,0.0,0.0,0.0,0.0,0.0,0.0,0.0,0.0,0.0,0.0,0.0,0.0,0.0,0.0,0.0,0.0,-5.5015,-5.517,0.0,-5.3874,-5.4077,-5.4084,-5.3709,-5.4059,-5.4259,-5.4021,-5.3614,-5.3758,-5.4455,-5.4029,-5.4251,-5.5089,-5.5119,-5.5299,-5.5688,-5.5957,-5.6077,-5.6077,-5.6765,-5.7214,-5.7453,-5.7872,-5.856,-5.9308,-5.8381,-5.8294,-5.8926,-5.938,-6.031,-6.154,-6.1747,-6.262,-6.3767,0.0,0.0,0.0,-4.7066,-4.8452,-5.0199,-5.287,-5.4818,-5.6291,-5.7083,-5.767,-5.8172,-5.8637,-5.8467,-5.8496,-5.9011,-5.9298,-5.9716,-6.0628,-6.1953,-6.2985,-6.3546,-6.4363,-6.3896,-6.1958,-6.0809,-5.9963,-5.937,-6.0148,-6.0622,-6.0892,-6.1129,-6.14,-6.1637,-6.1637,-6.1637,-6.1525,-6.0306,-5.9301,-5.8264,-5.7033,-5.7004,-5.7621,0.0,0.0,0.0,0.0,0.0,0.0,0.0,0.0,0.0,0.0,0.0,0.0,0.0,0.0,0.0,0.0,0.0,0.0,0.0,0.0,0.0,0.0,0.0,0.0,0.0,0.0,0.0,0.0,0.0,0.0,0.0,0.0,0.0,0.0,-5.707,-5.7217,-5.6478,-5.6343,-5.5863,-5.4857,-5.4687,-5.4448,-5.402,-5.4354,-5.4526,-5.4261,-5.4192,-5.4491,-5.5149,-5.5179,-5.5598,-5.6466,-5.6466,-5.6675,-5.7094,-5.7334,-5.7453,-5.7453,-5.8141,-5.859,-5.88,-5.9249,-5.9937,-6.0745,-6.0745,-6.0894,-6.1104,-6.1104,-6.1599,-6.2534,-6.2882,-6.3885,-6.5123,0.0,0.0,-4.5035,-4.6499,-4.8624,-5.0838,-5.3099,-5.5368,-5.7105,-5.7903,-5.8039,-5.8027,-5.8002,-5.8624,-5.9099,-5.9133,-5.9776,-6.0587,-6.1517,-6.2344,-6.3549,-6.5307,-6.4423,-6.3506,-6.2716,-6.1013,-6.0182,-6.0216,-6.0994,-6.1738,-6.2482,-6.3193,-6.3937,-6.4613,-6.4613,-6.4613,-6.4498,-6.3397,-6.1231,-5.8657,-5.851,-5.8477,-5.8525,0.0,0.0,0.0,0.0,0.0,0.0,0.0,0.0,0.0,0.0,0.0,0.0,0.0,0.0,0.0,0.0,0.0,0.0,0.0,0.0,0.0,0.0,0.0,0.0,0.0,0.0,0.0,0.0,0.0,0.0,0.0,0.0,0.0,-5.8051,-5.8592,-5.8957,-5.8991,-5.7609,-5.639,-5.5665,-5.4206,-5.3563,-5.4251,-5.4311,-5.485,-5.6137,-5.6196,-5.6466,-5.7064,-5.7094,-5.7094,-5.7124,-5.7154,-5.7154,-5.7184,-5.7872,-5.8201,-5.8231,-5.889,-5.9548,-6.0146,-6.0176,-6.0924,-6.2121,-6.2121,-6.251,-6.2959,-6.1672,-6.1164,-6.1164,-6.1164,-6.2038,-6.3516,-4.5128,-4.4722,-4.52,-4.7116,-4.8926,-5.0986,-5.3717,-5.5668,-5.7105,-5.7903,-5.8503,-5.9011,-5.9527,-6.0228,-6.0892,-6.14,-6.1637,-6.2139,-6.3066,-6.3858,-6.5098,-6.6822,-6.4296,-6.3274,-6.417,-6.2616,-6.2042,-6.2584,-6.2787,-6.3294,-6.4005,-6.4208,-6.441,-6.4613,-6.4613,-6.4613,-6.4613,-6.4218,-6.3665,-6.2628,-5.8944,-5.7109,-5.6694,0.0,0.0,0.0,0.0,0.0,0.0,0.0,0.0,0.0,0.0,0.0,0.0,0.0,0.0,0.0,0.0,0.0,0.0,0.0,0.0,0.0,0.0,0.0,0.0,0.0,0.0,0.0,0.0,0.0,0.0,0.0,-5.9674,-5.9742,-5.9505,-5.892,-5.836,-5.806,-5.6899,-5.6124,-5.5999,-5.5611,-5.5598,-5.6256,-5.6286,-5.6466,-5.6825,-5.6825,-5.6915,-5.7094,-5.7094,-5.7334,-5.7842,-5.8321,-5.88,-5.9279,-5.9967,-6.0296,-6.0326,-6.0984,-6.1373,-6.1583,-6.2032,-6.245,-6.281,-6.281,-6.2899,-6.3049,-6.269,-6.3131,-6.396,-6.396,-6.5167,-6.6939,-4.4857,-4.4587,-4.5357,-4.7788,-4.9522,-5.1585,-5.4444,-5.6271,-5.7485,-5.7944,-5.8946,-5.9698,-6.0146,-6.1095,-6.1941,-6.2347,-6.2702,-6.3176,-6.3729,-6.4858,-6.5782,-6.6368,-6.4848,-6.4191,-6.4667,-6.4087,-6.3835,-6.3971,-6.4275,-6.4647,-6.5053,-6.5053,-6.5222,-6.5527,-6.5527,-6.5527,-6.5527,-6.5527,-6.4791,-6.321,-6.032,-5.8938,-5.8733,-5.8211,-5.8713,-5.9729,-6.0118,-5.9977,-5.9731,-6.0897,0.0,0.0,0.0,0.0,0.0,0.0,0.0,0.0,0.0,0.0,0.0,0.0,0.0,0.0,0.0,0.0,0.0,0.0,0.0,0.0,0.0,0.0,0.0,0.0,-6.0588,-6.0825,-6.1434,-6.0382,-5.9676,-6.0121,-5.862,-5.7715,-5.8159,-5.7213,-5.6705,-5.7064,-5.7094,-5.7214,-5.7513,-5.7513,-5.7782,-5.8321,-5.8351,-5.868,-5.9368,-5.9757,-6.0146,-6.0535,-6.1194,-6.1523,-6.1553,-6.2211,-6.251,-6.254,-6.2899,-6.3079,-6.3079,-6.3079,-6.3079,-6.3079,0.0,0.0,0.0,0.0,-6.569,-6.7786,-4.4993,-4.4654,-4.5494,-4.8252,-5.0161,-5.2265,-5.5057,-5.6887,-5.7996,-5.8,-5.9258,-6.0167,-6.0136,-6.1467,-6.2381,-6.2381,-6.3199,-6.3764,-6.3912,-6.5332,-6.5794,-6.5005,-6.5544,-6.5524,-6.485,-6.5493,-6.5527,-6.4986,-6.5628,-6.5933,-6.5933,-6.5933,-6.6237,-6.6812,-6.6812,-6.6812,-6.6812,-6.6812,-6.5105,-6.2327,-6.2171,-6.2156,-6.2133,-6.0495,-6.0599,-6.1447,-6.0995,-6.087,-6.1052,-6.1425,0.0,0.0,0.0,0.0,0.0,0.0,0.0,0.0,0.0,0.0,0.0,0.0,0.0,0.0,0.0,0.0,0.0,0.0,0.0,0.0,0.0,0.0,0.0,0.0,-6.1637,-6.2066,-6.3269,-6.2245,-6.1908,-6.3026,-6.1164,-5.9975,-6.055,-5.8531,-5.7244,-5.7304,-5.7393,-5.7693,-5.8321,-5.8411,0.0,0.0,0.0,-6.0505,-6.1104,-6.1194,-6.1224,-6.1224,-6.1882,-6.2211,-6.2241,-6.281,-6.3079,-6.3079,-6.3079,-6.3079,-6.3079,-6.3079,-6.3194,-6.3279,-6.3194,-6.3194,-6.3394,-6.3478,-6.5219,-6.747,-4.5771,-4.4993,-4.5273,-4.7557,-4.9802,-5.2065,-5.4363,-5.6572,-5.7996,-5.8,-5.9258,-6.0167,-6.0136,-6.1467,-6.2381,-6.2381,-6.3199,-6.3973,-6.4721,-6.4987,-6.5297,-6.5654,-6.571,-6.5977,-6.6373,-6.6508,-6.6812,-6.7252,-6.7387,-6.7455,-6.7455,-6.7455,-6.7218,-6.6812,-6.6812,-6.6812,-6.6812,-6.6812,-6.5875,-6.4309,-6.3256,-6.1567,-5.9852,-6.0453,-6.0853,-6.1128,-6.2016,-6.1051,-5.979,-6.2409,-6.2147,-6.1182,-6.3484,-6.3283,0.0,0.0,0.0,0.0,0.0,0.0,0.0,0.0,0.0,0.0,0.0,0.0,0.0,0.0,0.0,0.0,0.0,0.0,0.0,-6.2956,-6.3565,-6.3713,-6.2993,-6.259,-6.2146,-6.1491,-6.0139,-5.9098,-5.8723,-5.8219,-5.8141,-5.868,-5.9189,-5.9578,-5.9697,-6.0236,-6.0655,-6.0894,-6.0924,-6.0984,-6.1104,-6.1642,-6.1912,-6.1912,-6.257,0.0,-6.2899,-6.3019,-6.3079,-6.3079,-6.3079,-6.3079,-6.3079,-6.3079,-6.3706,-6.4623,-6.3478,-6.3789,-6.4813,-6.5941,-6.747,-6.9024,-4.6955,-4.5906,-4.6067,-4.8923,-5.0487,-5.2273,-5.5196,-5.7005,-5.7984,-5.7977,-5.9309,-6.0255,-6.0218,-6.1916,-6.3058,-6.3058,-6.3869,-6.4564,-6.4999,-6.5231,-6.529,-6.5275,-6.5875,-6.6609,-6.7354,-6.776,-6.8132,-6.8504,-6.8504,-6.8301,-6.7895,-6.7523,-6.7151,-6.6812,-6.6812,-6.6812,-6.6812,-6.6812,-6.568,-6.3919,-6.3292,-6.1782,-6.0066,-6.0415,-6.0836,-6.1559,-6.2418,-6.1898,-6.1017,-6.2713,-6.2191,-6.111,-6.2769,-6.3024,-6.2847,0.0,0.0,0.0,0.0,0.0,0.0,0.0,0.0,0.0,0.0,0.0,0.0,0.0,0.0,-6.2042,-6.2821,0.0,-6.3632,-6.4005,-6.3817,-6.353,-6.3254,-6.2721,-6.2086,-6.1498,-6.0289,-5.9479,-5.9601,-5.8987,-5.874,-5.9069,-5.9398,-5.9727,-6.0057,-6.0416,-6.0924,-6.1583,-6.1613,-6.1762,-6.2091,-6.2421,-6.26,-6.26,-6.2929,-6.3079,-6.3079,-6.3079,-6.3079,-6.3079,-6.3408,-6.3528,-6.3558,-6.3917,-6.4473,-6.5102,-6.5102,-6.5837,-6.6796,-6.75,-6.8853,-7.0435,-4.8308,-4.7158,-4.7124,-5.0414,-5.1281,-5.263,-5.6055,-5.7418,-5.8019,-5.8011,-5.9186,-6.0131,-6.0291,-6.2139,-6.3512,-6.4024,-6.4508,-6.4799,-6.4999,-6.5398,-6.5353,-6.458,-6.6034,-6.7151,-6.7895,-6.8707,-6.9113,-6.9113,-6.9248,-6.8842,-6.7895,-6.7286,-6.6948,-6.6812,-6.6812,-6.6812,-6.6812,-6.6525,-6.5081,-6.3004,-6.3004,-6.2193,-6.1029,-6.1002,-6.1274,-6.1854,-6.2516,-6.2623,-6.2444,-6.2979,-6.223,-6.1276,-6.1833,-6.223,-6.2534,-6.3363,-6.4014,0.0,0.0,0.0,0.0,0.0,0.0,0.0,0.0,-6.2381,-6.2279,-6.3497,-6.3734,-6.3903,-6.4478,-6.4715,-6.4735,-6.4454,-6.3729,-6.3298,-6.3588,-6.2518,-6.1758,-6.1758,-6.0782,-6.0228,-6.0578,-5.9652,-5.9099,-5.9099,-5.9338,-5.9727,-6.0266,-6.0535,-6.1164,-6.2241,-6.2301,-6.254,-6.3079,-6.3079,-6.3079,-6.3079,-6.3199,-6.3258,-6.3258,-6.3408,-6.3468,-6.3498,-6.3977,-6.4186,-6.4246,-6.5109,-6.5555,-6.5991,-6.7461,-6.8702,-6.9464,-6.9027,-7.0167,-7.1852,-4.9729,-4.868,-4.8199,-4.9909,-5.1381,-5.3087,-5.5451,-5.7094,-5.8019,-5.8011,-5.8718,-5.9522,-6.0255,-6.1121,-6.2533,-6.4723,-6.4309,-6.4148,-6.4933,-6.4841,-6.4661,-6.4613,-6.6034,-6.7151,-6.7895,-6.8707,-6.9113,-6.9113,-6.9755,-6.9316,-6.7895,-6.7827,-6.7421,-6.6812,-6.6812,-6.6812,-6.6728,-6.5559,-6.4322,-6.3004,-6.3004,-6.2193,-6.1294,-6.3541,-6.3036,-6.127,-6.2491,-6.2265,-6.1545,-6.3877,-6.3784,-6.3129,-6.5413,-6.3877,-6.1842,-6.5326,-6.5312,-6.4634,-6.694,-6.7523,-6.7354,-6.6643,-6.5865,-6.5155,0.0,-6.4275,-6.4275,-6.4444,-6.4478,-6.4512,-6.458,-6.5121,-6.5194,-6.4067,-6.4332,-6.4309,-6.3258,-6.1968,-6.1068,-6.1068,-6.0998,-6.0444,-5.9362,-5.9207,-5.9099,-5.9099,-6.0206,-6.0924,-6.0984,-6.2121,-6.281,-6.2959,-6.2959,-6.2989,-6.3079,-6.3079,-6.3079,-6.3079,-6.3617,-6.3887,-6.3917,-6.4545,-6.4814,-6.4814,-6.4874,-6.4904,-6.5023,-6.6361,-6.7683,-6.8989,-7.0452,-7.2183,-7.3654,-7.1853,-7.2078,-7.3291,-4.939,-4.9323,-4.9526,-5.0574,-5.1628,-5.3335,-5.6009,-5.7315,-5.8014,-5.802,-5.87,-5.9459,-6.0286,-6.1895,-6.3764,-6.5733,-6.4599,-6.4139,-6.4964,-6.48,-6.4613,-6.4613,-6.5595,-6.6711,-6.7861,-6.7827,-6.8199,-6.9113,-6.8944,-6.8538,-6.7895,-6.7455,-6.7117,-6.6812,-6.6812,-6.6812,-6.6728,-6.6235,-6.526,-6.4137,-6.4137,-6.3097,-6.1658,-6.2743,-6.2171,-6.1312,-6.4669,-6.4536,0.0,-6.4943,-6.4663,-6.3902,-6.5213,-6.4892,-6.4347,-6.6752,-6.72,-6.7016,-6.7288,-6.798,-6.8229,-6.669,-6.6335,-6.6136,-6.5392,-6.4918,-6.4715,-6.5155,-6.5222,-6.5358,-6.5797,-6.6136,-6.6171,-6.5593,-6.515,-6.4505,-6.3196,-6.1896,-6.0712,-5.994,-5.9864,-5.9683,-5.9207,-5.9099,-5.9249,-5.9638,-6.0206,-6.0864,-6.1642,-6.2211,-6.269,-6.3079,-6.3438,-6.3617,-6.3617,-6.4006,-6.4216,-6.4216,-6.4485,-6.4605,-6.4605,-6.4904,-6.5678,-6.6888,-6.6888,-6.7535,-6.8789,-6.943,-6.9981,-7.0631,-7.2134,-7.3276,-7.3972,-7.3466,-7.3884,-7.4762,-4.9255,-4.956,-5.0168,-5.1319,-5.2008,-5.3262,-5.5883,-5.7065,-5.7679,-5.7679,-5.8417,-5.9281,-6.0309,-6.2401,-6.431,-6.5705,-6.4375,-6.3866,-6.4645,-6.4209,-6.4072,-6.4309,-6.4986,-6.5967,-6.7252,-6.6981,-6.7354,-6.847,-6.8098,-6.7793,-6.759,-6.7049,-6.6812,-6.6812,-6.6812,-6.6812,-6.6812,-6.644,-6.5734,-6.4869,-6.4869,-6.3995,-6.2769,-6.2945,-6.2599,-6.2539,-6.5913,-6.5841,-6.4574,-6.6245,-6.5975,-6.5091,-6.5841,-6.5948,-6.6067,-6.7732,-6.8774,-6.9242,-6.8411,-6.8607,-6.8769,-6.7122,-6.6765,-6.6677,-6.6136,-6.5595,-6.5358,-6.5899,-6.6,-6.617,-6.6711,-6.6812,-6.6694,-6.632,-6.547,-6.4505,-6.3196,-6.1896,-6.0609,-5.9758,-5.9285,-5.9099,-5.9099,-5.9099,-5.9368,-6.0027,-6.0266,-6.0954,-6.2301,-6.254,-6.2929,-6.3588,-6.4066,-6.4276,-6.4276,-6.4784,-6.5024,-6.5024,-6.5203,-6.5293,-6.5293,-6.5919,-6.7016,-6.8458,-6.8913,-6.9951,-7.1388,-7.1628,-7.1638,-7.1819,-7.3039,-7.3608,-7.3674,-7.4315,-7.5067,-7.5709,-4.9932,-4.9492,-4.9729,-5.1894,-5.2351,-5.2924,-5.4426,-5.5984,-5.6912,-5.6912,-5.7583,-5.8621,-6.0236,-6.1887,-6.3209,-6.409,-6.3321,-6.3052,-6.3766,-6.2935,-6.2787,-6.3531,-6.4241,-6.4986,-6.573,-6.644,-6.6846,-6.688,-6.7557,-6.7523,-6.6846,-6.6812,-6.6812,-6.6812,-6.6812,-6.6812,-6.6728,-6.547,-6.4959,-6.4869,-6.4869,-6.4869,-6.486,-6.5395,-6.5708,-6.5791,-6.5255,-6.4901,-6.5312,-6.8068,-6.8149,-6.7196,-6.8539,-6.7229,-6.574,-6.8361,-6.9586,-7.0297,-7.0951,-7.0195,-6.9079,-6.8992,-6.7929,-6.6812,-6.6779,-6.6779,-6.6745,-6.6779,-6.6779,-6.6779,-6.6812,-6.6812,-6.644,-6.5171,-6.4959,-6.4505,-6.3196,-6.1896,-6.0989,-6.0887,-5.9864,-5.9099,-5.9099,-5.9099,-5.9368,-6.0027,-6.0715,-6.1642,-6.2989,-6.3617,-6.4246,-6.4934,-6.4994,-6.4994,-6.4994,-6.5024,-6.5024,-6.5054,-6.5682,-6.5981,-6.6011,-6.8076,-6.9139,-6.9286,-7.0696,-7.1388,-7.1464,-7.213,-7.2378,-7.2413,-7.3184,-7.3544,-7.3646,-7.4356,-7.5067,-7.5709,-5.0033,-5.0304,-5.071,-5.1454,-5.2459,-5.3301,-5.3813,-5.5588,-5.6912,-5.6912,-5.802,0.0,0.0,0.0,0.0,0.0,-6.3253,-6.2831,-6.3017,-6.3134,-6.311,-6.2753,-6.3497,-6.4241,-6.4952,-6.5222,-6.5595,-6.6068,-6.6812,-6.7049,-6.6812,-6.6812,-6.6812,-6.6812,-6.6812,-6.6812,-6.6812,-6.632,-6.6148,-6.6148,-6.6148,-6.5847,-6.5496,-6.6137,-6.6154,-6.5947,0.0,-6.7445,-6.742,-6.9233,-6.949,-6.9189,-6.9701,-6.9222,-6.8802,-7.0131,-7.0737,-7.0794,-7.007,-6.987,-6.9512,-6.8102,-6.759,-6.7421,-6.6914,-6.6812,-6.6812,-6.6812,-6.6812,-6.6812,-6.6812,-6.6812,-6.6643,-6.6235,-6.6148,-6.5767,-6.4414,-6.3919,-6.294,-6.1193,-6.0609,-6.0228,-5.9807,-5.9368,-5.9757,-6.1313,-6.1642,-6.251,-6.4276,-6.4575,-6.4784,-6.5024,-6.5443,-6.5682,-6.5682,-6.6101,-6.634,-6.634,-6.655,-6.667,-6.667,-6.7457,-6.8325,-6.9201,-6.9745,-7.0804,-7.2059,-7.2342,-7.268,-7.3217,-7.3932,-7.4221,-7.4322,-7.5067,-7.5473,-7.5777,-5.0473,-5.0879,-5.1217,-5.1217,-5.2232,0.0,0.0,0.0,0.0,0.0,0.0,0.0,0.0,0.0,0.0,0.0,0.0,-6.2305,-6.2301,-6.2402,-6.2277,-6.2053,-6.2448,-6.3057,-6.3802,-6.4343,-6.4816,-6.529,-6.6305,-6.6812,-6.6812,-6.6812,-6.6812,-6.6812,-6.6812,-6.6812,-6.6812,-6.6812,-6.7286,-6.7963,-6.7421,-6.7387,-6.7658,-6.732,-6.7252,0.0,-6.8673,-6.9211,-6.9436,-7.0266,-7.0398,-7.0229,-7.05,-7.0601,-7.0703,-7.1176,-7.1312,-7.1098,-7.017,-6.9836,-6.9478,-6.8102,-6.759,-6.7387,-6.6914,-6.6812,-6.6812,-6.6812,-6.6812,-6.6812,-6.6812,-6.6812,-6.6812,-6.6812,-6.6812,-6.632,-6.5081,-6.4505,-6.3546,-6.1535,-6.0978,-6.0578,-6.0496,-6.0266,-6.0805,-6.2331,-6.266,-6.3528,-6.5293,-6.5383,-6.5473,-6.5712,-6.6131,-6.637,-6.637,-6.6789,-6.6999,-6.6999,-6.6999,-6.6999,-6.6999,-6.7548,-6.8325,-6.917,-7.0028,-7.1306,-7.2808,-7.2812,-7.3227,-7.3916,-7.4119,-7.4221,-7.4289,-7.5033,-7.5473,-7.5811,-5.1285,-5.1285,-5.1285,0.0,0.0,0.0,0.0,0.0,0.0,0.0,0.0,0.0,0.0,0.0,0.0,0.0,0.0,0.0,-6.1423,-6.0726,-6.0596,-6.124,-6.1298,-6.1637,-6.2381,-6.3802,-6.4546,-6.4613,-6.6034,-6.6779,-6.6812,-6.6812,-6.6812,-6.6812,-6.6846,-6.688,-6.688,-6.6914,-6.8166,-6.9992,-6.8538,-6.9282,-7.0973,-6.8842,-6.891,-7.0094,-6.9451,-7.0128,-7.1312,-7.1312,-7.0872,-7.0432,-7.1109,-7.1345,-7.1379,-7.1312,-7.1312,-7.1312,-7.1312,-7.0263,-6.9147,-6.9113,-6.7963,-6.688,-6.6812,-6.6812,-6.6812,-6.6812,-6.6812,-6.6812,-6.6812,-6.6812,-6.6812,-6.6812,-6.6812,-6.632,-6.5081,-6.3891,-6.2903,-6.2084,-6.1004,-6.0526,-6.1104,-6.1792,-6.248,-6.3139,-6.3707,-6.4635,-6.5981,-6.6071,-6.634,-6.6969,-6.6999,-6.6999,-6.6999,-6.6999,-6.6999,-6.6999,-6.6999,-6.6999,-6.7121,-6.8531,-6.9201,-6.9286,-7.1399,-7.2773,-7.3503,-7.3486,-7.3857,-7.4492,-7.3815,-7.3544,-7.3646,-7.439,-7.51,-7.5811,0.0,0.0,0.0,0.0,0.0,0.0,0.0,0.0,0.0,0.0,0.0,0.0,0.0,0.0,0.0,0.0,0.0,0.0,-6.0742,-6.0412,-6.0355,-6.0427,-6.0994,-6.1637,-6.2381,-6.3328,-6.4072,-6.4613,-6.5527,-6.6271,-6.6812,-6.6812,-6.6812,-6.6846,-6.7387,-6.7624,-6.7658,-6.8267,-6.8842,-6.935,-6.8944,-6.9147,-6.9654,-6.962,-6.9857,-7.0229,-7.0601,-7.1007,-7.1312,-7.1312,-7.1548,-7.1785,-7.1413,-7.1684,-7.2022,-7.1481,-7.1312,-7.1312,-7.1312,-7.0635,-6.9789,-6.9248,-6.8368,-6.7489,-6.6948,-6.6812,-6.6812,-6.6812,-6.6812,-6.6812,-6.6812,-6.6812,-6.6812,-6.6812,-6.6812,-6.632,-6.5081,-6.5089,-6.4416,-6.2219,-6.2117,-6.2195,-6.1875,-6.2869,-6.3797,-6.4485,-6.4665,-6.5353,-6.667,-6.6759,-6.6819,-6.6999,-6.6999,-6.6999,-6.6999,-6.6999,-6.6999,-6.6999,-6.6999,-6.6999,-6.7121,-6.8531,-6.9201,-6.9286,-7.0977,-7.2079,-7.2676,-7.2647,-7.3131,-7.3815,-7.4187,-7.4322,-7.4424,-7.5134,-7.554,-7.5811,0.0,0.0,0.0,0.0,0.0,0.0,0.0,0.0,0.0,0.0,0.0,0.0,0.0,0.0,0.0,0.0,0.0,0.0,0.0,-5.9795,-5.9873,-6.0122,-6.052,-6.1264,-6.2381,-6.3125,-6.4038,-6.5087,-6.5493,-6.6237,-6.7286,-6.6948,-6.6981,-6.732,-6.7726,-6.8098,-6.847,-6.891,-6.9654,0.0,0.0,-7.0161,-7.1007,-7.077,-7.0669,-7.0737,-7.1176,-7.0906,-7.0432,-7.1109,-7.1142,-7.0939,-7.0838,-7.1312,-7.1853,-7.1447,-7.1312,-7.1312,-7.1312,-7.0534,-6.962,-6.9214,-6.8267,-6.732,-6.6914,-6.6812,-6.6812,-6.6812,-6.6812,-6.6812,-6.6812,-6.6812,-6.6812,-6.6812,-6.6812,-6.6525,-6.5855,-6.5832,-6.531,-6.3444,-6.3381,-6.3285,-6.2924,-6.3857,-6.4725,-6.5413,-6.5712,-6.6221,-6.6939,-6.6999,-6.6999,-6.6999,-6.6999,-6.6849,-6.655,-6.6281,-6.6131,-6.6131,-6.6131,-6.6131,-6.6131,-6.7948,-6.8767,-6.8851,-7.0908,-7.2255,-7.2907,-7.321,-7.3793,-7.4492,-7.4931,-7.51,-7.5134,-7.554,-7.5709,-7.5811,0.0,0.0,0.0,0.0,0.0,0.0,0.0,0.0,0.0,-5.6842,-5.6871,-5.7439,-5.8994,-5.9188,0.0,0.0,0.0,0.0,0.0,0.0,-5.9251,-5.9877,-6.0047,-6.0791,-6.2212,-6.299,-6.4038,-6.5392,-6.5392,-6.6102,-6.7455,-6.6914,-6.7049,-6.776,-6.7963,-6.8504,-6.9248,-6.935,-7.05,-7.2124,-7.0872,-7.1481,-7.3071,0.0,-7.1312,-7.1312,-7.1312,-7.0364,-6.9316,-7.0804,-7.0331,-6.9248,-7.006,-7.077,-7.1312,-7.1312,-7.1312,-7.1312,-7.1312,-7.0297,-6.9214,-6.9113,-6.803,-6.6948,-6.6846,-6.6812,-6.6812,-6.6812,-6.6812,-6.6812,-6.6812,-6.6812,-6.6812,-6.6812,-6.6812,-6.6762,-6.666,-6.6357,-6.5792,-6.4885,-6.4487,-6.4193,-6.3974,-6.4635,-6.5293,-6.5951,-6.661,-6.6999,-6.6999,-6.6999,-6.6939,-6.6879,-6.6759,-6.646,-6.5892,-6.5323,-6.5024,-6.5024,-6.5024,-6.5084,-6.5173,-6.7273,-6.8355,-6.8757,-7.1415,-7.3074,-7.3939,-7.4489,-7.5134,-7.5709,-7.5709,-7.5709,-7.5709,-7.5709,-7.5709,-7.5811,0.0,0.0,0.0,0.0,0.0,0.0,0.0,0.0,0.0,0.0,-5.7148,-5.7363,0.0,0.0,0.0,0.0,0.0,0.0,0.0,0.0,0.0,-5.9167,-5.9776,-6.0554,-6.1467,-6.2212,-6.3024,-6.3903,-6.3903,-6.4343,-6.5189,-6.5662,-6.6271,-6.7049,-6.8335,-6.9316,-7.0026,-7.0669,-7.1142,-7.1481,-7.121,-7.1345,-7.165,-7.1413,0.0,0.0,-7.1312,-7.0364,-6.9316,-7.0804,-7.0331,-6.935,-7.0703,-7.121,-7.1312,-7.1312,-7.1312,-7.1312,-7.1312,-7.0669,-6.9857,-6.9248,-6.8402,-6.7557,-6.6948,-6.6812,-6.6812,-6.6812,-6.6812,-6.6812,-6.6812,-6.6812,-6.6812,-6.6812,-6.6812,-6.6641,-6.6178,-6.6509,-6.6128,-6.4413,-6.4599,-6.4715,-6.4034,-6.4635,-6.5293,-6.5951,-6.661,-6.6999,-6.6999,-6.6999,-6.6759,-6.6191,-6.5652,-6.5323,-6.5203,-6.5084,-6.5024,-6.5024,-6.5024,-6.5323,-6.5832,-6.7488,-6.9139,-7.09,-7.2613,-7.4173,-7.5354,-7.5445,-7.5574,-7.5709,-7.5709,-7.5709,-7.5709,-7.5709,-7.5709,-7.5709,0.0,0.0,0.0,0.0,0.0,0.0,0.0,-5.7881,-5.7881,-5.7881,-5.7577,-5.762,-5.839,-5.8494,-5.8633,0.0,0.0,0.0,0.0,0.0,0.0,-5.8998,-5.9708,-6.0486,-6.1298,-6.2009,-6.2956,-6.4072,0.0,-6.4072,-6.5155,-6.5121,-6.5933,-6.7421,-6.8166,-6.9316,-7.0804,-7.1142,-7.1312,-7.1312,-7.1312,-7.1312,-7.1312,-7.1312,0.0,0.0,-7.1312,-7.0094,-6.8774,-7.0669,-7.006,-6.8808,-7.0703,-7.1312,-7.1312,-7.1312,-7.1312,-7.1312,-7.1312,-7.077,-6.9992,-6.9282,-6.8504,-6.7692,-6.6981,-6.6812,-6.6812,-6.6812,-6.6812,-6.6812,-6.6812,-6.6812,-6.6812,-6.6812,-6.6812,-6.688,-6.6945,-6.7591,-6.7339,-6.533,-6.5712,-6.5577,-6.415,-6.4635,-6.5293,-6.5951,-6.661,-6.6999,-6.6999,-6.667,-6.6191,-6.5533,-6.4844,-6.4485,-6.4485,-6.4186,-6.4006,-6.4006,-6.4336,-6.4665,-6.4964,-6.7212,-6.9238,-7.0952,-7.2854,-7.4406,-7.5709,-7.5709,-7.5709,-7.5709,-7.5709,-7.5709,-7.5709,-7.5709,-7.5709,-7.5709,0.0,0.0,0.0,0.0,0.0,0.0,0.0,-5.778,-5.7881,-5.7881,-5.7881,-5.7881,-5.7881,-5.7881,-5.7881,0.0,0.0,0.0,0.0,0.0,0.0,0.0,-5.9708,-6.0486,-6.1298,0.0,0.0,-6.414,-6.3565,0.0,0.0,0.0,0.0,0.0,-6.759,-6.8944,-7.1075,-7.1075,-7.1176,0.0,0.0,-7.1312,-7.1312,0.0,0.0,0.0,0.0,-7.006,-6.8673,-7.0635,-6.9992,-6.8741,-7.0703,-7.1312,-7.1312,-7.1312,-7.1312,-7.1312,-7.1312,-7.077,-6.9992,-6.9282,-6.8504,-6.7692,-6.6981,-6.6812,-6.6812,-6.6812,-6.6812,-6.6812,-6.6812,-6.6812,-6.6812,-6.6812,-6.6812,-6.7117,-6.803,-6.8707,-6.8426,-6.657,-6.6844,-6.6362,-6.4477,-6.4695,-6.5353,-6.6161,-6.658,-6.6789,-6.6789,-6.6011,-6.5353,-6.4814,-6.4156,-6.3797,-6.3797,-6.3318,-6.3139,-6.3288,-6.3767,-6.4156,-6.4455,-6.6711,-6.8776,-7.0695,-7.2444,-7.4106,-7.5709,-7.5709,-7.5709,-7.5709,-7.5709,-7.5709,-7.5709,-7.5709,-7.5709,-7.5709,0.0,0.0,0.0,0.0,0.0,0.0,0.0,-5.7476,-5.7881,-5.7881,-5.7881,-5.7881,-5.7881,-5.7881,-5.7881,0.0,0.0,0.0,0.0,0.0,0.0,0.0,0.0,0.0,0.0,0.0,0.0,-6.2584,-6.2516,0.0,0.0,0.0,0.0,0.0,0.0,-6.8166,-7.0297,-7.0297,0.0,0.0,0.0,0.0,0.0,0.0,0.0,0.0,0.0,-7.0737,-7.0094,-7.1007,-7.0737,-7.0128,-7.1041,-7.1312,-7.1312,-7.1312,-7.1312,-7.1312,-7.1312,-7.077,-6.9992,-6.9282,-6.8504,-6.7692,-6.6981,-6.6812,-6.6812,-6.6812,-6.6812,-6.6812,-6.6812,-6.6812,-6.6812,-6.6812,-6.6812,-6.732,-6.8774,-6.9045,-6.8593,-6.7245,-6.7132,-6.6551,-6.5021,-6.4994,-6.5533,-6.6819,-6.64,-6.6101,-6.6101,-6.4874,-6.4156,-6.4096,-6.3498,-6.3169,-6.3169,-6.3109,-6.3348,-6.3917,-6.3977,-6.4635,-6.5832,-6.6042,-6.8089,-7.1292,-7.1497,-7.3121,-7.5709,-7.5709,-7.5709,-7.5709,-7.5709,-7.5709,-7.5709,-7.5709,-7.5709,-7.5811,0.0,0.0,0.0,0.0,0.0,0.0,-5.734,-5.7712,-5.7881,-5.7881,-5.7881,-5.7881,-5.7881,-5.7881,-5.7881,-5.7881,0.0,0.0,0.0,0.0,0.0,0.0,0.0,0.0,0.0,0.0,-6.2381,-6.2381,-6.2381,0.0,0.0,0.0,0.0,0.0,0.0,-6.7658,-7.0195,-7.0195,0.0,0.0,0.0,0.0,0.0,0.0,0.0,0.0,0.0,0.0,-7.0297,-7.1075,-7.0804,-7.0331,-7.1075,-7.1312,-7.1312,-7.1312,-7.1312,-7.1312,-7.1312,-7.1109,-7.0703,-6.9958,-6.918,-6.8436,-6.7658,-6.7117,-6.6812,-6.6812,-6.6812,-6.6812,-6.6812,-6.6812,-6.6812,-6.6812,-6.6812,-6.7354,-6.8876,-6.9113,-6.8627,-6.731,-6.758,-6.6897,-6.4571,-6.5144,-6.5832,-6.637,-6.5802,-6.5233,-6.4814,-6.4306,-6.3827,-6.3468,-6.3199,-6.3258,-6.3617,-6.3617,-6.3947,-6.4635,-6.5024,-6.5473,-6.6011,-6.643,-6.8403,-7.1388,-7.1388,-7.3018,-7.5709,-7.5709,-7.5709,-7.5709,-7.5709,-7.5709,-7.5709,-7.5709,-7.6014,-7.6454,0.0,0.0,0.0,0.0,0.0,-5.6968,-5.7476,-5.7746,-5.7881,-5.7881,-5.7881,-5.7881,-5.7881,-5.7881,-5.7983,-5.8186,-5.8017,0.0,0.0,0.0,0.0,0.0,0.0,0.0,0.0,0.0,-6.2381,-6.2381,-6.2381,-6.2381,0.0,0.0,-6.3463,-6.5358,0.0,0.0,0.0,0.0,0.0,0.0,0.0,0.0,0.0,0.0,0.0,0.0,0.0,0.0,0.0,0.0,0.0,-7.0297,-7.0804,-7.1142,-7.1312,-7.1312,-7.1312,-7.1312,-7.1312,-7.1312,-7.1142,-7.0364,-6.9654,-6.8876,-6.8098,-6.7354,-6.6812,-6.6812,-6.6812,-6.6812,-6.6812,-6.6812,-6.6812,-6.6812,-6.6812,-6.7354,-6.8876,-6.9113,-6.8818,-6.8204,-6.8549,-6.7885,-6.5505,-6.5832,-6.6131,-6.5742,-6.5473,-6.4934,-6.4036,-6.4186,-6.3917,-6.3109,-6.3258,-6.3558,-6.4006,-6.4216,-6.4635,-6.5323,-6.5772,-6.6101,-6.6311,-6.6789,-6.8649,-7.1388,-7.1388,-7.3018,-7.5709,-7.5709,-7.5709,-7.5709,-7.5709,-7.5709,-7.5709,-7.5709,-7.6217,-7.6927,0.0,0.0,0.0,0.0,0.0,0.0,-5.6799,-5.7408,-5.7881,-5.7881,-5.7881,-5.7881,-5.7881,-5.7881,-5.8186,-5.893,-5.8321,0.0,0.0,0.0,0.0,0.0,0.0,0.0,0.0,0.0,-6.2381,-6.2381,-6.2381,-6.2381,-6.2381,-6.2381,-6.3193,-6.4647,0.0,0.0,0.0,0.0,0.0,0.0,0.0,0.0,-7.1312,0.0,0.0,0.0,0.0,0.0,0.0,0.0,0.0,0.0,0.0,-7.0703,-7.1312,-7.1312,-7.1312,-7.1312,-7.1312,-7.1312,-7.1142,-7.0364,-6.9654,-6.8876,-6.8098,-6.7354,-6.6812,-6.6812,-6.6812,-6.6812,-6.6812,-6.6812,-6.6812,-6.6812,-6.6812,-6.7354,-6.8876,-6.9113,-6.9413,-7.0202,-7.0239,-6.9696,-6.8251,-6.7484,-6.643,-6.5144,-6.5622,-6.5413,-6.4066,-6.4635,-6.4425,-6.3109,-6.3677,-6.3977,-6.4006,-6.4665,-6.5353,-6.6011,-6.6011,-6.634,-6.6969,-6.6999,-6.8649,-7.1388,-7.1388,-7.3018,-7.5709,-7.5709,-7.5709,-7.5709,-7.5709,-7.5709,-7.5709,-7.5709,-7.6217,-7.6995,0.0,0.0,0.0,0.0,0.0,0.0,0.0,-5.7746,-5.7881,-5.7881,-5.7881,-5.7881,-5.7881,-5.8355,-5.8761,-5.8998,-5.8795,0.0,0.0,0.0,0.0,0.0,0.0,0.0,0.0,0.0,-6.2381,-6.2381,-6.2888,-6.2888,-6.2415,-6.3429,-6.441,-6.5358,-6.6136,-6.7726,0.0,0.0,0.0,0.0,0.0,-7.1312,-7.1312,0.0,0.0,0.0,0.0,0.0,0.0,0.0,0.0,0.0,0.0,0.0,0.0,-7.1176,-7.1312,-7.1312,-7.1312,-7.1312,-7.1244,-7.1007,-7.0026,-6.9045,-6.8774,-6.7726,-6.6812,-6.6812,-6.6812,-6.6812,-6.6812,-6.6812,-6.6812,-6.6812,-6.6812,-6.7354,-6.8876,-6.8272,-6.7796,-6.8136,-6.7288,-6.6805,-6.7304,-6.7215,-6.664,-6.5772,-6.5892,-6.5622,-6.4755,-6.4904,-6.4844,-6.4425,-6.4605,-6.4904,-6.5353,-6.5592,-6.6041,-6.667,-6.667,-6.6789,-6.6999,-6.6999,-6.8649,-7.1388,-7.1388,-7.3018,-7.5709,-7.5709,-7.5709,-7.5709,-7.5709,-7.5709,-7.5777,-7.6318,-7.6995,-7.7739,0.0,0.0,0.0,0.0,0.0,0.0,0.0,-5.7881,-5.7881,-5.7881,-5.7881,-5.8017,-5.8287,-5.8727,-5.9235,-5.9844,-5.9877,0.0,0.0,0.0,0.0,0.0,0.0,0.0,0.0,-6.2381,-6.2516,-6.2821,-6.3565,-6.37,-6.326,-6.4749,-6.5696,-6.617,-6.7218,-6.8605,0.0,0.0,0.0,0.0,-7.0703,-7.0635,-7.0872,0.0,0.0,0.0,0.0,0.0,0.0,0.0,0.0,0.0,0.0,0.0,0.0,0.0,-7.0872,-7.0939,-7.1244,-7.1312,-7.1312,-7.1312,-7.0195,-6.9113,-6.9113,-6.7929,-6.6812,-6.6812,-6.6812,-6.6812,-6.6812,-6.6812,-6.6812,-6.6812,-6.7049,-6.7658,-6.891,-6.8596,-6.8319,-6.8691,-6.7509,-6.7059,-6.8152,-6.7486,-6.6819,-6.64,-6.637,-6.6101,-6.5443,-6.5622,-6.5772,-6.5772,-6.5533,-6.5592,-6.6011,-6.6251,-6.658,-6.6999,-6.6999,-6.6999,-6.6999,-6.6999,-6.8325,-7.0648,-7.1169,-7.2704,0.0,-7.5484,-7.5709,-7.5709,-7.5709,-7.5879,-7.6217,-7.6724,-7.7536,-7.8483,0.0,0.0,0.0,0.0,0.0,0.0,0.0,-5.7881,-5.7881,-5.7881,-5.7881,-5.8186,-5.893,-5.9066,-5.9674,-6.1163,0.0,0.0,0.0,0.0,0.0,0.0,0.0,0.0,-6.2381,-6.2448,-6.2821,-6.3531,-6.4309,-6.4681,-6.4715,-6.6136,-6.688,-6.7049,-6.847,-6.9553,0.0,0.0,0.0,0.0,-6.9755,-6.9586,0.0,0.0,0.0,0.0,0.0,0.0,0.0,0.0,0.0,0.0,0.0,0.0,0.0,0.0,0.0,0.0,0.0,-7.1278,-7.1312,-7.1244,-7.0195,-6.9147,-6.9045,-6.7929,0.0,-6.6812,-6.6812,-6.6812,-6.6812,-6.6812,-6.6812,-6.6812,-6.7421,-6.8166,-6.8977,-6.9667,-7.0373,-7.1095,-6.9981,-6.9449,-7.0224,-6.8334,-6.7059,-6.7059,-6.7029,-6.6729,-6.6101,-6.667,-6.6999,-6.6999,-6.64,-6.6071,-6.6071,-6.67,-6.6999,-6.6999,-6.6999,-6.6999,-6.6999,-6.6999,-6.7759,-6.9317,-7.0648,-7.2143,-7.3668,-7.5064,-7.558,-7.5709,-7.5709,-7.6183,-7.6893,-7.6961,-7.7874,-7.9126,0.0,0.0,0.0,0.0,0.0,0.0,0.0,0.0,0.0,0.0,-5.7881,-5.8186,-5.893,-5.9505,-6.025,0.0,0.0,0.0,0.0,0.0,0.0,0.0,0.0,0.0,-6.2381,-6.2956,-6.3328,-6.3531,-6.4783,-6.5425,-6.5459,-6.6373,-6.7455,-6.8571,-6.8944,-6.9823,0.0,0.0,0.0,0.0,-7.0297,-7.0026,0.0,0.0,0.0,0.0,-6.8368,-6.7963,0.0,0.0,0.0,0.0,0.0,0.0,0.0,0.0,-6.9755,-7.0229,-7.0398,0.0,-7.1176,-7.0601,-7.0195,-6.962,0.0,-6.7895,-6.7489,-6.6914,-6.6812,-6.6812,-6.6812,-6.6812,-6.6812,-6.6812,-6.7421,-6.8166,-6.8977,-6.9286,-6.9777,-7.0558,-6.9304,-6.9108,-7.0844,-6.9032,-6.7747,-6.7747,-6.7268,-6.6909,-6.6759,-6.6909,-6.6999,-6.6999,-6.6849,-6.6759,-6.6759,-6.6909,-6.6999,-6.6999,-6.6999,-6.6999,-6.6999,-6.6999,-6.7759,-6.9201,-6.9516,-7.1169,-7.3668,-7.3972,-7.4736,-7.5709,-7.5709,-7.6183,-7.6961,-7.7536,-7.8314,-7.9194,0.0,0.0,0.0,0.0,0.0,0.0,0.0,0.0,0.0,0.0,0.0,-5.8287,-5.9404,-5.9877,0.0,0.0,0.0,0.0,0.0,0.0,0.0,0.0,0.0,-6.255,-6.2888,-6.3294,-6.3835,-6.4512,-6.5662,-6.6203,-6.6237,-6.7354,-6.8301,-6.9147,-6.9823,-7.0364,0.0,0.0,0.0,-7.0229,-6.9451,0.0,0.0,0.0,0.0,0.0,-6.7793,-6.7421,0.0,-6.6812,-6.6812,-6.688,0.0,0.0,0.0,0.0,-6.8842,-6.9282,-6.9992,-7.0737,-7.121,-7.0804,-7.0195,-6.9553,-6.9079,-6.8132,-6.7387,-6.732,-6.7049,-6.6812,-6.6812,-6.6812,-6.6914,-6.7252,-6.7963,-6.8842,-6.9958,-7.0409,-7.0597,-7.0279,-6.9898,-6.9716,-7.0251,-6.8937,-6.7956,-6.7956,-6.7358,-6.6999,-6.6999,-6.6999,-6.6999,-6.6999,-6.6999,-6.6999,-6.6999,-6.6999,-6.6999,-6.6999,-6.6999,-6.6999,-6.6999,-6.6999,-6.7427,-6.8206,-6.8883,-7.0504,-7.2704,-7.3361,-7.4439,-7.5743,-7.6115,-7.6724,-7.7502,-7.8213,-7.8957,-7.9667,0.0,0.0,0.0,0.0,0.0,0.0,0.0,0.0,0.0,0.0,0.0,0.0,0.0,0.0,0.0,0.0,0.0,0.0,0.0,0.0,0.0,0.0,0.0,-6.2753,-6.3497,-6.3632,-6.4343,-6.5696,-6.644,-6.6948,-6.7184,-6.8267,-6.8876,-6.9147,-7.0534,-7.077,0.0,0.0,-6.9654,-6.9045,-6.8233,0.0,0.0,0.0,0.0,0.0,0.0,0.0,0.0,-6.6812,-6.6812,-6.6812,-6.6812,0.0,0.0,0.0,0.0,0.0,-6.962,-7.0567,-7.1142,-7.1142,-7.0195,-6.9383,-6.9755,-6.8436,-6.7286,-6.7793,-6.7421,-6.7015,-6.7151,-6.7049,-6.7218,-6.7963,-6.8741,-6.9789,-7.1278,-7.1908,-7.1873,-7.091,-7.1111,-7.0828,-6.9597,-6.865,-6.8076,-6.7986,-6.7358,-6.6999,-6.6999,-6.6999,-6.6999,-6.6999,-6.6999,-6.6999,-6.6999,-6.6999,-6.6999,-6.6999,-6.6999,-6.6999,-6.6999,-6.6999,-6.6999,-6.7091,-6.8325,-6.9859,-7.1529,-7.2737,-7.4306,-7.5946,-7.6623,-7.7401,-7.8247,-7.8889,-7.9566,-8.0209,0.0,0.0,0.0,0.0,0.0,0.0,0.0,0.0,0.0,0.0,0.0,0.0,0.0,0.0,0.0,0.0,0.0,0.0,0.0,0.0,0.0,-6.2381,-6.2381,-6.2753,-6.3497,-6.4106,-6.485,-6.5696,-6.644,-6.7489,-6.8741,-6.7658,-6.7861,-6.9147,-6.9992,-7.0297,-7.0161,-6.9519,-6.9214,-6.9045,-6.8233,0.0,0.0,0.0,0.0,0.0,0.0,0.0,0.0,-6.6812,-6.6812,-6.6812,-6.6812,0.0,0.0,0.0,0.0,0.0,-6.9011,-6.9789,-7.0364,-7.0364,-7.0195,-6.9722,-6.8504,-6.8504,-6.8605,-6.803,-6.7793,-6.7929,-6.8639,-6.8199,-6.7996,-6.8808,-6.9553,-7.0534,-7.2022,-7.1775,-7.1981,-7.3613,-7.2217,-7.1224,-7.1689,-7.0031,-6.8585,-6.8016,-6.7358,-6.6999,-6.6999,-6.6999,-6.6999,-6.6999,-6.6999,-6.6999,-6.6999,-6.6999,-6.6999,-6.6999,-6.6999,-6.6999,-6.6999,-6.6999,-6.6999,-6.6999,-6.7213,-6.8883,-7.142,-7.1637,-7.3722,-7.6724,-7.686,-7.7739,-7.8957,-7.9058,-7.9566,-8.0209,0.0,0.0,0.0,0.0,0.0,0.0,0.0,0.0,0.0,0.0,0.0,0.0,0.0,0.0,0.0,0.0,0.0,0.0,0.0,0.0,0.0,-6.2381,-6.2381,-6.2922,-6.4072,-6.4444,-6.5358,-6.688,-6.7218,-6.7996,-6.9079,-6.8774,-6.8571,-6.8504,-6.9688,-6.9722,-6.8944,-6.9045,-6.8639,-6.7861,0.0,0.0,0.0,0.0,0.0,0.0,0.0,0.0,0.0,0.0,-6.5865,-6.6203,-6.6203,0.0,0.0,0.0,0.0,0.0,-6.8774,-6.9011,-6.9248,-7.05,-7.05,-7.0094,-6.9823,-6.9079,-6.847,-6.8538,-6.7895,-6.7692,-6.8876,-6.8808,-6.8944,-7.0094,-7.0567,-7.1312,-7.28,-7.3318,-7.3974,-7.5016,-7.4173,-7.3069,-7.1862,-7.0095,-6.8555,-6.7508,-6.7148,-6.6999,-6.6999,-6.6999,-6.6999,-6.6999,-6.6999,-6.6999,-6.6999,-6.6999,-6.6999,-6.6999,-6.6999,-6.6999,-6.6999,-6.6999,-6.6999,-6.6999,-6.6999,-6.8649,-7.1388,-7.1388,-7.358,-7.6927,-7.7333,-7.8145,-7.916,-7.9566,-7.9904,-8.0209,0.0,0.0,0.0,0.0,0.0,0.0,0.0,0.0,0.0,0.0,0.0,0.0,0.0,0.0,0.0,0.0,0.0,0.0,0.0,0.0,-6.2381,-6.2381,-6.2381,-6.299,-6.4309,-6.4681,-6.5764,-6.7658,-6.7996,-6.8504,-6.9113,-7.0026,-6.9722,-6.8504,-6.9857,-6.962,-6.8233,-6.8842,-6.8233,-6.6846,0.0,0.0,0.0,0.0,0.0,0.0,0.0,0.0,0.0,0.0,0.0,0.0,0.0,0.0,0.0,-6.6812,-6.6948,-6.7354,-6.8741,-6.8774,-6.891,-7.0838,-7.0635,-7.0128,-7.0872,-6.9688,-6.8571,-6.9011,-6.8301,-6.7963,-6.9147,-6.9485,-6.9992,-7.1142,-7.1616,-7.2259,-7.3578,-7.4849,-7.5739,-7.5944,-7.5378,-7.4107,-7.149,-6.9913,-6.8435,-6.7089,-6.6999,-6.6999,-6.6999,-6.6999,-6.6999,-6.6999,-6.6999,-6.6999,-6.6999,-6.6999,-6.6999,-6.6999,-6.6999,-6.6999,-6.6999,-6.6999,-6.6999,-6.6999,-6.7335,-6.8969,-7.142,-7.1906,-7.4154,-7.7232,-7.7976,-7.872,-7.9431,-8.0006,-8.0209,-8.0209,0.0,0.0,0.0,0.0,0.0,0.0,0.0,0.0,0.0,0.0,0.0,0.0,0.0,0.0,0.0,0.0,0.0,0.0,0.0,0.0,-6.2381,-6.2381,-6.2381,-6.2753,-6.3565,-6.4918,-6.6034,-6.688,-6.8301,-6.9045,-6.9147,-7.0567,-7.0804,-7.006,-7.0872,-7.0398,-6.9011,-6.9079,-6.8233,-6.6745,-6.6102,0.0,0.0,0.0,0.0,0.0,0.0,0.0,0.0,0.0,0.0,0.0,0.0,0.0,-6.6812,-6.6812,-6.7286,-6.7996,-6.8876,-6.9553,-7.0229,-7.1109,-7.0229,-6.9383,-7.0094,-7.0128,-6.9857,-6.9214,-6.9553,-6.9992,-7.0094,-7.0669,-7.121,-7.1312,-7.2462,-7.3612,-7.4424,-7.5206,-7.5977,-7.6663,-7.4754,-7.2825,-7.1371,-6.9913,-6.8435,-6.7089,-6.6999,-6.6999,-6.6999,-6.6999,-6.6999,-6.6999,-6.6999,-6.6999,-6.6999,-6.6999,-6.6999,-6.6999,-6.6999,-6.6999,-6.6999,-6.6999,-6.6999,-6.7091,-6.8444,-6.9973,-7.1561,-7.3632,-7.5803,-7.7976,-7.872,-7.9464,-8.0141,-8.0175,-8.0209,-8.0209,0.0,0.0,0.0,0.0,0.0,0.0,0.0,0.0,0.0,0.0,0.0,0.0,0.0,0.0,0.0,0.0,0.0,0.0,0.0,-6.2381,-6.2381,-6.2381,-6.2381,-6.2516,-6.2821,-6.4715,-6.6542,-6.8233,-6.9755,-7.0229,-6.9789,-7.0838,-7.0669,-6.9519,-6.9823,-6.9113,-6.7658,-6.7184,-6.6373,-6.5425,-6.5121,-6.5019,0.0,0.0,0.0,0.0,0.0,0.0,0.0,0.0,-6.4038,-6.5019,-6.5019,-6.5831,-6.6812,-6.6812,-6.732,-6.8064,-6.8876,-6.9316,-6.9789,-7.1007,-7.0534,-6.9958,-7.0737,-7.0534,-7.0094,-6.9823,-6.9992,-7.0466,-7.1379,-7.2157,-7.2834,-7.3274,-7.3815,-7.4762,-7.6487,-7.6974,-7.7207,-7.7462,-7.5491,-7.3281,-7.1459,-6.9518,-6.7986,-6.7059,-6.6999,-6.6999,-6.6999,-6.6999,-6.6999,-6.6999,-6.6999,-6.6999,-6.6999,-6.6999,-6.6999,-6.6999,-6.6999,-6.6999,-6.6999,-6.6999,-6.6999,-6.7091,-6.8531,-7.0306,-7.217,-7.3999,-7.6238,-7.8754,-7.9498,-7.9938,-8.0209,-8.0209,-8.0209,-8.0209,0.0,0.0,0.0,0.0,0.0,0.0,0.0,0.0,0.0,0.0,0.0,0.0,0.0,0.0,0.0,0.0,0.0,0.0,-6.2381,-6.2381,-6.2381,-6.2381,-6.2381,-6.2618,-6.3057,-6.4783,-6.6576,-6.8368,-7.0364,-7.1041,-7.0534,-7.0838,-7.0398,-6.9451,-6.9214,-6.8233,-6.6779,-6.6271,-6.5493,-6.458,-6.4343,-6.4241,0.0,0.0,0.0,0.0,0.0,0.0,0.0,0.0,-6.3226,-6.4309,-6.4546,-6.5459,-6.6542,-6.7015,-6.7692,-6.8436,-6.9214,-6.962,-7.006,-7.1075,-7.0939,-7.0737,-7.1481,-7.1244,-7.0804,-7.0601,-7.0737,-7.1278,-7.2529,-7.3341,-7.4018,-7.4525,-7.5202,-7.6217,-7.7773,-7.8382,-7.8724,-7.8564,-7.621,-7.3926,-7.2221,-6.961,-6.7687,-6.7029,-6.6999,-6.6999,-6.6999,-6.6999,-6.6999,-6.6999,-6.6999,-6.6999,-6.6999,-6.6999,-6.6999,-6.6999,-6.6999,-6.6999,-6.6999,-6.6999,-6.6999,-6.7121,-6.9302,-7.1105,-7.2696,-7.5147,-7.7413,-7.9498,-8.0006,-8.0209,-8.0209,-8.0209,-8.0209,-8.0209,0.0,0.0,0.0,0.0,0.0,0.0,0.0,0.0,0.0,0.0,0.0,0.0,0.0,0.0,0.0,0.0,0.0,0.0,-6.2381,-6.2381,-6.2381,-6.2381,-6.2381,-6.3057,-6.4546,-6.5324,-6.6068,-6.6846,-6.9823,-7.1278,-7.1278,-7.0534,-7.0161,-7.0161,-6.9417,-6.8233,-6.6812,-6.6779,-6.5933,-6.4512,-6.3802,-6.3531,-6.3429,0.0,0.0,0.0,0.0,0.0,0.0,0.0,-6.2888,-6.3632,-6.4377,-6.5121,-6.5967,-6.7455,-6.847,-6.9248,-6.9992,-7.0737,-7.1312,-7.1312,-7.1312,-7.1515,-7.2225,-7.2394,-7.2191,-7.1481,-7.1921,-7.2631,-7.3375,-7.4119,-7.4627,-7.4661,-7.6521,-7.801,-7.801,-7.9261,-8.0209,-8.0209,-7.6899,-7.4235,-7.3676,-7.0151,-6.7687,-6.7029,-6.6999,-6.6999,-6.6999,-6.6999,-6.6999,-6.6999,-6.6999,-6.6999,-6.6999,-6.6999,-6.6999,-6.6999,-6.6999,-6.6999,-6.6999,-6.6999,-6.6999,-6.7274,-7.0891,-7.2554,-7.287,-7.7273,-7.9532,-8.0209,-8.0209,-8.0209,-8.0209,-8.0209,-8.0209,-8.0209,0.0,0.0,0.0,0.0,0.0,0.0,0.0,0.0,0.0,0.0,0.0,0.0,0.0,0.0,0.0,0.0,0.0,0.0,-6.2381,-6.2381,-6.2381,-6.2381,-6.2381,-6.2584,-6.3024,-6.4783,-6.6576,-6.8436,-6.7493,-6.7922,-6.9755,-6.8583,-6.8483,-6.9383,-6.8605,-6.7421,-6.6,-6.5459,-6.441,-6.3057,-6.3396,-6.3193,-6.2753,0.0,0.0,0.0,0.0,0.0,0.0,0.0,0.0,0.0,-6.4377,-6.5121,-6.5865,-6.6846,-6.8064,-6.9147,-6.9383,-7.0364,-7.1312,-7.1312,-7.1312,-7.1515,-7.2225,-7.2394,-7.2631,-7.3477,-7.3375,-7.3544,-7.4796,-7.5236,-7.5743,-7.6826,-7.7976,-7.8957,-7.9464,-7.8986,-7.8238,-7.7082,-7.418,-7.1821,-7.0495,-6.8514,-6.7208,-6.6999,-6.6999,-6.6999,-6.6999,-6.6999,-6.6999,-6.6999,-6.6999,-6.6999,-6.6999,-6.6999,-6.6999,-6.6999,-6.6999,-6.6999,-6.6999,-6.6999,-6.7238,-6.7904,-7.1111,-7.3099,-7.4317,-7.8207,-8.0006,-8.0209,-8.0209,-8.0209,-8.0209,-8.0209,-8.0209,-8.0209,0.0,0.0,0.0,0.0,0.0,0.0,0.0,0.0,-6.2381,-6.2381,-6.2381,-6.2381,0.0,0.0,0.0,-6.2381,-6.2381,-6.2381,-6.2381,-6.2381,-6.2381,-6.2381,-6.2381,-6.2651,-6.326,-6.4133,-6.5559,-6.7401,-6.6467,-6.6762,-6.8272,-6.7148,-6.7321,-6.8605,-6.7827,-6.6643,-6.5222,-6.4783,-6.3734,-6.2448,-6.3193,-6.3057,-6.2482,0.0,0.0,0.0,0.0,0.0,0.0,0.0,0.0,0.0,-6.4275,-6.4918,-6.5595,-6.7252,-6.8571,-6.9654,-7.0263,-7.1075,-7.1751,-7.1751,-7.1548,-7.1582,-7.2597,-7.3071,-7.3612,-7.4796,-7.4931,-7.51,-7.6014,-7.6657,-7.7367,-7.828,-7.9058,-7.9701,-8.0141,-7.9392,-7.8139,-7.6359,-7.383,-7.1478,-6.9732,-6.7937,-6.6999,-6.6999,-6.6999,-6.6999,-6.6999,-6.6999,-6.6999,-6.6999,-6.6999,-6.6999,-6.6999,-6.6999,-6.6999,-6.6999,-6.6999,-6.7119,-6.7388,-6.7388,-6.7937,-6.9123,-7.2683,-7.5245,-7.704,-7.9327,-8.0209,-8.0209,-8.0209,-8.0209,-8.0209,-8.0209,-8.0209,-8.0242,0.0,0.0,0.0,0.0,0.0,0.0,0.0,-6.2381,-6.2381,-6.2381,-6.2381,-6.2381,0.0,0.0,0.0,-6.2381,-6.2381,-6.2381,-6.2381,-6.2381,-6.2415,-6.2482,-6.255,-6.3147,-6.4285,-6.348,-6.3479,-6.4381,-6.569,-6.6532,-6.6905,-6.6061,-6.6467,-6.776,-6.7117,-6.6034,-6.4681,-6.4681,-6.3903,-6.2651,-6.3328,-6.3159,-6.255,-6.326,0.0,0.0,0.0,0.0,0.0,0.0,0.0,0.0,-6.4072,-6.4546,-6.5155,-6.7963,-6.9451,-7.0466,-7.1853,-7.2293,-7.2394,-7.2394,-7.1954,-7.1853,-7.3172,-7.4119,-7.4931,-7.5676,-7.6386,-7.6927,-7.7063,-7.8213,-7.9126,-7.9194,-7.9769,-8.0175,-7.9972,-7.9836,-7.8986,-7.6786,-7.4476,-7.242,-7.0255,-6.8273,-6.6999,-6.6999,-6.6999,-6.6999,-6.6999,-6.6999,-6.6999,-6.6999,-6.6999,-6.6999,-6.6999,-6.6999,-6.7029,-6.7089,-6.7089,-6.7418,-6.8046,-6.8235,-6.9154,-7.1111,-7.5157,-7.8203,-8.0209,-8.0209,-8.0209,-8.0209,-8.0209,-8.0209,-8.0209,-8.0209,-8.0242,-8.0412,0.0,0.0,0.0,0.0,0.0,0.0,-6.2381,-6.2381,-6.2381,-6.2381,-6.2381,-6.2381,-6.2381,-6.2381,0.0,-6.2381,-6.2381,-6.2381,-6.2381,-6.2381,-6.2651,-6.326,-6.3835,-6.3617,-6.2528,-6.3219,-6.2523,-6.0359,-6.0635,-6.2336,-6.533,-6.415,-6.4859,-6.7049,-6.688,-6.6305,-6.5459,-6.5459,-6.4952,-6.414,-6.4309,-6.3937,-6.3294,-6.3463,-6.3057,0.0,0.0,0.0,0.0,0.0,0.0,0.0,-6.3463,-6.414,-6.485,-6.6068,-6.8199,-7.0263,-7.0567,-7.1515,-7.2394,-7.2394,-7.2699,-7.3105,-7.3409,-7.4525,-7.5676,-7.6487,-7.6792,-7.7266,-7.8416,-7.8889,-7.9295,-7.987,-8.0107,-7.9734,-7.8591,-7.7303,-7.5781,-7.3611,-7.1319,-6.9639,-6.8605,-6.7604,-6.6999,-6.6999,-6.6999,-6.6999,-6.6999,-6.6999,-6.6999,-6.6999,-6.6999,-6.6999,-6.6999,-6.6999,-6.7238,-6.7747,-6.7747,-6.8136,-6.8764,-6.9427,-7.1887,-7.5582,-7.704,-7.8669,-8.0209,-8.0209,-8.0209,-8.0209,-8.0209,-8.0209,-8.0209,-8.0209,-8.0547,-8.1088,0.0,0.0,0.0,0.0,0.0,0.0,0.0,0.0,-6.3193,-6.2482,-6.2381,-6.2381,-6.2381,-6.2381,0.0,0.0,-6.2381,-6.2381,-6.2381,-6.2381,-6.2719,-6.3497,-6.4546,-6.4385,-6.288,-6.288,-6.1822,-5.9618,-5.8941,-6.0126,-6.3036,-6.2972,-6.4045,-6.5942,-6.6525,-6.6406,-6.5696,-6.5696,-6.5256,-6.4647,-6.4986,-6.4478,-6.3565,-6.3903,-6.3362,-6.2381,-6.2381,0.0,0.0,0.0,0.0,0.0,0.0,0.0,-6.4816,-6.5899,-6.8098,-7.0331,-7.1041,-7.2056,-7.2834,-7.2496,-7.2935,-7.3477,-7.3477,-7.4627,-7.6014,-7.7198,-7.7435,-7.7773,-7.8889,-7.9397,-7.9769,-8.0141,-8.0209,-7.9972,-7.915,-7.8047,-7.619,-7.3222,-7.2181,-7.059,-6.7784,-6.8509,-6.8531,-6.7091,-6.7668,-6.7759,-6.6999,-6.6999,-6.6999,-6.6999,-6.6999,-6.6999,-6.6999,-6.7298,-6.7627,-6.7956,-6.8315,-6.9607,-7.1712,-7.2136,-7.4237,-7.7462,-7.8531,-7.9495,-8.0209,-8.0209,-8.0209,-8.0209,-8.0209,-8.0412,-8.0716,-8.0716,-8.119,-8.1866,0.0,0.0,0.0,0.0,0.0,0.0,0.0,0.0,0.0,-6.255,-6.2381,-6.2381,-6.2381,-6.2381,-6.2381,0.0,0.0,0.0,-6.211,-6.2245,-6.2535,-6.303,-6.4505,-6.47,-6.3349,-6.2201,-6.0987,-5.9756,-5.861,-5.8957,-6.0558,-6.226,-6.3574,-6.4794,-6.6033,-6.6203,-6.5493,-6.5493,-6.5155,-6.4647,-6.5121,-6.458,-6.3599,-6.4174,-6.3666,-6.2618,-6.2719,-6.2753,-6.2753,-6.2618,0.0,0.0,0.0,0.0,-6.485,-6.6068,-6.8132,-7.0297,-7.165,-7.2631,-7.3138,-7.2563,-7.2935,-7.3477,-7.3477,-7.4627,-7.6149,-7.7671,-7.7976,-7.8247,-7.9126,-7.9803,-8.0209,-8.0209,-8.0209,-8.004,-7.9668,-7.9027,-7.7404,-7.3849,-7.3923,-7.2594,-6.8148,-6.9973,-7.0312,-6.7548,-6.8531,-6.8531,-6.7091,-6.6999,-6.6999,-6.6999,-6.6999,-6.7059,-6.7148,-6.7687,-6.8076,-6.8315,-6.9226,-7.1566,-7.4829,-7.5056,-7.6275,-7.8345,-7.9632,-8.0209,-8.0209,-8.0209,-8.0209,-8.0209,-8.0344,-8.075,-8.1291,-8.1426,-8.1968,-8.2678,0.0,0.0,0.0,0.0,0.0,0.0,0.0,0.0,0.0,0.0,-6.2381,-6.2381,-6.2381,-6.2381,-6.2381,-6.2381,-6.2381,-6.1951,-6.0953,0.0,0.0,-6.1251,-6.2998,-6.3231,-6.144,-6.0709,-5.9655,-5.8429,-5.8218,-5.8248,-5.855,-6.1545,-6.3347,-6.3979,-6.5261,-6.5425,-6.4749,-6.4749,-6.4681,-6.4546,-6.4005,-6.37,-6.3531,-6.3632,-6.3531,-6.3463,-6.4072,-6.4309,-6.4208,-6.3565,-6.3362,0.0,0.0,0.0,-6.4647,-6.485,-6.6948,-6.9417,-7.0263,-7.1481,-7.2529,-7.2428,-7.2935,-7.3477,-7.3477,-7.4627,-7.6149,-7.7671,-7.7976,-7.8416,-7.9803,-8.0141,-8.0209,-8.0209,-8.0209,-7.9532,-7.7517,-7.7139,-7.5981,-7.2953,-7.2618,-7.2156,-7.0933,-7.1201,-7.0759,-6.8969,-6.9085,-6.8531,-6.7091,-6.6999,-6.6999,-6.6999,-6.6999,-6.7268,-6.7837,-6.7926,-6.8555,-6.9722,-7.178,-7.374,-7.5566,-7.6809,-7.8385,-7.9836,-8.0074,-8.0209,-8.0209,-8.0209,-8.0209,-8.0242,-8.0885,-8.119,-8.1359,-8.2035,-8.2712,-8.3355,0.0,0.0,0.0,0.0,0.0,0.0,0.0,0.0,0.0,0.0,0.0,-6.0417,-6.0417,-6.0417,-6.0417,-6.0417,-6.0417,-6.0161,-5.961,-6.0258,-6.0793,-6.086,-6.1736,-6.182,-6.0958,-5.9997,-5.9083,-5.8112,-5.7723,-5.7543,-5.7543,-5.978,-6.1472,-6.2755,-6.3682,-6.4237,-6.4613,-6.4613,-6.4613,-6.458,-6.4241,-6.4377,-6.4681,-6.4275,-6.4377,-6.4715,-6.4647,-6.4613,-6.4546,-6.4241,-6.414,-6.4072,-6.3734,0.0,0.0,0.0,-6.6745,-6.8876,-7.0872,-7.1921,-7.2496,-7.2902,-7.2935,-7.2969,-7.3409,-7.4322,-7.554,-7.7063,-7.7705,-7.845,-7.9938,-8.0209,-8.0209,-8.0209,-8.0209,-7.9702,-7.8317,-7.7712,-7.6498,-7.4016,-7.4051,-7.3482,-7.1529,-7.2914,-7.2881,-7.0616,-7.0392,-6.9745,-6.8325,-6.7427,-6.7148,-6.7537,-6.7537,-6.7867,-6.8525,-6.8914,-7.0049,-7.1808,-7.2799,-7.4557,-7.6971,-7.7555,-7.8697,-8.0209,-8.0209,-8.0209,-8.0242,-8.0648,-8.0818,-8.0885,-8.1629,-8.2171,-8.2577,-8.2915,-8.349,-8.4133,0.0,0.0,0.0,0.0,0.0,0.0,0.0,0.0,0.0,0.0,0.0,-5.8812,-5.8812,0.0,0.0,0.0,-5.8908,-5.8696,-5.8614,-5.9249,-5.9695,-5.9664,-6.0202,-6.0229,-5.9737,-5.8815,-5.8004,-5.7363,-5.7034,-5.6765,-5.6615,-5.7831,-5.9234,-6.09,-6.2044,-6.3015,-6.3768,-6.3971,-6.4038,-6.4072,-6.4084,-6.4638,-6.5392,-6.506,-6.548,-6.617,-6.5628,-6.5425,-6.5392,-6.5019,-6.4884,-6.485,-6.4647,-6.5121,0.0,0.0,0.0,-6.847,-7.1109,-7.1853,-7.209,-7.3206,-7.2935,-7.2631,-7.3578,-7.4221,-7.5067,-7.6589,-7.7333,-7.8145,-7.9667,-8.0073,-8.0209,-8.0209,-8.0209,-7.987,-7.8957,-7.8348,-7.7275,-7.5238,-7.5399,-7.4835,-7.2672,-7.4073,-7.4073,-7.1605,-7.1059,-7.0199,-6.8766,-6.7699,-6.7478,-6.7956,-6.8136,-6.8555,-6.9243,-6.9901,-7.105,-7.2674,-7.3506,-7.521,-7.7598,-7.8197,-7.9351,-8.075,-8.0378,-8.031,-8.0513,-8.1054,-8.1393,-8.1629,-8.2408,-8.3016,-8.3524,-8.3693,-8.4133,-8.464,0.0,0.0,0.0,0.0,0.0,0.0,0.0,0.0,0.0,0.0,0.0,-5.8812,-5.8812,-5.8812,-5.9068,-5.9649,-5.9196,-5.8554,-5.8018,-5.8572,-5.8232,-5.6534,-5.8101,0.0,-5.6522,-5.6359,-5.6029,-5.5329,-5.5927,-5.5897,-5.5299,-5.6029,-5.698,-5.8332,-6.0712,-6.1683,-6.1535,-6.2212,-6.2516,-6.2539,-6.2595,-6.3482,-6.4686,-6.5548,-6.6612,-6.7793,-6.7726,-6.7726,-6.7523,-6.6102,-6.5628,-6.5493,-6.4816,-6.5121,-6.5696,0.0,0.0,0.0,-6.9857,-7.0297,-7.0804,-7.2969,-7.2935,-7.2766,-7.4221,-7.4593,-7.5067,-7.6589,-7.6927,-7.7401,-7.8889,-7.9735,-8.0209,-8.0209,-8.0209,-7.9701,-7.8247,-7.801,-7.7435,-7.5817,-7.5709,-7.558,-7.5484,-7.4406,-7.3018,-7.1497,-7.0086,-6.8649,-6.7213,-6.7691,-6.7926,-6.7956,-6.8615,-6.9273,-6.9931,-7.056,-7.0859,-7.1018,-7.408,-7.5931,-7.6805,-7.903,-8.0851,-8.2205,-8.0818,-8.0581,-8.1224,-8.1257,-8.1697,-8.2441,-8.3152,-8.3456,-8.3592,-8.4302,-8.4606,-8.464,0.0,0.0,0.0,0.0,0.0,0.0,0.0,0.0,0.0,0.0,0.0,0.0,0.0,-5.7669,-5.7641,-5.7488,-5.7242,-5.7014,-5.6819,-5.6243,-5.5983,-5.6137,-5.6043,-5.6013,-5.6166,-5.5748,-5.5628,-5.5807,-5.5209,-5.4999,-5.5179,-5.4551,-5.4667,-5.5534,-5.8467,-6.0259,-6.095,-6.1929,-6.2651,-6.3113,-6.365,-6.4976,-6.6728,-6.704,-6.7525,-6.8111,-6.8547,0.0,-6.6679,-6.6997,-6.6812,-6.6373,-6.6102,-6.6203,-6.6406,-6.6406,-6.7117,-6.8132,-6.9214,-6.9823,-7.05,-7.1785,-7.1887,-7.1954,-7.2969,-7.3544,-7.4187,-7.5202,-7.6217,-7.7063,-7.7604,-7.8686,-7.9667,-8.0107,-8.0209,-7.9837,-7.8855,-7.872,-7.8314,-7.7299,-7.5972,-7.5472,-7.6357,-7.4739,-7.3361,-7.2809,-7.1497,-7.0161,-6.9175,-6.8393,-6.8375,-6.9243,-6.9512,-6.9931,-7.056,-7.1218,-7.2008,-7.3068,-7.563,-7.7551,-7.8844,-8.0795,-8.19,-8.2374,-8.1832,-8.1765,-8.2035,-8.2509,-8.2847,-8.3186,-8.393,-8.4234,-8.4268,-8.4539,-8.464,-8.464,0.0,0.0,0.0,0.0,0.0,0.0,0.0,0.0,0.0,-5.8185,0.0,0.0,0.0,0.0,-5.6944,-5.6526,-5.6705,-5.6735,-5.6496,-5.5867,-5.5628,-5.5837,-5.5209,-5.5059,-5.5508,-5.5299,-5.5179,-5.5179,-5.4521,-5.4192,-5.4162,-5.3503,-5.3386,-5.3806,-5.6647,-5.8421,-5.9389,-6.0903,-6.2066,-6.2997,-6.3981,-6.5828,-6.7877,-6.8236,-6.866,-6.9277,-6.9726,-6.892,-6.7878,-6.8749,-6.8741,-6.8233,-6.7726,-6.7218,-6.6812,-6.6812,-6.7151,-6.7692,-6.847,-6.9248,-7.006,-7.1075,-7.1312,-7.1582,-7.2529,-7.2935,-7.3409,-7.4424,-7.5405,-7.6284,-7.6792,-7.7705,-7.8686,-7.9667,-8.004,-7.987,-7.8855,-7.8957,-7.8754,-7.7739,-7.5838,-7.5336,-7.6796,-7.4469,-7.2809,-7.2914,-7.1497,-7.0255,-6.9513,-6.8755,-6.9034,-7.056,-7.041,-7.0709,-7.1577,-7.1787,-7.246,-7.3772,-7.6387,-7.8409,-7.9708,-8.1565,-8.2678,-8.3152,-8.2881,-8.278,-8.2813,-8.3287,-8.349,-8.3558,-8.4065,-8.4234,-8.4234,-8.4234,-8.4403,-8.464,0.0,0.0,0.0,0.0,0.0,0.0,0.0,0.0,-5.9849,-5.846,0.0,0.0,0.0,0.0,0.0,-5.7154,-5.7723,-5.7812,-5.7124,-5.7663,-5.7184,-5.5299,-5.5777,-5.5538,-5.4281,-5.482,-5.4491,-5.3174,-5.3803,-5.3473,-5.2217,-5.2845,-5.3144,-5.3271,-5.5095,-5.621,-5.6805,-5.8914,-6.0502,-6.185,-6.3449,-6.5559,-6.794,-6.8837,-7.0016,-7.1165,-7.1165,-7.1165,-7.1131,-7.1255,-7.1222,-7.0918,-6.9519,-6.803,-6.6812,-6.6812,-6.6812,-6.6981,0.0,0.0,0.0,-7.0872,-7.1278,-7.165,-7.3105,-7.2902,-7.28,-7.4255,-7.4593,-7.5067,-7.6555,-7.686,-7.7367,-7.8822,-7.9667,-7.9667,-7.8247,-7.8686,-7.8619,-7.7164,-7.5605,-7.5369,-7.683,-7.358,-7.1388,-7.1388,-7.0086,-6.8956,-6.8081,-6.8704,-6.9961,-7.1816,-7.1278,-7.1577,-7.2894,-7.2265,-7.2265,-7.3057,-7.618,-7.8107,-7.8955,-8.1367,-8.3253,-8.4573,-8.3828,-8.349,-8.349,-8.349,-8.349,-8.3456,-8.3456,-8.349,-8.349,-8.349,-8.3964,-8.464,0.0,0.0,0.0,0.0,0.0,-6.2798,-6.2193,-6.3431,-6.3906,0.0,0.0,0.0,0.0,0.0,-5.7483,-5.8471,-5.7842,-5.7304,-5.7094,-5.5957,-5.5478,-5.5897,-5.5149,-5.482,-5.491,-5.4132,-5.3563,-5.3174,-5.2426,-5.2097,-5.2187,-5.1887,-5.2007,-5.2486,-5.3531,-5.4613,-5.5822,-5.9065,-6.0665,-6.1354,-6.422,-6.5863,-6.6777,-6.8484,-6.8805,-6.8384,-6.9324,-6.8795,-6.7756,-6.9813,-6.9827,-6.8792,-6.8412,-6.759,-6.6812,-6.6812,-6.6812,-6.6846,-6.7049,0.0,0.0,0.0,0.0,0.0,-7.1684,-7.2157,-7.2529,-7.2935,-7.3883,-7.4728,-7.5168,-7.6149,-7.7029,-7.7435,-7.8585,-7.9464,-7.9566,-7.9769,-7.9735,-7.9329,-7.7073,-7.61,-7.7573,-7.4836,-7.2599,-7.1497,-7.2068,-7.1266,-6.8895,-7.0231,-7.1338,-7.1876,-7.2206,-7.2535,-7.2924,-7.3193,-7.404,-7.5409,-7.7994,-7.9924,-8.1294,-8.3138,-8.4234,-8.4573,-8.3828,-8.349,-8.349,-8.349,-8.3186,-8.2712,-8.2712,-8.3016,-8.349,-8.349,-8.3964,-8.464,0.0,0.0,-6.263,-6.3019,-6.3592,-6.3555,-6.2655,-6.4089,-6.4632,0.0,0.0,0.0,0.0,0.0,0.0,-5.9428,-5.853,-5.7812,-5.7543,-5.6196,-5.5628,-5.6137,-5.5179,-5.479,-5.5179,-5.4431,-5.3892,-5.3623,-5.2845,-5.2516,-5.2606,-5.2217,-5.2247,-5.2636,-5.3324,-5.4192,-5.54,-5.867,-6.0595,-6.1558,-6.4145,-6.5845,-6.7061,-6.8563,-6.8603,-6.8123,-6.9168,-6.8635,-6.7729,-6.9969,-6.9875,-6.8822,-6.8478,-6.7867,-6.7218,-6.6914,-6.6812,-6.6812,-6.6812,-6.7354,-6.7996,-6.847,0.0,0.0,-7.1142,-7.165,-7.2124,-7.2732,-7.3308,-7.3883,-7.4492,-7.5337,-7.6149,-7.6792,-7.7638,-7.845,-7.916,-7.9566,-7.9735,-7.9735,-7.7707,-7.6864,-7.8351,-7.6038,-7.4012,-7.2842,-7.358,-7.2896,-7.0068,-7.1491,-7.2319,-7.2295,-7.2714,-7.3163,-7.3732,-7.3851,-7.488,-7.6701,-7.8875,-8.0647,-8.223,-8.3893,-8.464,-8.4573,-8.3828,-8.349,-8.349,-8.3186,-8.278,-8.2408,-8.2408,-8.2847,-8.349,-8.349,-8.3964,-8.464,0.0,0.0,-6.3079,-6.3079,-6.4097,-6.4512,-6.3279,-6.377,-6.3564,0.0,-6.1387,0.0,0.0,0.0,0.0,0.0,-5.9608,-5.8979,-5.8381,-5.7633,-5.7004,-5.6526,-5.5807,-5.5448,-5.5508,-5.5359,-5.497,-5.4311,-5.4251,-5.3862,-5.3174,-5.3174,-5.3234,-5.3324,-5.4012,-5.473,-5.5568,-5.8052,-6.0304,-6.2223,-6.3657,-6.5589,-6.7652,-6.8508,-6.8857,-6.892,-6.9695,-6.9473,-6.9136,-7.0358,-7.0357,-6.9747,-6.9123,-6.8419,-6.7689,-6.7066,-6.6948,-6.6914,-6.6846,-6.7286,-6.7793,-6.7895,-6.891,0.0,-7.1007,-7.1176,-7.1582,-7.2969,-7.28,-7.28,-7.4119,-7.4424,-7.4965,-7.642,-7.6657,-7.6961,-7.7874,-7.8551,-7.9025,-7.9092,-7.7877,-7.7533,-7.8992,-7.7276,-7.5686,-7.4922,-7.4648,-7.3598,-7.1541,-7.2579,-7.3098,-7.2744,-7.3013,-7.3702,-7.4869,-7.43,-7.5255,-7.7548,-7.9065,-8.0766,-8.2572,-8.3893,-8.464,-8.4573,-8.3828,-8.349,-8.3422,-8.2712,-8.2408,-8.2408,-8.2408,-8.2847,-8.349,-8.349,-8.3964,-8.464,-6.2899,-6.2989,-6.3079,-6.3079,-6.3279,-6.3394,-6.3194,-6.4087,-6.4754,-6.4334,-6.3349,0.0,0.0,0.0,0.0,0.0,-6.0296,-5.9847,-5.9697,-5.859,-5.8112,-5.853,-5.7363,-5.6974,-5.7543,-5.6526,-5.5658,-5.4999,-5.4461,-5.3862,-5.3174,-5.3174,-5.3473,-5.4042,-5.47,-5.5628,-5.6825,-5.8441,-6.0496,-6.3026,-6.4322,-6.48,-6.491,-6.6698,-6.7365,-6.7395,-6.7636,-6.7241,-6.666,-6.7001,-6.7451,-6.7871,-6.8175,-6.7763,-6.7264,-6.7603,-6.7692,-6.7557,-6.6981,-6.6914,-6.7151,-6.776,-6.8132,0.0,-7.0094,-7.0398,-7.0669,-7.1548,-7.209,-7.2496,-7.2766,-7.3308,-7.4018,-7.4897,-7.5067,-7.5743,-7.7705,-7.8111,-7.8416,-7.9058,-7.8352,-7.8118,-7.9058,-7.8184,-7.7011,-7.5752,-7.4377,-7.3563,-7.3129,-7.3589,-7.3343,-7.2056,-7.3642,-7.4629,-7.4869,-7.4749,-7.6212,-7.9281,-7.9681,-8.1356,-8.4143,-8.45,-8.464,-8.4573,-8.3828,-8.349,-8.3422,-8.2712,-8.2408,-8.2408,-8.2408,-8.2847,-8.349,-8.349,-8.3964,-8.464,-6.3079,-6.3079,-6.3079,-6.3079,-6.3079,-6.3079,-6.3079,-6.3706,-6.4218,-6.4523,-6.4279,0.0,0.0,0.0,0.0,0.0,0.0,-6.0954,-6.0625,-5.9668,-5.9099,-5.9099,-5.8141,-5.7603,-5.7603,-5.6974,-5.6316,-5.5688,-5.5359,-5.485,-5.4192,-5.4192,-5.488,-5.6137,-5.5807,-5.6765,-5.865,-5.9668,-6.1074,-6.269,-6.4006,-6.4904,-6.5562,-6.6251,-6.649,-6.646,-6.6131,-6.5802,-6.5473,-6.5207,-6.5775,-6.6638,-6.6568,-6.6574,-6.6549,-6.6401,-6.6219,-6.589,-6.5527,-6.5165,-6.518,-6.6201,-6.6656,0.0,0.0,-7.0195,-7.0288,-7.069,-7.0797,-7.0709,-7.0466,-7.1217,-7.2133,-7.2901,-7.3945,-7.4999,-7.6149,-7.6961,-7.7739,-7.845,-7.8551,-7.8686,-7.9058,-7.9092,-7.859,-7.7545,-7.639,-7.52,-7.4092,-7.4857,-7.4408,-7.2517,-7.4001,-7.4869,-7.4869,-7.5728,-7.7321,-7.9803,-8.0647,-8.223,-8.464,-8.464,-8.464,-8.4573,-8.3828,-8.3693,-8.3998,-8.3253,-8.3186,-8.349,-8.3084,-8.3422,-8.4065,-8.4065,-8.4302,-8.464,-6.3079,-6.3079,-6.3079,-6.3079,-6.3079,-6.3109,-6.3228,-6.3258,-6.3468,-6.4126,0.0,0.0,0.0,0.0,0.0,0.0,0.0,-6.2061,-6.1523,-6.0864,-6.0176,-5.9518,-5.8979,-5.8321,-5.7483,-5.7603,-5.7244,-5.6346,-5.6346,-5.5957,-5.5179,-5.5179,-5.6107,-5.7723,-5.6915,-5.7782,-5.9967,-6.1044,-6.1852,-6.257,-6.3857,-6.5353,-6.6759,-6.6221,-6.6011,-6.5922,-6.5263,-6.5024,-6.4964,-6.4545,-6.488,-6.5472,-6.5417,-6.5602,-6.5797,-6.5267,-6.4761,-6.4412,-6.4186,-6.3804,-6.3581,-6.4621,-6.5357,-6.6423,0.0,0.0,0.0,-6.968,-6.919,-6.8666,-6.8139,-6.9151,-7.0271,-7.0996,-7.2763,-7.4187,-7.4187,-7.5371,-7.6623,-7.7671,-7.8314,-7.8754,-7.8889,-7.9667,-7.9938,-7.9363,-7.8754,-7.7373,-7.512,-7.5707,-7.533,-7.3153,-7.4106,-7.4749,-7.4869,-7.6436,-7.8186,-7.9803,-8.1388,-8.3054,-8.464,-8.464,-8.464,-8.4606,-8.3964,-8.4065,-8.4573,-8.3964,-8.4065,-8.4573,-8.3964,-8.4099,-8.464,-8.464,-8.464,-8.464,-6.3079,-6.3079,-6.3079,-6.3079,-6.3079,-6.3258,-6.3827,-6.3887,-6.4126,-6.4814,0.0,0.0,0.0,0.0,0.0,0.0,-6.3019,-6.2929,-6.2869,-6.2241,-6.1583,-6.0924,-6.0805,-6.0176,-5.889,-5.9458,-5.883,-5.7004,-5.7004,-5.6376,-5.5179,-5.5179,-5.5628,-5.6436,-5.7453,-5.8381,-5.9368,-6.1822,-6.3228,-6.3887,-6.5233,-6.5922,-6.6101,-6.6041,-6.6011,-6.5922,-6.5263,-6.5024,-6.5114,-6.5622,-6.4723,-6.3779,-6.615,-6.6151,-6.5295,-6.5829,-6.5879,-6.5655,-6.4984,-6.4761,-6.4697,-6.4895,-6.4959,-6.5314,-6.6348,0.0,-6.6767,-6.7438,0.0,-6.7401,-6.7395,0.0,0.0,-6.9448,-7.1225,-7.2665,-7.2665,-7.3341,-7.4661,-7.6758,-7.7096,-7.7401,-7.8044,-7.9363,-8.0175,-8.0073,-8.0006,-7.8991,-7.6721,-7.5943,-7.5055,-7.4096,-7.4021,-7.43,-7.4869,-7.6436,-7.8186,-7.9803,-8.1388,-8.3054,-8.464,-8.464,-8.464,-8.464,-8.4539,-8.4539,-8.4606,-8.4539,-8.4539,-8.4606,-8.4539,-8.4539,-8.464,-8.464,-8.464,-8.464,-6.3079,-6.3079,-6.3079,-6.3079,-6.3378,-6.3707,-6.3947,-6.4665,-6.5263,-6.5562,-6.5682,0.0,0.0,0.0,0.0,0.0,-6.3857,-6.3617,-6.3617,-6.3019,-6.254,-6.2271,-6.1882,-6.1224,-6.0296,-6.0535,-5.9697,-5.7693,-5.7693,-5.7034,-5.5748,-5.5748,-5.6705,-5.8471,-5.9009,-6.0057,-6.1523,-6.2989,-6.4006,-6.4635,-6.5203,-6.5652,-6.6011,-6.6011,-6.5772,-6.5413,-6.5114,-6.5024,-6.5054,-6.5353,-6.5144,-6.4843,-6.5243,-6.5177,-6.4927,-6.45,-6.4135,-6.3765,-6.3349,-6.3256,-6.3379,-6.3756,-6.4048,-6.4632,-6.5873,-6.6039,-6.6058,-6.6027,0.0,0.0,0.0,0.0,0.0,0.0,-6.9288,-7.1204,-7.1204,-7.2505,-7.4018,-7.5405,-7.5946,-7.669,-7.7874,-7.9329,-8.0006,-7.96,-8.0344,-7.9831,-7.7594,-7.7422,-7.64,-7.4222,-7.485,-7.5348,-7.5754,-7.7713,-7.9527,-8.1239,-8.283,-8.3893,-8.464,-8.464,-8.464,-8.464,-8.464,-8.464,-8.464,-8.464,-8.464,-8.464,-8.464,-8.464,-8.464,-8.464,-8.464,-8.464,-6.3617,-6.3318,-6.3139,-6.3288,-6.3707,-6.4126,-6.4485,-6.5533,-6.6281,-6.6281,-6.655,-6.6729,-6.6729,-6.5951,-6.5263,0.0,-6.4126,-6.3737,-6.3737,-6.3498,-6.3258,-6.3079,-6.278,-6.2241,-6.1403,-6.1373,-6.0416,-5.8381,-5.8381,-5.7723,-5.6436,-5.6436,-5.7543,-5.9548,-5.9937,-6.1104,-6.2869,-6.3857,-6.4575,-6.5054,-6.5233,-6.5592,-6.5981,-6.5802,-6.5562,-6.5293,-6.5293,-6.5293,-6.5353,-6.5712,-6.5802,-6.5622,-6.5024,-6.4784,-6.4545,-6.3617,-6.2869,-6.2361,-6.2361,-6.2361,-6.2438,-6.2975,-6.3408,-6.3964,-6.5008,-6.5324,-6.5164,-6.4611,-6.4512,0.0,0.0,0.0,-6.5049,-6.4863,0.0,-6.9909,-6.9711,-7.1553,-7.324,-7.4187,-7.4965,-7.6014,-7.7536,-7.9228,-7.9904,-7.916,-8.0648,-8.071,-7.8624,-7.8626,-7.7447,-7.493,-7.5339,-7.5926,-7.6267,-7.8494,-8.0421,-8.223,-8.3784,-8.464,-8.464,-8.464,-8.464,-8.464,-8.464,-8.464,-8.464,-8.464,-8.464,-8.464,-8.464,-8.464,-8.464,-8.464,-8.464,-8.464,-6.4964,-6.3947,-6.3258,-6.3857,-6.3977,-6.4425,-6.5742,-6.652,-6.6969,-6.6969,-6.643,-6.6041,-6.6041,-6.4844,-6.4066,-6.4036,-6.3468,-6.3109,-6.3109,-6.3647,-6.3707,-6.3109,-6.3617,-6.3348,-6.2091,-6.2061,-6.1074,-5.9069,-5.9069,-5.8381,-5.7064,-5.7064,-5.7453,-5.8231,-5.9518,-6.0835,-6.2241,-6.4186,-6.4994,-6.5084,-6.5712,-6.5981,-6.5951,-6.5293,-6.5443,-6.5981,-6.5981,-6.5981,-6.6161,-6.7448,-6.661,-6.5263,-6.652,-6.5562,-6.4006,-6.3977,-6.3528,-6.3049,-6.3049,-6.3049,-6.3049,-6.3134,-6.3134,-6.3164,-6.3164,-6.3134,-6.3164,-6.3164,-6.3194,-6.3194,-6.3079,0.0,0.0,0.0,0.0,0.0,0.0,-6.9988,-7.1921,-7.3341,-7.4187,-7.5236,-7.6792,-7.8923,-7.9904,-7.916,-8.1156,-8.1731,-8.0175,-7.873,-7.752,-7.6422,-7.4961,-7.4935,-7.6267,-7.8019,-7.9936,-8.223,-8.3784,-8.464,-8.464,-8.464,-8.464,-8.464,-8.464,-8.464,-8.464,-8.464,-8.464,-8.464,-8.464,-8.464,-8.464,-8.464,-8.464,-8.464,-6.5682,-6.4964,-6.4425,-6.4635,-6.5054,-6.5622,-6.652,-6.6849,-6.6819,-6.64,-6.6131,-6.5832,-6.5413,-6.4964,-6.4485,-6.4036,-6.3797,-6.3677,-6.3677,-6.3498,-6.3468,-6.3677,-6.3498,-6.3199,-6.275,-6.2331,-6.1313,-5.9757,-5.9308,-5.865,-5.7782,-5.7782,-5.8141,-5.886,-6.0625,-6.1912,-6.281,-6.3887,-6.4874,-6.5652,-6.5443,-6.5892,-6.658,-6.5922,-6.6071,-6.667,-6.667,-6.667,-6.6729,-6.7178,-6.7178,-6.6909,-6.649,-6.6191,-6.5802,-6.4934,-6.4545,-6.4276,-6.3827,-6.4006,-6.4156,-6.3288,-6.3737,-6.4246,-6.3797,-6.3677,-6.3677,-6.3677,-6.3378,-6.3079,-6.3079,0.0,0.0,0.0,0.0,0.0,0.0,-6.9722,-7.1684,-7.2665,-7.3409,-7.4255,-7.5303,-7.6995,-7.7908,-7.7671,-7.9701,-8.0513,-7.9532,-7.9465,-7.8337,-7.6015,-7.6843,-7.7061,-7.6624,-7.8642,-8.0182,-8.1506,-8.1956,-8.2588,-8.3054,-8.3054,-8.3531,-8.464,-8.464,-8.464,-8.464,-8.464,-8.464,-8.464,-8.464,-8.4945,-8.5384,-8.5384,-8.508,-8.464,-6.637,-6.6011,-6.5652,-6.5413,-6.5922,-6.649,-6.6939,-6.6789,-6.649,-6.6071,-6.5802,-6.5592,-6.5413,-6.5173,-6.4844,-6.4395,-6.4126,-6.4006,-6.4006,-6.3617,-6.3677,-6.4336,-6.3737,-6.3408,-6.3408,-6.278,-6.1912,-6.0805,-6.0146,-5.9488,-5.883,-5.859,-5.883,-5.9518,-6.1074,-6.2241,-6.3109,-6.3737,-6.4485,-6.5263,-6.5114,-6.5682,-6.664,-6.67,-6.7119,-6.7687,-6.7418,-6.7508,-6.7717,-6.7717,-6.7837,-6.7837,-6.6969,-6.667,-6.646,-6.5622,-6.5203,-6.4934,-6.4485,-6.4695,-6.4814,-6.3977,-6.4395,-6.4904,-6.4455,-6.4366,-6.4306,-6.4036,-6.3677,-6.3408,-6.3408,-6.3228,0.0,0.0,0.0,0.0,0.0,-6.9855,-7.1481,-7.1954,-7.2665,-7.351,-7.4525,-7.6014,-7.6893,-7.6893,-7.8957,-7.987,-7.916,-7.9803,-7.9046,-7.6491,-7.7761,-7.8232,-7.756,-7.8953,-8.0023,-8.0748,-8.157,-8.1968,-8.1835,-8.2698,-8.3674,-8.464,-8.464,-8.464,-8.464,-8.464,-8.464,-8.464,-8.464,-8.5114,-8.5757,-8.5486,-8.5046,-8.464,-6.7059,-6.6999,-6.6789,-6.6161,-6.658,-6.6999,-6.6999,-6.646,-6.6041,-6.6011,-6.5473,-6.5293,-6.5892,-6.5413,-6.5024,-6.5024,-6.4425,-6.4036,-6.4036,-6.4006,-6.4306,-6.4934,-6.4306,-6.3977,-6.4006,-6.3378,-6.272,-6.2151,-6.1463,-6.0775,-6.0116,-5.9488,-5.9548,-6.0176,-6.0864,-6.1882,-6.3109,-6.3707,-6.3977,-6.4126,-6.4814,-6.5503,-6.6281,-6.7508,-6.8435,-6.9004,-6.8286,-6.8435,-6.9004,-6.9004,-6.8555,-6.8016,-6.8016,-6.7148,-6.6161,-6.6131,-6.5652,-6.5173,-6.5084,-6.5084,-6.5054,-6.5054,-6.5054,-6.5084,-6.5084,-6.5084,-6.4904,-6.4246,-6.4066,-6.4036,-6.4036,-6.3558,-6.3378,0.0,0.0,0.0,0.0,0.0,-7.1222,-7.1312,-7.1921,0.0,0.0,-7.5845,-7.6758,-7.6792,-7.8855,-7.9803,-7.9092,-7.9769,-7.9495,-7.799,-7.8023,-7.8353,-7.8837,-7.9013,-7.9265,-7.9924,-8.2067,-8.2327,-8.111,-8.3272,-8.4466,-8.464,-8.464,-8.464,-8.464,-8.464,-8.464,-8.464,-8.4674,-8.5148,-8.5689,-8.4945,-8.4674,-8.4674,-6.7807,-6.7328,-6.6939,-6.6759,-6.6879,-6.6999,-6.6999,-6.6849,-6.655,-6.6071,-6.5862,-6.5652,-6.5323,-6.5114,-6.5024,-6.5024,-6.4874,-6.4755,-6.4755,-6.4276,-6.4066,-6.4246,-6.3647,-6.3528,-6.3977,-6.2899,-6.251,-6.281,-6.1672,-6.1014,-6.0835,-6.0685,-6.0685,-6.0864,-6.1553,-6.2301,-6.3079,-6.3258,-6.3887,-6.4814,-6.5473,-6.6759,-6.8226,-6.8046,-6.8974,-7.026,-6.9123,-6.8854,-6.9004,-6.9004,-6.8884,-6.8734,-6.8734,-6.8495,-6.8136,-6.7627,-6.7358,-6.6999,-6.6011,-6.5742,-6.5652,-6.5144,-6.5383,-6.5742,-6.5742,-6.5742,-6.5712,-6.5533,-6.5114,-6.4755,-6.4755,-6.4635,-6.4575,0.0,0.0,0.0,0.0,0.0,0.0,-7.1222,0.0,0.0,-7.2868,-7.3815,-7.4593,-7.5168,-7.7299,-7.8483,-7.828,-7.9498,-7.9495,-7.799,-7.9547,-7.9413,-7.7388,-7.8409,-7.8186,-7.6553,-7.6528,-7.754,-7.943,-7.9977,-8.193,-8.464,-8.464,-8.464,-8.464,-8.464,-8.464,-8.4674,-8.5249,-8.5621,-8.5757,-8.5554,-8.5486,-8.5418,-6.8046,-6.7448,-6.7089,-6.7358,-6.7418,-6.7328,-6.7029,-6.7238,-6.7178,-6.652,-6.6191,-6.5981,-6.5892,-6.5622,-6.5473,-6.5473,-6.5473,-6.5473,-6.5473,-6.4814,-6.4575,-6.4874,-6.4276,-6.4096,-6.4455,-6.3737,-6.3408,-6.3468,-6.248,-6.1822,-6.1523,-6.1253,-6.1433,-6.1972,-6.2061,-6.26,-6.3468,-6.3468,-6.4395,-6.5892,-6.5981,-6.7029,0.0,-6.8465,-6.9273,-7.044,-6.9991,-6.9842,-6.9842,-6.9842,-6.9662,-6.9423,-6.9423,-6.9243,-6.8914,-6.8525,-6.8435,-6.8256,-6.7508,-6.7328,-6.7148,-6.649,-6.661,-6.6789,-6.649,-6.643,-6.634,-6.6071,-6.5712,-6.5473,-6.5473,-6.5473,-6.5353,-6.5084,-6.5643,0.0,0.0,0.0,0.0,0.0,-7.0916,-7.1481,-7.1887,-7.2868,-7.3916,-7.4999,-7.6589,-7.7807,-7.845,-7.9261,-7.9668,-7.9374,-8.0609,-8.0376,-7.8341,-7.8734,-7.7604,-7.5016,-7.5182,-7.5856,-7.6888,-7.79,-8.0066,-8.3172,-8.3172,-8.3699,-8.464,-8.464,-8.464,-8.4742,-8.5858,-8.6061,-8.5824,-8.6163,-8.5858,-8.5215,-6.8136,-6.7657,-6.7448,-6.8016,-6.8106,-6.7867,-6.7208,-6.7597,-6.7777,-6.7208,-6.655,-6.634,-6.6939,-6.655,-6.6251,-6.6251,-6.6251,-6.6251,-6.6251,-6.5562,-6.5413,-6.5981,-6.5473,-6.5203,-6.5293,-6.5203,-6.4874,-6.4246,-6.3647,-6.2989,-6.2331,-6.1852,-6.2241,-6.3318,-6.275,-6.3109,-6.4126,-6.4216,-6.5263,-6.6819,-6.643,-6.6999,-6.8166,-6.8884,-6.9542,-7.0171,-7.0709,-7.0889,-7.0889,-7.0889,-7.056,-7.0111,-7.0111,-6.9722,-6.9243,-6.9153,-6.9123,-6.9123,-6.9034,-6.9004,-6.8854,-6.8256,-6.8106,-6.7956,-6.7388,-6.7178,-6.6969,-6.637,-6.6191,-6.6161,-6.6251,-6.6251,-6.6041,-6.5383,-6.5687,-6.5973,0.0,0.0,0.0,0.0,0.0,0.0,-7.1582,-7.2732,-7.4018,-7.5303,-7.642,-7.7604,-7.8889,-7.916,-7.987,-8.1257,-8.1291,-8.0987,-8.0344,-7.9214,-7.7362,-7.4715,-7.5582,-7.5383,-7.4439,-7.644,-7.8804,-8.1223,-8.1223,-8.2466,-8.464,-8.464,-8.4742,-8.5046,-8.6501,-8.6602,-8.5993,-8.667,-8.5926,-8.4606,-6.9034,-6.8734,-6.8675,-6.8794,-6.8824,-6.8585,-6.7897,-6.7897,-6.7926,-6.7807,-6.7238,-6.6879,-6.6969,-6.7358,-6.7627,-6.7627,-6.7627,-6.7627,-6.7627,-6.649,-6.5892,-6.6011,-6.5892,-6.6101,-6.664,-6.6131,-6.5772,-6.5652,-6.4994,-6.4336,-6.3677,-6.4126,-6.4455,-6.4695,-6.4575,-6.4635,-6.4874,-6.5413,-6.5862,-6.6251,-6.7238,-6.8106,-6.8884,-6.9542,-7.0201,-7.0769,-7.0859,-7.0889,-7.0889,-7.0889,-7.0829,-7.0739,-7.0739,-7.0649,-7.047,-6.9961,-6.9812,-6.9692,-6.9153,-6.9004,-6.8974,-6.8854,-6.8824,-6.8794,-6.8675,-6.8196,-6.7777,-6.7657,-6.7208,-6.6999,-6.7537,-6.7627,-6.7418,-6.6759,-6.6312,-6.6183,0.0,0.0,0.0,0.0,0.0,-7.2462,-7.3037,-7.3341,-7.3578,-7.3849,-7.6318,-7.7908,-7.8179,-7.9329,-8.0412,-8.1257,-8.1291,-8.1224,-8.1088,-7.8429,-7.6567,-7.5419,-7.3077,-7.2789,-7.4439,-7.478,-7.7262,-8.1223,-8.1223,-8.2466,-8.464,-8.464,-8.5384,-8.6602,-8.7482,-8.7347,-8.6738,-8.6873,-8.5926,-8.4539,-6.9183,-6.9004,-6.9004,-6.9004,-6.9004,-6.9004,-6.9004,-6.8734,-6.8495,-6.8495,-6.8226,-6.8166,-6.8495,-6.8525,-6.8495,-6.8495,-6.8495,-6.8495,-6.8495,-6.7897,-6.7567,-6.7567,-6.7567,-6.7717,-6.8016,-6.7717,-6.7388,-6.7029,-6.637,-6.5712,-6.5054,-6.5024,-6.5203,-6.5533,-6.5533,-6.5712,-6.6041,-6.6011,-6.661,-6.7567,-6.7867,-6.8585,-6.9542,-6.9871,-7.035,-7.0889,-7.0889,-7.0889,-7.0889,-7.0889,-7.0889,-7.0889,-7.0889,-7.0889,-7.0829,-7.056,-7.047,-7.038,-7.0081,-6.9991,-6.9901,-6.9602,-6.9512,-6.9423,-6.9064,-6.8734,-6.8615,-6.8944,-6.8495,-6.8226,-6.8884,-6.8734,-6.8286,-6.7597,-6.6939,-6.6373,-6.6027,0.0,-6.8419,0.0,0.0,0.0,0.0,-7.3407,-7.4221,-7.4593,-7.6724,-7.7646,-7.6842,-7.859,-7.926,-7.8485,-8.0263,-8.0401,-7.8376,-7.7284,-7.5741,-7.3753,-7.18,-7.1556,-7.2566,-7.2566,-7.487,-7.8827,-7.93,-8.1203,-8.4099,-8.4877,-8.5892,-8.6974,-8.7719,-8.755,-8.6907,-8.6907,-8.5926,-8.4505,-6.9363,-6.9303,-6.9363,-6.9243,-6.9213,-6.9393,-6.9901,-6.9423,-6.9064,-6.9183,-6.9093,-6.9183,-6.9722,-6.9423,-6.9213,-6.9213,-6.9213,-6.9213,-6.9213,-6.9064,-6.9064,-6.9213,-6.9213,-6.9273,-6.9393,-6.9273,-6.8794,-6.7956,-6.7597,-6.6789,-6.5592,-6.5772,-6.6071,-6.643,-6.643,-6.664,-6.6969,-6.658,-6.7328,-6.8764,-6.8495,-6.9034,-6.9991,-6.9724,-7.0181,-7.0759,-7.0045,-6.9913,-7.0206,-6.9781,-6.9913,-7.0337,-7.0337,-7.0337,-7.0337,-7.0759,-7.0889,-7.0889,-7.0889,-7.0889,-7.0799,-7.029,-7.0171,-7.0051,-6.9512,-6.9303,-6.9363,-6.9871,-6.9662,-6.9572,-7.0081,-6.9752,-6.9273,-6.8854,-6.7897,-6.6879,-6.6011,-6.6925,0.0,0.0,0.0,0.0,-7.1317,-7.3736,-7.5377,-7.5493,-7.6604,-7.6876,-7.6043,-7.7777,-7.8126,-7.6685,-7.9314,-7.9521,-7.6829,-7.6231,-7.4904,-7.255,-7.1419,-7.0889,-7.0889,-7.0889,-7.3043,-7.6699,-7.7134,-7.9642,-8.3605,-8.5479,-8.6602,-8.7211,-8.7955,-8.7786,-8.711,-8.6974,-8.6027,-8.4742,-7.0141,-7.035,-7.056,-6.9991,-6.9901,-6.9901,-6.9961,-6.9423,-6.9213,-6.9752,-6.9363,-6.9034,-6.9093,-6.9572,-6.9901,-6.9901,-6.9901,-6.9901,-6.9901,-6.9333,-6.9273,-6.9871,-6.9901,-7.0141,-7.0709,-7.0171,-6.9273,-6.7956,-6.8525,-6.7238,-6.4246,-6.7238,-6.8315,-6.7777,-6.7777,-6.7478,-6.7029,-6.7567,-6.7897,-6.8166,-6.9333,-6.9871,-6.9893,-6.8794,-6.9324,-7.0468,-6.7037,-6.6927,-6.8083,-6.6342,-6.6927,-6.8383,-6.8383,-6.8383,-6.8654,-7.0337,-7.0889,-7.0889,-7.0889,-7.0889,-7.0889,-7.0829,-7.0829,-7.0799,-7.0739,-7.029,-6.9901,-6.9961,-7.038,-7.0739,-7.0799,-7.0769,-7.0889,-7.1427,-6.9482,-6.8046,-6.8555,-6.9336,-6.9697,-6.9077,0.0,0.0,-7.1585,-7.5167,-7.6875,-7.493,-7.4893,-7.5554,-7.6663,-7.7602,-7.8626,-7.9681,-7.9375,-7.9672,-8.0668,-7.6014,-7.3848,-7.4098,-7.2001,-7.0889,-7.0889,-7.0889,-7.3043,-7.6699,-7.5804,-7.8538,-8.3531,-8.6556,-8.782,-8.7955,-8.87,-8.8531,-8.782,-8.7144,-8.6399,-8.5452,-7.1308,-7.1308,-7.1158,-7.0171,-6.9991,-6.9991,-6.9991,-6.9752,-6.9812,-7.044,-6.9961,-6.9692,-7.0111,-7.038,-7.053,-7.053,-7.053,-7.053,-7.053,-7.029,-7.044,-7.1098,-7.0739,-7.0829,-7.1487,-7.0859,-7.0081,-6.9183,-6.9453,-6.8704,-6.7029,-6.7956,-6.8016,-6.7388,-6.7388,-6.7448,-6.7597,-6.7867,-6.7745,-6.7523,-6.8049,-6.7765,-6.6999,-6.6536,-6.6788,-6.7341,-6.578,-6.5639,-6.6146,-6.45,-6.5831,-6.7947,-6.6788,-6.7918,-6.9648,-6.9353,-7.0045,-7.0889,-7.0889,-7.0889,-7.0889,-7.0889,-7.0889,-7.0889,-7.0889,-7.1009,-7.1248,-7.1667,-7.2265,-7.2565,-7.2176,-7.2116,-7.2056,-7.1906,-7.0679,-6.9692,-6.9602,-6.9239,-6.8759,-6.8516,0.0,-7.1013,0.0,-7.3722,-7.5635,-7.479,-7.6771,-7.7474,-7.6274,-7.7363,-7.7785,-7.7447,-7.7188,-7.7055,-7.7111,-7.4585,-7.2952,-7.225,-7.1397,-7.0889,-7.0889,-7.0889,-7.3473,-7.8034,-7.8978,-8.172,-8.5628,-8.7328,-8.7989,-8.8057,-8.8801,-8.8632,-8.7922,-8.7177,-8.6433,-8.5554,-7.1816,-7.1757,-7.1487,-7.0201,-7.0141,-7.026,-7.026,-7.026,-7.041,-7.0829,-7.05,-7.038,-7.0859,-7.0889,-7.0889,-7.0889,-7.0889,-7.0889,-7.0889,-7.0889,-7.1188,-7.1846,-7.1248,-7.1218,-7.1876,-7.1248,-7.059,-6.9991,-7.0171,-6.9632,-6.8405,-6.8106,-6.7926,-6.7867,-6.7867,-6.8016,-6.8286,-6.8465,-6.7983,-6.7132,-6.7305,-6.653,-6.5186,-6.4642,-6.4786,-6.5071,-6.411,-6.4192,-6.4419,-6.3008,-6.4547,-6.665,-6.5307,-6.6735,-6.8904,-6.8659,-6.9506,-7.0769,-7.1356,-7.1487,-7.1487,-7.1487,-7.1487,-7.1487,-7.1487,-7.1846,-7.2325,-7.2804,-7.3432,-7.3762,-7.3283,-7.3193,-7.3103,-7.2804,-7.1727,-7.0829,-7.056,-6.9393,-6.8615,-6.8824,-6.9945,-7.0359,-6.9727,-7.3019,-7.4962,-7.4107,-7.7033,-7.7815,-7.5537,-7.6616,-7.6701,-7.5401,-7.5315,-7.4974,-7.4439,-7.3137,-7.1952,-7.0889,-7.0889,-7.0889,-7.0919,-7.1556,-7.4063,-7.7977,-8.116,-8.3972,-8.6321,-8.7666,-8.8328,-8.8361,-8.8869,-8.8632,-8.7922,-8.7177,-8.6433,-8.5587,-7.1308,-7.1457,-7.1487,-7.0201,-7.05,-7.0889,-7.0889,-7.0889,-7.0889,-7.0889,-7.0889,-7.0889,-7.0889,-7.0889,-7.0889,-7.0889,-7.0889,-7.0889,-7.0889,-7.0889,-7.1188,-7.1846,-7.1248,-7.1218,-7.1876,-7.1248,-7.059,-6.9991,-7.059,-6.9572,-6.7029,-6.7657,-6.8675,-6.9931,-6.9931,-6.9602,-6.9034,-6.9662,-6.8808,-6.7161,-6.7824,-6.6927,-6.5071,-6.3099,-6.3511,-6.4697,-6.1556,-6.1634,-6.3061,-6.1728,-6.2507,-6.4102,-6.3949,-6.4102,-6.4834,-6.8797,-6.9955,-7.0402,-7.2298,-7.2894,-7.2894,-7.2894,-7.2894,-7.2894,-7.2894,-7.2894,-7.2894,-7.2924,-7.3432,-7.3881,-7.3881,-7.3881,-7.4091,-7.4749,-7.2624,-7.1128,-7.1757,-7.0739,-7.0141,-7.0799,-7.285,-7.332,-7.1018,-7.4279,-7.5442,-7.2573,-7.4383,-7.5291,-7.4587,-7.531,-7.5315,-7.4377,-7.4408,-7.4439,-7.4439,-7.2062,-7.0889,-7.0889,-7.0889,-7.0889,-7.0919,-7.3225,-7.4594,-7.562,-8.0982,-8.3647,-8.4672,-8.78,-8.9072,-8.9072,-8.9072,-8.8632,-8.7922,-8.7177,-8.6433,-8.5655,-7.2565,-7.2445,-7.2176,-7.0829,-7.0769,-7.0889,-7.0889,-7.0889,-7.0889,-7.0889,-7.0889,-7.1068,-7.1517,-7.1158,-7.0889,-7.0889,-7.0889,-7.0889,-7.0889,-7.0889,-7.1188,-7.1846,-7.1248,-7.1218,-7.1876,-7.1248,-7.059,-6.9991,-7.059,-7.026,-6.9034,-6.9243,-6.9333,-6.9303,-6.9303,-6.9453,-6.9692,-6.9901,-6.8385,-6.5782,-6.5978,-6.421,-6.124,-6.107,-6.1377,-6.1709,-6.1135,-6.1363,-6.1885,-6.1702,-6.2198,-6.27,-6.3083,-6.4453,-6.6033,-6.5884,-6.6744,-6.7937,-6.8654,-6.8797,-6.911,-7.057,-7.0846,-7.1268,-7.3163,-7.43,-7.4958,-7.4958,-7.5108,-7.4988,-7.4061,-7.427,-7.448,-7.424,-7.3492,-7.3013,-7.3223,-7.2116,-7.1158,-7.0919,-7.1194,-7.0899,-6.9662,-7.206,-7.3307,-7.2269,-7.4676,-7.5963,-7.5291,-7.44,-7.4602,-7.5926,-7.3353,-7.2754,-7.4439,-7.2062,-7.0889,-7.0889,-7.0889,-7.0889,-7.0949,-7.2551,-7.4378,-7.6335,-7.9353,-8.1664,-8.3681,-8.6237,-8.7261,-8.7411,-8.87,-8.8632,-8.7922,-8.7177,-8.6433,-8.5655,-7.3492,-7.3073,-7.2565,-7.1457,-7.1278,-7.1278,-7.1278,-7.1487,-7.1667,-7.1667,-7.1667,-7.1816,-7.2235,-7.1906,-7.1667,-7.1667,-7.1667,-7.1667,-7.1667,-7.1667,-7.1846,-7.2265,-7.1876,-7.1727,-7.1876,-7.1487,-7.0979,-7.032,-7.0709,-7.0709,-7.032,-7.032,-7.0111,-6.9722,-6.9722,-6.9961,-7.032,-7.032,-6.8706,-6.637,-6.6595,-6.4419,-6.0891,-6.1608,-6.1215,-6.0713,-6.1291,-6.1492,-6.1567,-6.2119,-6.232,-6.237,-6.2722,-6.4007,-6.5223,-6.4762,-6.5502,-6.6685,-6.7431,-6.8169,-6.9129,-7.0707,-7.1644,-7.2717,-7.4564,-7.5467,-7.5916,-7.5916,-7.5707,-7.5198,-7.4091,-7.424,-7.436,-7.3971,-7.3702,-7.3612,-7.3851,-7.2954,-7.2295,-7.2385,-7.1846,-7.1398,-7.1218,-7.228,-7.2727,-7.2483,-7.3912,-7.4651,-7.4245,-7.3848,-7.3941,-7.4464,-7.2195,-7.1586,-7.3098,-7.1586,-7.0889,-7.0889,-7.0889,-7.1038,-7.1308,-7.2415,-7.4223,-7.655,-7.8568,-8.0605,-8.2745,-8.5449,-8.648,-8.66,-8.8136,-8.8226,-8.7516,-8.6771,-8.5993,-8.5283,-7.4091,-7.3432,-7.2774,-7.2086,-7.1966,-7.1966,-7.1966,-7.2505,-7.2924,-7.2924,-7.2924,-7.2924,-7.2984,-7.2984,-7.2984,-7.2984,-7.2954,-7.2924,-7.2924,-7.2924,-7.2924,-7.2924,-7.2924,-7.2624,-7.1966,-7.1966,-7.1637,-7.0979,-7.0979,-7.0949,-7.0889,-7.0889,-7.0889,-7.0889,-7.0889,-7.0889,-7.0889,-7.0949,-6.984,-6.8062,-6.8694,-6.664,-6.3087,-6.3817,-6.2871,-6.1316,-6.1868,-6.2069,-6.2144,-6.2647,-6.2822,-6.2822,-6.2822,-6.2822,-6.3123,-6.5082,-6.5529,-6.6,-6.798,-6.9959,-7.1768,-7.2545,-7.442,-7.6185,-7.6694,-7.6425,-7.6006,-7.5916,-7.5377,-7.4719,-7.4031,-7.3881,-7.3881,-7.3821,-7.3343,-7.3193,-7.3821,-7.3402,-7.3492,-7.4659,-7.427,-7.4121,-7.4689,-7.418,-7.3582,-7.3013,-7.2355,-7.1966,-7.2026,-7.3339,-7.3098,-7.0919,-7.0889,-7.0889,-7.0889,-7.0889,-7.0919,-7.0979,-7.0979,-7.1308,-7.1966,-7.2654,-7.4153,-7.6263,-7.8274,-8.0063,-8.1728,-8.4822,-8.6173,-8.6349,-8.7371,-8.7405,-8.6738,-8.6027,-8.5283,-8.464,-7.4779,-7.4121,-7.3462,-7.2774,-7.2684,-7.2684,-7.2684,-7.2804,-7.2924,-7.2924,-7.2924,-7.3103,-7.3612,-7.3672,-7.3672,-7.3672,-7.3223,-7.2924,-7.2924,-7.2924,-7.2924,-7.2924,-7.2924,-7.2834,-7.2684,-7.2684,-7.2325,-7.1637,-7.1637,-7.1398,-7.0889,-7.0889,-7.0889,-7.0889,-7.0889,-7.0889,-7.0949,-7.1457,-6.9651,-6.6561,-6.7289,-6.522,-6.1779,-6.2338,-6.2273,-6.1893,-6.2446,-6.2621,-6.2647,-6.2797,-6.2822,-6.2822,-6.2822,-6.2822,-6.2822,-6.3448,-6.3584,-6.3584,-6.4042,-6.6029,-6.8353,-7.0171,-7.3994,-7.7263,-7.6904,-7.7113,-7.7083,-7.6096,-7.5766,-7.5288,-7.4121,-7.3881,-7.3732,-7.3223,-7.3432,-7.3702,-7.3881,-7.418,-7.433,-7.4151,-7.4001,-7.3762,-7.3402,-7.3223,-7.3283,-7.3642,-7.3043,-7.2894,-7.3402,-7.2811,-7.1939,-7.0919,-7.0889,-7.0889,-7.0889,-7.0889,-7.1158,-7.1637,-7.1637,-7.1996,-7.2684,-7.3373,-7.4001,-7.4583,-7.6093,-7.7274,-7.8141,-8.0768,-8.262,-8.3853,-8.5373,-8.6039,-8.6027,-8.5858,-8.5283,-8.464,-7.4033,-7.3931,-7.3791,-7.3432,-7.3373,-7.3373,-7.3373,-7.3612,-7.3821,-7.3821,-7.3821,-7.3941,-7.43,-7.436,-7.421,-7.3911,-7.3851,-7.3672,-7.3373,-7.3642,-7.3821,-7.3821,-7.3821,-7.3672,-7.3373,-7.3373,-7.3043,-7.2355,-7.2355,-7.2176,-7.1816,-7.1816,-7.1816,-7.1816,-7.1816,-7.1816,-7.1846,-7.2206,-7.1196,-6.9215,-6.9847,-6.8328,-6.577,-6.6362,-6.5989,-6.5135,-6.5451,-6.4949,-6.4177,-6.4177,-6.4177,-6.4042,-6.3123,-6.3423,-6.4042,-6.3123,-6.2822,-6.2985,-6.3882,-6.5924,-6.858,-7.2154,-7.5362,-7.7711,-7.7352,-7.7113,-7.6754,-7.6036,-7.5647,-7.5108,-7.4091,-7.3881,-7.3762,-7.3432,-7.3402,-7.3672,-7.427,-7.439,-7.442,-7.436,-7.436,-7.421,-7.3851,-7.3821,-7.3971,-7.43,-7.3732,-7.3402,-7.3432,-7.2445,-7.1727,-7.1368,-7.1068,-7.0889,-7.0889,-7.0889,-7.1068,-7.1457,-7.1727,-7.2235,-7.2924,-7.3582,-7.4061,-7.439,-7.5437,-7.6096,-7.6564,-7.9004,-8.0888,-8.2521,-8.3944,-8.4997,-8.5757,-8.5384,-8.4979,-8.464,-7.2804,-7.3451,-7.4031,-7.4031,-7.4031,-7.4031,-7.4031,-7.451,-7.4869,-7.4869,-7.4869,-7.4869,-7.4869,-7.4869,-7.4569,-7.3821,-7.436,-7.448,-7.3941,-7.442,-7.4779,-7.4869,-7.4869,-7.4599,-7.4061,-7.4031,-7.3732,-7.3073,-7.3073,-7.3013,-7.2924,-7.2924,-7.2924,-7.2924,-7.2924,-7.2924,-7.2924,-7.3013,-7.2909,-7.267,-7.3325,-7.2402,-7.0679,-7.1194,-7.0374,-6.8888,-6.8888,-6.7827,-6.6312,-6.6312,-6.6312,-6.5844,-6.3882,-6.4631,-6.5844,-6.3882,-6.3423,-6.4042,-6.5398,-6.7657,-7.0818,-7.5875,-7.7472,-7.7771,-7.7682,-7.6754,-7.5886,-7.5766,-7.5288,-7.4719,-7.4151,-7.3971,-7.3941,-7.4031,-7.3402,-7.3343,-7.454,-7.4151,-7.4001,-7.4659,-7.4719,-7.4779,-7.4869,-7.4869,-7.4869,-7.4869,-7.418,-7.3552,-7.3103,-7.2206,-7.1787,-7.1876,-7.1248,-7.0889,-7.0889,-7.0889,-7.1009,-7.1218,-7.1787,-7.2445,-7.3223,-7.3791,-7.436,-7.4899,-7.5497,-7.5826,-7.6055,-7.809,-7.9969,-8.1784,-8.266,-8.4085,-8.552,-8.4877,-8.464,-8.464,-7.3465,-7.4127,-7.4719,-7.4719,-7.4719,-7.4719,-7.4719,-7.4809,-7.4869,-7.4869,-7.4869,-7.4869,-7.4869,-7.4869,-7.439,-7.3163,-7.3672,-7.4001,-7.3911,-7.4001,-7.43,-7.4869,-7.4869,-7.4839,-7.4719,-7.4719,-7.439,-7.3732,-7.3732,-7.3462,-7.2924,-7.2924,-7.2924,-7.2924,-7.2924,-7.2924,-7.2954,-7.3492,-7.2719,-7.1271,-7.1908,-7.0991,-6.9198,-6.9309,-6.9187,-6.8888,-6.8888,-6.8737,-6.8435,-6.8435,-6.8435,-6.798,-6.6,-6.6778,-6.798,-6.6,-6.6623,-6.7675,-6.6156,-6.9301,-7.3904,-7.7526,-7.813,-7.7652,-7.7113,-7.6425,-7.5736,-7.5138,-7.4958,-7.4839,-7.4749,-7.427,-7.4091,-7.4629,-7.3702,-7.3193,-7.3941,-7.3492,-7.3313,-7.3971,-7.4061,-7.427,-7.4839,-7.4869,-7.4869,-7.4869,-7.3762,-7.3283,-7.3732,-7.2026,-7.1308,-7.1876,-7.1248,-7.0889,-7.0889,-7.0889,-7.1487,-7.2595,-7.2714,-7.3402,-7.4569,-7.4689,-7.4779,-7.4899,-7.4988,-7.5377,-7.5916,-7.6253,-7.8133,-8.0955,-8.1073,-8.2625,-8.4776,-8.4674,-8.464,-8.464,-6.9961,-7.1732,-7.3222,-7.3222,-7.412,-7.4869,-7.4869,-7.4869,-7.4869,-7.4869,-7.4869,-7.4869,-7.4869,-7.4869,-7.436,-7.3043,-7.3193,-7.3223,-7.2834,-7.3492,-7.4031,-7.433,-7.4689,-7.4869,-7.4869,-7.4869,-7.4719,-7.442,-7.442,-7.427,-7.3971,-7.3971,-7.3971,-7.3971,-7.3971,-7.3971,-7.4001,-7.43,-7.395,-7.3091,-7.3385,-7.2911,-7.2171,-7.2171,-7.2171,-7.2171,-7.2171,-7.1423,-7.0521,-7.0521,-7.0521,-7.0227,-6.8132,-6.8888,-7.0079,-6.8132,-6.8888,-7.0374,-6.9309,-7.2164,-7.5648,-7.686,-7.7263,-7.7113,-7.6485,-7.5826,-7.5258,-7.4929,-7.4869,-7.4869,-7.4869,-7.4629,-7.451,-7.4839,-7.4061,-7.3552,-7.3851,-7.3343,-7.3013,-7.3343,-7.3373,-7.3492,-7.3791,-7.3821,-7.3821,-7.3821,-7.3253,-7.2894,-7.2834,-7.1936,-7.1398,-7.1368,-7.1068,-7.0889,-7.0889,-7.1248,-7.1757,-7.2355,-7.3103,-7.3762,-7.436,-7.4719,-7.4869,-7.4869,-7.4869,-7.5048,-7.5347,-7.5347,-7.669,-7.888,-7.888,-8.0181,-8.2083,-8.2942,-8.331,-8.3421,-6.682,-6.9123,-7.125,-7.125,-7.2456,-7.3672,-7.412,-7.4258,-7.4426,-7.4869,-7.4869,-7.4869,-7.4869,-7.4869,-7.436,-7.3043,-7.2924,-7.2565,-7.1697,-7.2774,-7.3552,-7.3881,-7.451,-7.4869,-7.4869,-7.4869,-7.4869,-7.4869,-7.4869,-7.4869,-7.4869,-7.4869,-7.4869,-7.4869,-7.4869,-7.4869,-7.4869,-7.4869,-7.4869,-7.4869,-7.4869,-7.4869,-7.4869,-7.4869,-7.4869,-7.4869,-7.4869,-7.3951,-7.2599,-7.2599,-7.2599,-7.2314,-7.0227,-7.0988,-7.2171,-7.0227,-7.0988,-7.2628,-7.2802,-7.4616,-7.6544,-7.6215,-7.6365,-7.6485,-7.6006,-7.5377,-7.4869,-7.4869,-7.4869,-7.4869,-7.4869,-7.4869,-7.4929,-7.5078,-7.442,-7.3881,-7.3881,-7.3343,-7.2924,-7.2924,-7.3043,-7.3193,-7.3343,-7.3373,-7.3313,-7.3163,-7.3013,-7.2624,-7.1936,-7.1727,-7.1487,-7.1128,-7.0979,-7.0979,-7.1128,-7.1637,-7.2056,-7.2355,-7.3402,-7.3971,-7.4151,-7.4659,-7.4869,-7.4869,-7.4869,-7.4869,-7.4869,-7.4869,-7.5863,-7.729,-7.729,-7.8534,-8.0528,-8.1737,-8.2458,-8.2942,-6.682,-6.8082,-6.9038,-6.9038,-6.9187,-6.9931,-7.1856,-7.2142,-7.277,-7.4702,-7.4869,-7.4869,-7.4869,-7.4869,-7.436,-7.3043,-7.2924,-7.2355,-7.1068,-7.1637,-7.2595,-7.3851,-7.451,-7.4869,-7.4869,-7.4869,-7.4869,-7.4869,-7.4869,-7.4869,-7.4869,-7.4869,-7.4869,-7.4869,-7.4869,-7.4869,-7.4869,-7.4869,-7.4869,-7.4869,-7.4869,-7.4869,-7.4869,-7.4869,-7.4869,-7.4869,-7.4869,-7.4869,-7.4731,-7.4731,-7.4731,-7.4288,-7.2314,-7.3052,-7.4258,-7.2314,-7.3052,-7.4851,-7.5508,-7.5747,-7.6096,-7.6634,-7.6365,-7.5946,-7.5916,-7.5377,-7.4869,-7.4869,-7.4869,-7.4869,-7.4869,-7.4869,-7.5078,-7.5736,-7.4749,-7.3881,-7.3881,-7.3343,-7.2924,-7.2924,-7.3462,-7.4061,-7.4659,-7.4719,-7.448,-7.3881,-7.3253,-7.2624,-7.1936,-7.1308,-7.1248,-7.1787,-7.1218,-7.1188,-7.1816,-7.1876,-7.2505,-7.3762,-7.3851,-7.421,-7.4809,-7.4869,-7.4869,-7.4869,-7.4869,-7.4869,-7.4869,-7.4869,-7.5863,-7.729,-7.729,-7.9281,-8.2083,-8.2198,-8.3166,-8.4392,-6.4478,-6.5713,-6.6906,-6.6906,-6.798,-6.9635,-7.1568,-7.1856,-7.2599,-7.4564,-7.4869,-7.4869,-7.4869,-7.4869,-7.436,-7.3043,-7.2924,-7.2355,-7.0979,-7.1517,-7.2475,-7.3821,-7.451,-7.4869,-7.4869,-7.4869,-7.4869,-7.4869,-7.4869,-7.4869,-7.4869,-7.4869,-7.4869,-7.4869,-7.4869,-7.4869,-7.4869,-7.4869,-7.4869,-7.4869,-7.4869,-7.4869,-7.4869,-7.4869,-7.4869,-7.4869,-7.4869,-7.4869,-7.4869,-7.4869,-7.4869,-7.4731,-7.3981,-7.4258,-7.4731,-7.3981,-7.4258,-7.4929,-7.5198,-7.5587,-7.5856,-7.5677,-7.5766,-7.5796,-7.5377,-7.5048,-7.4869,-7.4869,-7.4869,-7.4869,-7.4869,-7.4869,-7.4958,-7.5228,-7.4839,-7.436,-7.3941,-7.3672,-7.3373,-7.2954,-7.3133,-7.3373,-7.3642,-7.3283,-7.2924,-7.2654,-7.2026,-7.1547,-7.1278,-7.1427,-7.1637,-7.1876,-7.2056,-7.2265,-7.2535,-7.2924,-7.3402,-7.3911,-7.43,-7.4629,-7.4869,-7.4869,-7.4869,-7.4869,-7.4869,-7.4869,-7.4869,-7.4869,-7.5248,-7.6027,-7.7393,-7.8404,-7.9436,-8.1962,-8.2969,-8.3277,-6.2948,-6.3882,-6.479,-6.479,-6.6,-6.7675,-6.9607,-7.0521,-7.1712,-7.3672,-7.4564,-7.4869,-7.4869,-7.4689,-7.4121,-7.3013,-7.2714,-7.2116,-7.0979,-7.1727,-7.2714,-7.3851,-7.451,-7.4869,-7.4869,-7.4869,-7.4869,-7.4869,-7.4869,-7.4869,-7.4869,-7.4869,-7.4869,-7.4869,-7.4869,-7.4869,-7.4869,-7.4869,-7.4869,-7.4869,-7.4869,-7.4869,-7.4869,-7.4869,-7.4869,-7.4869,-7.4869,-7.4869,-7.4869,-7.4869,-7.4869,-7.4869,-7.4869,-7.4869,-7.4869,-7.4869,-7.4869,-7.4869,-7.4869,-7.5228,-7.5467,-7.4988,-7.5228,-7.5467,-7.4988,-7.4869,-7.4869,-7.4869,-7.4869,-7.4869,-7.4869,-7.4869,-7.4869,-7.4869,-7.4869,-7.4659,-7.4001,-7.4061,-7.3971,-7.3283,-7.3402,-7.3462,-7.3253,-7.2804,-7.2355,-7.1906,-7.1457,-7.1218,-7.1218,-7.1846,-7.2295,-7.2505,-7.2984,-7.3313,-7.3522,-7.3762,-7.4001,-7.421,-7.4659,-7.4869,-7.4869,-7.4869,-7.4869,-7.4869,-7.4869,-7.4869,-7.4869,-7.4869,-7.4869,-7.5036,-7.6721,-7.7362,-7.7707,-8.1044,-8.2163,-8.2458,-6.2948,-6.2822,-6.2822,-6.2822,-6.2822,-6.3423,-6.5556,-6.7522,-6.9635,-7.1568,-7.3672,-7.4869,-7.4869,-7.43,-7.3642,-7.2984,-7.2295,-7.1607,-7.0949,-7.2176,-7.3223,-7.3851,-7.451,-7.4869,-7.4869,-7.4869,-7.4869,-7.4869,-7.4869,-7.4869,-7.4869,-7.4869,-7.4869,-7.4869,-7.4869,-7.4869,-7.4869,-7.4869,-7.4869,-7.4869,-7.4869,-7.4869,-7.4869,-7.4869,-7.4869,-7.4869,-7.4869,-7.4869,-7.4869,-7.4869,-7.4869,-7.4869,-7.4869,-7.4869,-7.4869,-7.4869,-7.4869,-7.4869,-7.4869,-7.4869,-7.4869,-7.4869,-7.4869,-7.4869,-7.4869,-7.4869,-7.4869,-7.4869,-7.4869,-7.4869,-7.4869,-7.4869,-7.4869,-7.4869,-7.4869,-7.4629,-7.4001,-7.445,-7.4629,-7.3971,-7.448,-7.4599,-7.3941,-7.3881,-7.3313,-7.1996,-7.1876,-7.1876,-7.1906,-7.2535,-7.3223,-7.3881,-7.3911,-7.421,-7.4869,-7.424,-7.424,-7.4869,-7.4869,-7.4869,-7.4869,-7.4869,-7.4869,-7.4869,-7.4869,-7.4869,-7.4869,-7.4869,-7.4869,-7.4869,-7.4869,-7.5832,-7.7548,-7.9189,-8.0885,-8.2458,-6.2873,-6.2822,-6.2822,-6.2822,-6.2822,-6.3423,-6.5556,-6.6312,-6.7522,-6.9486,-7.1568,-7.277,-7.277,-7.3389,-7.3642,-7.2984,-7.2295,-7.1607,-7.0949,-7.2176,-7.3013,-7.3193,-7.427,-7.4659,-7.421,-7.4629,-7.4659,-7.418,-7.4659,-7.4869,-7.4869,-7.4869,-7.4869,-7.4869,-7.4869,-7.4869,-7.4869,-7.4869,-7.4869,-7.4869,-7.4869,-7.4869,-7.4869,-7.4869,-7.4869,-7.4869,-7.4869,-7.4869,-7.4869,-7.4869,-7.4869,-7.4869,-7.4869,-7.4869,-7.4869,-7.4869,-7.4869,-7.4869,-7.4869,-7.4869,-7.4869,-7.4869,-7.4869,-7.4869,-7.4869,-7.4869,-7.4869,-7.4869,-7.4869,-7.4869,-7.4869,-7.4869,-7.4869,-7.4869,-7.448,-7.427,-7.454,-7.436,-7.43,-7.454,-7.436,-7.4121,-7.3911,-7.3043,-7.2325,-7.1906,-7.1876,-7.2086,-7.2595,-7.3253,-7.3702,-7.3881,-7.436,-7.4689,-7.4869,-7.4689,-7.4689,-7.4869,-7.4869,-7.4869,-7.4869,-7.4869,-7.4869,-7.4869,-7.4869,-7.4869,-7.4869,-7.4869,-7.4869,-7.5036,-7.6751,-7.7983,-7.9344,-8.1436,-8.3002,-8.3893,-6.2822,-6.2822,-6.2822,-6.2822,-6.2822,-6.3286,-6.4497,-6.524,-6.6312,-6.7522,-6.9486,-7.0874,-7.151,-7.1977,-7.2353,-7.2565,-7.1876,-7.1338,-7.0919,-7.2176,-7.2924,-7.2924,-7.418,-7.4569,-7.3911,-7.43,-7.43,-7.3881,-7.43,-7.4629,-7.4869,-7.4869,-7.4869,-7.4869,-7.4869,-7.4869,-7.4869,-7.4869,-7.4869,-7.4869,-7.4869,-7.4869,-7.4869,-7.4869,-7.4869,-7.4869,-7.4869,-7.4869,-7.4869,-7.4869,-7.4869,-7.4869,-7.4869,-7.4689,-7.454,-7.4809,-7.4689,-7.454,-7.4809,-7.4869,-7.4869,-7.4869,-7.4869,-7.4869,-7.4869,-7.4869,-7.4869,-7.4869,-7.4869,-7.4869,-7.4869,-7.4869,-7.4869,-7.4869,-7.454,-7.442,-7.4809,-7.454,-7.433,-7.448,-7.4151,-7.3672,-7.3163,-7.2355,-7.1876,-7.1876,-7.2146,-7.2595,-7.3283,-7.3941,-7.43,-7.43,-7.4659,-7.4869,-7.4869,-7.4869,-7.4869,-7.4869,-7.4869,-7.4869,-7.4869,-7.4869,-7.4869,-7.4869,-7.4869,-7.4869,-7.4869,-7.4869,-7.4869,-7.5066,-7.6726,-7.7941,-7.9128,-8.1423,-8.2823,-8.3784,-6.2822,-6.2822,-6.2822,-6.2822,-6.2822,-6.2822,-6.2822,-6.4338,-6.5556,-6.5556,-6.7522,-6.9411,-7.0536,-7.0358,-7.0584,-7.1804,-7.1278,-7.0889,-7.0889,-7.2176,-7.2924,-7.2924,-7.418,-7.454,-7.3821,-7.3881,-7.3821,-7.3702,-7.3762,-7.4151,-7.4779,-7.4779,-7.4809,-7.4869,-7.4869,-7.4869,-7.4869,-7.4869,-7.4869,-7.4869,-7.4869,-7.4869,-7.4869,-7.4869,-7.4869,-7.4869,-7.4869,-7.4869,-7.4869,-7.4869,-7.4869,-7.4869,-7.4809,-7.436,-7.4001,-7.4599,-7.436,-7.4031,-7.4689,-7.4869,-7.4869,-7.4869,-7.4869,-7.4869,-7.4869,-7.4869,-7.4869,-7.4869,-7.4869,-7.4869,-7.4869,-7.4869,-7.4869,-7.4869,-7.4839,-7.4809,-7.4869,-7.4839,-7.4569,-7.3971,-7.3851,-7.3313,-7.1996,-7.1846,-7.1846,-7.1966,-7.2565,-7.3223,-7.3941,-7.454,-7.4869,-7.4869,-7.4869,-7.4869,-7.4869,-7.4869,-7.4869,-7.4869,-7.4869,-7.4869,-7.4869,-7.4869,-7.4869,-7.4869,-7.4869,-7.4869,-7.4869,-7.4869,-7.4869,-7.4929,-7.5557,-7.6544,-7.7739,-7.9856,-8.1404,-8.2572,-6.2822,-6.2822,-6.2822,-6.2822,-6.2822,-6.2822,-6.2822,-6.3123,-6.3423,-6.3423,-6.6623,-6.8816,-6.8622,-7.0807,-7.2194,-7.1936,-7.1278,-7.0889,-7.0889,-7.2176,-7.2924,-7.2924,-7.418,-7.433,-7.3163,-7.3642,-7.3373,-7.2325,-7.2864,-7.3462,-7.4121,-7.4121,-7.439,-7.4869,-7.4869,-7.4869,-7.4869,-7.4869,-7.4869,-7.4869,-7.4869,-7.4869,-7.4869,-7.4869,-7.4869,-7.4869,-7.4869,-7.4869,-7.4869,-7.4869,-7.4869,-7.4779,-7.427,-7.4001,-7.3911,-7.4061,-7.4001,-7.4031,-7.4689,-7.4869,-7.4869,-7.4869,-7.4869,-7.4869,-7.4869,-7.4869,-7.4869,-7.4869,-7.4869,-7.4869,-7.4869,-7.4869,-7.4869,-7.4869,-7.445,-7.43,-7.4809,-7.442,-7.4061,-7.3911,-7.3432,-7.2804,-7.1966,-7.1427,-7.1547,-7.2624,-7.2834,-7.3432,-7.4599,-7.4809,-7.4869,-7.4869,-7.4869,-7.4869,-7.4869,-7.4869,-7.4869,-7.4869,-7.4869,-7.4869,-7.4869,-7.4869,-7.4869,-7.4869,-7.4869,-7.4869,-7.4869,-7.4869,-7.4869,-7.4899,-7.5048,-7.6853,-7.9281,-7.9809,-8.172,-8.4143,-6.2822,-6.2822,-6.2822,-6.2822,-6.2822,-6.2822,-6.2822,-6.2822,-6.2822,-6.2822,-6.5319,-6.7175,-6.7442,-6.9617,-7.1154,-7.1326,-7.1098,-7.0889,-7.0889,-7.2176,-7.2924,-7.2924,-7.418,-7.427,-7.2954,-7.3253,-7.2924,-7.1876,-7.2235,-7.2774,-7.3432,-7.3432,-7.3762,-7.439,-7.4091,-7.43,-7.4869,-7.454,-7.4599,-7.4869,-7.4869,-7.4869,-7.4899,-7.5258,-7.5377,-7.5377,-7.5377,-7.5138,-7.4869,-7.4869,-7.4659,-7.436,-7.4001,-7.3462,-7.3013,-7.3343,-7.3432,-7.3582,-7.424,-7.4629,-7.4869,-7.4869,-7.4869,-7.4869,-7.4869,-7.4869,-7.4869,-7.4869,-7.4869,-7.4869,-7.4869,-7.4869,-7.4869,-7.4869,-7.4599,-7.436,-7.439,-7.4121,-7.3642,-7.3013,-7.2624,-7.2295,-7.1906,-7.1577,-7.1936,-7.3283,-7.3373,-7.3821,-7.4839,-7.4869,-7.4869,-7.4869,-7.4869,-7.4869,-7.4869,-7.4869,-7.4869,-7.4869,-7.4869,-7.4869,-7.4869,-7.4869,-7.4869,-7.4899,-7.5228,-7.5377,-7.5377,-7.5677,-7.5647,-7.5407,-7.5677,-7.6885,-7.8691,-7.9878,-8.2115,-8.464,-6.2822,-6.2822,-6.2822,-6.2822,-6.2822,-6.2822,-6.2822,-6.2822,-6.2822,-6.2822,-6.3981,-6.5349,-6.6235,-6.7863,-6.937,-7.0819,-7.0889,-7.0889,-7.0889,-7.2176,-7.2924,-7.2924,-7.418,-7.427,-7.2954,-7.2924,-7.2535,-7.1727,-7.1727,-7.2056,-7.2744,-7.2744,-7.3103,-7.3702,-7.3163,-7.3582,-7.4659,-7.4121,-7.427,-7.4899,-7.4988,-7.5048,-7.5138,-7.5796,-7.6066,-7.6066,-7.6066,-7.5617,-7.5018,-7.4779,-7.436,-7.3851,-7.3612,-7.2864,-7.2176,-7.2744,-7.2984,-7.3223,-7.3881,-7.445,-7.4869,-7.4869,-7.4869,-7.4869,-7.4869,-7.4869,-7.4869,-7.4869,-7.4869,-7.4869,-7.4869,-7.4869,-7.4869,-7.4869,-7.4779,-7.451,-7.3971,-7.3791,-7.3253,-7.2026,-7.1876,-7.1846,-7.1727,-7.1816,-7.2385,-7.3642,-7.3732,-7.4061,-7.4839,-7.4869,-7.4869,-7.4869,-7.4869,-7.4869,-7.4869,-7.4869,-7.4869,-7.4869,-7.4869,-7.4869,-7.4869,-7.4869,-7.4869,-7.4929,-7.5617,-7.5826,-7.5796,-7.6514,-7.6395,-7.5796,-7.6425,-7.6925,-7.761,-8.0041,-8.2461,-8.4606,-6.2822,-6.2822,-6.2822,-6.2822,-6.2822,-6.2822,-6.2822,-6.2822,-6.2822,-6.2822,-6.4139,-6.4762,-6.4486,-6.6616,-6.8905,-7.0759,-7.0889,-7.0889,-7.0889,-7.2176,-7.2924,-7.2924,-7.418,-7.427,-7.2954,-7.2924,-7.2295,-7.1038,-7.1038,-7.1368,-7.2026,-7.2026,-7.2385,-7.3043,-7.2954,-7.3343,-7.4031,-7.3941,-7.427,-7.4929,-7.5527,-7.5766,-7.5826,-7.6455,-7.6694,-7.6694,-7.6694,-7.6305,-7.5587,-7.442,-7.3971,-7.3702,-7.2535,-7.2445,-7.2804,-7.2894,-7.3313,-7.3911,-7.4569,-7.4809,-7.4869,-7.4869,-7.4869,-7.4869,-7.4869,-7.4869,-7.4869,-7.4869,-7.4869,-7.4869,-7.4869,-7.4869,-7.4869,-7.4869,-7.439,-7.4001,-7.3911,-7.3402,-7.2744,-7.1966,-7.1876,-7.1667,-7.1098,-7.1547,-7.2206,-7.2984,-7.3043,-7.3582,-7.4809,-7.4869,-7.4869,-7.4869,-7.4869,-7.4869,-7.4869,-7.4869,-7.4869,-7.4869,-7.4869,-7.4869,-7.4869,-7.4869,-7.4869,-7.4929,-7.5617,-7.5557,-7.5108,-7.6335,-7.6125,-7.5078,-7.5766,-7.653,-7.7676,-8.0831,-8.3121,-8.4539,-6.2898,-6.2822,-6.2822,-6.2822,-6.2822,-6.2822,-6.2822,-6.2822,-6.2822,-6.2822,-6.3723,-6.4265,-6.4002,-6.639,-6.8817,-7.0759,-7.0889,-7.0889,-7.0889,-7.2176,-7.2924,-7.2924,-7.418,-7.427,-7.2954,-7.2924,-7.2265,-7.0889,-7.0889,-7.1038,-7.1338,-7.1338,-7.1697,-7.2325,-7.1966,-7.2385,-7.3343,-7.3343,-7.3732,-7.442,-7.5497,-7.5916,-7.6006,-7.6993,-7.7382,-7.7382,-7.7382,-7.6754,-7.5766,-7.4779,-7.3941,-7.3163,-7.2176,-7.1846,-7.1876,-7.2235,-7.2804,-7.3492,-7.4151,-7.4599,-7.4869,-7.4869,-7.4869,-7.4869,-7.4869,-7.4869,-7.4869,-7.4869,-7.4869,-7.4869,-7.4869,-7.4869,-7.4869,-7.4869,-7.433,-7.3762,-7.3402,-7.2774,-7.2086,-7.1427,-7.1338,-7.1517,-7.1966,-7.2295,-7.2744,-7.3402,-7.3791,-7.4091,-7.43,-7.4689,-7.4869,-7.4869,-7.4869,-7.4869,-7.4869,-7.4869,-7.4869,-7.4869,-7.4869,-7.4869,-7.4869,-7.4869,-7.4869,-7.4929,-7.5617,-7.5736,-7.5527,-7.6455,-7.6275,-7.5497,-7.5796,-7.7079,-7.8909,-8.0256,-8.2458,-8.4505]}]]